Date StartTime U_cm/s V_cm/s W_cm/s Ustd_cm/s Vstd_cm/s Wstd_cm/s Uvar_(cm/s)^2 Vvar_(cm/s)^2 Wvar_(cm/s)^2 KE_(m/s)^2 TurbulentKE_(m/s)^2 HorizWindSpeed_cm/s FrictionSpeec_cm/s DragCoef SpeedOfSound_m/s SonicTemperature_C Pressure_mb 
11/01/2014  00:00:00      -66.705      203.776      -21.916       59.204       70.029       34.249     3505.130     4904.037     1172.970        2.802        0.479      214.416       34.619        0.026      336.042        7.075      849.973
11/01/2014  00:01:00       17.471      206.104      -18.934       50.605       99.358       44.486     2560.886     9871.956     1979.007        2.877        0.721      206.843       44.411        0.046      335.995        6.998      849.931
11/01/2014  00:02:00      -46.363      200.886      -23.280       78.964      118.665       48.221     6235.278    14081.278     2325.300        3.284        1.132      206.166       46.669        0.051      335.998        7.004      849.922
11/01/2014  00:03:00      -65.753      151.651       -7.247       60.558       88.533       32.414     3667.305     7838.081     1050.653        1.996        0.628      165.292       36.825        0.050      336.040        7.072      849.917
11/01/2014  00:04:00      -64.294      313.213      -42.524       47.591       79.450       29.118     2264.891     6312.292      847.849        5.673        0.471      319.744       21.492        0.005      335.949        6.919      849.916
11/01/2014  00:05:00     -106.076      118.784      -12.185       73.609       78.296       33.958     5418.242     6130.271     1153.150        1.910        0.635      159.254       29.424        0.034      336.035        7.064      849.916
11/01/2014  00:06:00      -98.844      126.764      -17.422       38.020       53.442       31.051     1445.543     2856.096      964.188        1.570        0.263      160.746       24.260        0.023      336.020        7.040      849.913
11/01/2014  00:07:00     -111.251       75.824      -13.749       76.937       54.198       38.364     5919.253     2937.454     1471.763        1.432        0.516      134.633       44.787        0.111      335.976        6.966      849.917
11/01/2014  00:08:00     -117.533      182.577      -21.942       69.605      107.023       43.433     4844.893    11453.995     1886.413        3.290        0.909      217.137       39.994        0.034      335.973        6.961      849.905
11/01/2014  00:09:00     -126.422      195.085      -28.138       68.864      101.210       49.804     4742.192    10243.468     2480.422        3.615        0.873      232.467       51.146        0.048      335.928        6.885      849.892
11/01/2014  00:10:00      -58.930      199.885      -13.481       55.254       65.230       35.936     3053.053     4255.002     1291.426        2.610        0.430      208.391       27.815        0.018      335.935        6.897      849.871
11/01/2014  00:11:00     -112.268      191.150      -25.816       64.476      112.142       37.291     4157.197    12575.893     1390.602        3.396        0.906      221.681       46.904        0.045      335.895        6.830      849.849
11/01/2014  00:12:00      -87.650      237.654      -22.021       84.652      110.487       52.701     7165.881    12207.334     2777.438        4.339        1.108      253.302       63.781        0.063      335.921        6.873      849.821
11/01/2014  00:13:00     -100.971      129.489      -22.199       59.596       84.851       39.213     3551.636     7199.618     1537.622        1.987        0.614      164.202       23.298        0.020      336.000        7.006      849.837
11/01/2014  00:14:00     -146.120       36.121      -21.764       61.974       45.638       35.580     3840.787     2082.833     1265.963        1.516        0.359      150.518       26.116        0.030      335.934        6.898      849.848
11/01/2014  00:15:00      -47.385       70.220       -2.827       45.382       58.233       26.668     2059.496     3391.110      711.204        0.667        0.308       84.712       19.007        0.050      335.929        6.890      849.841
11/01/2014  00:16:00     -104.006      142.079      -27.476       77.052       72.088       46.939     5936.959     5196.678     2203.238        2.255        0.667      176.079       43.425        0.061      335.916        6.867      849.873
11/01/2014  00:17:00      -85.931      119.543      -21.969       58.316       87.241       35.903     3400.717     7611.007     1289.003        1.723        0.615      147.223       36.750        0.062      335.908        6.853      849.874
11/01/2014  00:18:00     -119.236      146.705      -24.615       59.981       79.442       33.607     3597.773     6311.056     1129.401        2.369        0.552      189.049       28.636        0.023      335.873        6.794      849.888
11/01/2014  00:19:00      -66.602      109.874      -10.729       71.001       72.042       44.601     5041.097     5190.007     1989.250        1.442        0.611      128.484       33.844        0.069      335.937        6.902      849.886
11/01/2014  00:20:00      -76.913       96.759      -14.568       30.015       46.782       25.235      900.880     2188.540      636.805        0.961        0.186      123.604       24.626        0.040      335.896        6.835      849.893
11/01/2014  00:21:00      -67.929      115.678      -11.935       43.676       35.999       26.809     1907.553     1295.952      718.744        1.103        0.196      134.148       21.034        0.025      335.926        6.883      849.908
11/01/2014  00:22:00     -105.297      108.032      -18.811       53.468       70.864       40.690     2858.815     5021.693     1655.691        1.632        0.477      150.859       31.624        0.044      335.917        6.868      849.929
11/01/2014  00:23:00      -54.015       91.273        1.930       46.988       61.252       34.178     2207.869     3751.859     1168.153        0.919        0.356      106.059       31.102        0.086      335.940        6.907      849.922
11/01/2014  00:24:00      -60.333       81.116       -8.583       36.215       60.878       25.990     1311.509     3706.071      675.502        0.799        0.285      101.093       27.772        0.075      335.968        6.953      849.924
11/01/2014  00:25:00      -72.160      107.241      -14.519       37.100       43.332       31.397     1376.380     1877.688      985.786        1.058        0.212      129.258       20.948        0.026      335.943        6.914      849.925
11/01/2014  00:26:00      -77.645       27.117       -9.538       37.464       53.414       26.699     1403.561     2853.006      712.820        0.591        0.248       82.244       25.223        0.094      335.967        6.953      849.920
11/01/2014  00:27:00      -94.842      138.553      -17.066       77.155       81.448       35.631     5952.832     6633.727     1269.588        2.117        0.693      167.905       39.351        0.055      335.898        6.837      849.912
11/01/2014  00:28:00     -105.259      174.026      -20.748       71.276       73.736       41.527     5080.218     5436.991     1724.473        2.702        0.612      203.383       37.554        0.034      335.900        6.839      849.904
11/01/2014  00:29:00     -120.223      185.203      -23.120       70.319       99.986       40.531     4944.829     9997.195     1642.722        3.293        0.829      220.802       34.752        0.025      335.863        6.776      849.902
11/01/2014  00:30:00     -138.888      166.178      -27.695       84.956      115.368       50.090     7217.440    13309.852     2509.020        3.535        1.152      216.576       46.715        0.047      335.883        6.812      849.891
11/01/2014  00:31:00     -154.725      279.254      -49.041       58.015       56.469       41.602     3365.683     3188.775     1730.731        5.630        0.414      319.253       40.178        0.016      335.790        6.654      849.891
11/01/2014  00:32:00     -103.080      192.181      -19.836       46.512       86.639       41.525     2163.408     7506.338     1724.351        2.967        0.570      218.081       34.501        0.025      335.870        6.788      849.892
11/01/2014  00:33:00     -113.199       59.258      -23.395       38.968       46.665       27.738     1518.538     2177.597      769.411        1.067        0.223      127.771       23.848        0.035      335.828        6.720      849.875
11/01/2014  00:34:00     -104.039      148.496      -26.782       45.352       80.993       26.641     2056.837     6559.855      709.736        2.146        0.466      181.315       19.128        0.011      335.799        6.670      849.866
11/01/2014  00:35:00      -34.581       77.056        9.982       43.417       50.966       29.250     1884.996     2597.504      855.565        0.628        0.267       84.460       26.054        0.095      335.899        6.840      849.861
11/01/2014  00:36:00      -45.967       92.659       -4.074       28.156       39.445       27.921      792.733     1555.932      779.600        0.692        0.156      103.434       18.840        0.033      335.875        6.800      849.869
11/01/2014  00:37:00      -35.735       45.012       -0.865       31.111       32.449       22.555      967.887     1052.930      508.714        0.292        0.126       57.472       19.678        0.117      335.860        6.776      849.860
11/01/2014  00:38:00     -122.189      181.376      -26.465       71.052       84.809       37.741     5048.401     7192.510     1424.372        3.109        0.683      218.694       45.812        0.044      335.827        6.716      849.852
11/01/2014  00:39:00      -97.391      241.899      -29.249       49.309       76.357       41.367     2431.343     5830.415     1711.194        3.941        0.499      260.768       33.250        0.016      335.794        6.659      849.845
11/01/2014  00:40:00      -69.832      103.554      -15.408       67.415       67.817       33.851     4544.729     4599.142     1145.863        1.306        0.514      124.900       34.815        0.078      335.799        6.673      849.835
11/01/2014  00:41:00      -36.177      258.612      -20.135       56.212       70.499       39.544     3159.822     4970.043     1563.707        3.914        0.485      261.130       37.212        0.020      335.812        6.691      849.820
11/01/2014  00:42:00      -48.381      250.903      -28.716       57.827       54.335       32.915     3343.983     2952.307     1083.395        3.675        0.369      255.525       23.995        0.009      335.741        6.573      849.829
11/01/2014  00:43:00      -98.478      218.594      -25.222       53.553       55.733       39.429     2867.904     3106.164     1554.649        3.282        0.376      239.752       31.724        0.018      335.793        6.660      849.849
11/01/2014  00:44:00     -111.033      203.563      -24.882       54.846       86.127       38.533     3008.121     7417.838     1484.797        3.315        0.596      231.875       35.976        0.024      335.771        6.623      849.861
11/01/2014  00:45:00      -81.166      103.639      -22.085       56.721       77.624       36.496     3217.235     6025.546     1331.966        1.419        0.529      131.639       45.479        0.119      335.741        6.576      849.873
11/01/2014  00:46:00      -55.400       83.283        9.490       59.315       52.870       41.200     3518.316     2795.282     1697.481        0.905        0.401      100.026       34.736        0.121      335.800        6.676      849.881
11/01/2014  00:47:00      -67.326      107.028      -15.118       39.947       44.622       29.472     1595.756     1991.152      868.571        1.033        0.223      126.442       25.301        0.040      335.793        6.664      849.899
11/01/2014  00:48:00      -16.743      148.569      -12.926       32.317       53.213       27.273     1044.417     2831.666      743.827        1.357        0.231      149.510       22.200        0.022      335.800        6.674      849.910
11/01/2014  00:49:00      -19.094      152.408      -12.004       36.253       56.914       29.762     1314.291     3239.195      885.762        1.459        0.272      153.599       28.506        0.034      335.743        6.580      849.910
11/01/2014  00:50:00      -53.655      171.508       -8.024       53.882       86.763       41.559     2903.264     7527.790     1727.116        2.226        0.608      179.704       44.151        0.060      335.747        6.585      849.922
11/01/2014  00:51:00      -82.342      178.800      -21.153       81.584       70.624       36.787     6655.880     4987.800     1353.276        2.609        0.650      196.849       30.609        0.024      335.786        6.649      849.927
11/01/2014  00:52:00      -98.377       68.131      -21.927       71.276       82.813       37.213     5080.272     6858.073     1384.777        1.406        0.666      119.665       46.897        0.154      335.739        6.572      849.933
11/01/2014  00:53:00      -80.302      176.734      -25.772       67.900       61.105       36.997     4610.359     3733.879     1368.745        2.403        0.486      194.122       36.729        0.036      335.734        6.563      849.950
11/01/2014  00:54:00      -44.846      278.342      -24.440       63.441       80.199       49.192     4024.752     6431.840     2419.805        4.648        0.644      281.931       46.553        0.027      335.695        6.496      849.967
11/01/2014  00:55:00      -85.745      176.322      -23.670       58.533       51.323       32.957     3426.141     2634.075     1086.176        2.307        0.357      196.066       31.548        0.026      335.710        6.523      849.975
11/01/2014  00:56:00      -91.823      145.012      -16.496       54.403       68.599       30.297     2959.678     4705.868      917.883        1.916        0.429      171.639       33.280        0.038      335.694        6.498      849.973
11/01/2014  00:57:00      -82.076      201.864      -22.163       53.648       63.739       35.083     2878.094     4062.667     1230.803        2.807        0.409      217.912       36.130        0.027      335.727        6.550      849.976
11/01/2014  00:58:00      -72.907      178.903       -9.334       42.823       73.339       32.115     1833.830     5378.572     1031.363        2.282        0.412      193.188       34.028        0.031      335.703        6.512      849.974
11/01/2014  00:59:00      -70.676      162.659      -11.552       59.571       93.811       37.974     3548.744     8800.539     1441.994        2.269        0.690      177.350       34.006        0.037      335.727        6.552      849.965
11/01/2014  01:00:00      -71.629      133.532      -15.815       43.179       55.770       34.521     1864.457     3110.345     1191.722        1.469        0.308      151.530       23.377        0.024      335.712        6.528      849.952
11/01/2014  01:01:00      -73.005       98.938      -11.664       44.629       35.437       24.865     1991.789     1255.792      618.274        0.956        0.193      122.957       24.456        0.040      335.749        6.592      849.949
11/01/2014  01:02:00     -118.406      119.509      -29.860       52.456       50.258       31.533     2751.634     2525.907      994.330        1.773        0.314      168.233       32.850        0.038      335.663        6.446      849.956
11/01/2014  01:03:00      -76.258       63.639       -8.011       35.583       79.349       22.065     1266.162     6296.309      486.848        0.899        0.402       99.324       19.357        0.038      335.678        6.472      849.943
11/01/2014  01:04:00     -122.229       10.293      -23.021       83.031       49.809       26.304     6894.081     2480.983      691.902        1.282        0.503      122.662       26.274        0.046      335.649        6.423      849.940
11/01/2014  01:05:00      -68.634       63.181       -5.540       40.260       36.937       29.416     1620.829     1364.345      865.296        0.629        0.193       93.287       25.904        0.077      335.592        6.327      849.938
11/01/2014  01:06:00      -64.487       51.175      -15.020       37.920       72.826       27.115     1437.931     5303.668      735.246        0.724        0.374       82.326       24.690        0.090      335.664        6.449      849.931
11/01/2014  01:07:00      -75.984       14.868      -12.878       47.232       60.821       32.574     2230.825     3699.220     1061.062        0.657        0.350       77.425       23.980        0.096      335.622        6.379      849.912
11/01/2014  01:08:00      -77.687      111.794      -15.324       41.206      114.110       29.569     1697.948    13021.173      874.355        1.718        0.780      136.136       15.080        0.012      335.567        6.285      849.911
11/01/2014  01:09:00     -131.277      107.739      -19.131       87.315       78.011       40.203     7623.936     6085.713     1616.285        2.226        0.766      169.828       34.593        0.041      335.540        6.240      849.927
11/01/2014  01:10:00     -107.247      156.065      -19.400       77.173       64.795       40.385     5955.665     4198.361     1630.962        2.401        0.589      189.363       40.867        0.047      335.516        6.201      849.935
11/01/2014  01:11:00      -99.379      183.835       -3.319       76.460       91.437       54.105     5846.188     8360.816     2927.342        3.041        0.857      208.977       50.358        0.058      335.512        6.193      849.939
11/01/2014  01:12:00     -110.300       64.046      -16.004       53.753       94.057       32.806     2889.350     8846.665     1076.264        1.467        0.641      127.546       21.629        0.029      335.504        6.181      849.951
11/01/2014  01:13:00     -155.160       48.187      -14.772       56.083       84.667       37.235     3145.358     7168.544     1386.463        1.916        0.585      162.471       41.607        0.066      335.416        6.035      849.954
11/01/2014  01:14:00     -158.038       75.602      -26.187       86.219       56.229       44.364     7433.775     3161.669     1968.151        2.197        0.628      175.190       38.504        0.048      335.385        5.982      849.940
11/01/2014  01:15:00     -112.702       79.840      -22.248       62.354       48.673       30.712     3888.040     2369.085      943.231        1.338        0.360      138.116       35.756        0.067      335.407        6.020      849.936
11/01/2014  01:16:00      -71.406       77.851      -14.819       34.810       50.490       28.359     1211.710     2549.256      804.257        0.797        0.228      105.639       23.214        0.048      335.433        6.064      849.932
11/01/2014  01:17:00      -35.305       50.028        4.068       26.581       32.780       25.042      706.530     1074.539      627.120        0.309        0.120       61.232       17.833        0.085      335.506        6.185      849.925
11/01/2014  01:18:00      -47.575      109.579      -15.209       39.075       40.448       32.021     1526.825     1636.054     1025.358        0.934        0.209      119.461       22.486        0.035      335.464        6.114      849.912
11/01/2014  01:19:00      -29.950       93.188       -3.013       49.750       60.360       34.168     2475.105     3643.323     1167.464        0.844        0.364       97.883       29.609        0.092      335.455        6.100      849.898
11/01/2014  01:20:00      -76.448       11.131      -10.292       33.095       44.568       19.350     1095.247     1986.278      374.404        0.476        0.173       77.254       16.177        0.044      335.507        6.187      849.873
11/01/2014  01:21:00     -127.517       38.397      -16.403       42.537       88.277       31.052     1809.412     7792.859      964.241        1.428        0.528      133.173       38.349        0.083      335.432        6.060      849.858
11/01/2014  01:22:00     -105.771        2.334      -13.461       47.503       40.384       30.622     2256.490     1630.899      937.707        0.810        0.241      105.797       29.274        0.077      335.354        5.931      849.852
11/01/2014  01:23:00      -25.587       17.048        5.515       32.166       49.584       24.323     1034.630     2458.532      591.623        0.253        0.204       30.746       11.969        0.152      335.330        5.892      849.824
11/01/2014  01:24:00      -59.766      -18.308       -0.295       32.968       41.266       22.921     1086.870     1702.843      525.362        0.361        0.166       62.507       18.086        0.084      335.342        5.911      849.791
11/01/2014  01:25:00      -68.559      106.825      -24.649       28.083       43.022       23.908      788.682     1850.900      571.613        0.996        0.161      126.933       16.042        0.016      335.471        6.126      849.778
11/01/2014  01:26:00      -69.203       73.440      -15.588       48.465       49.107       26.468     2348.846     2411.536      700.574        0.794        0.273      100.909       28.552        0.080      335.368        5.955      849.775
11/01/2014  01:27:00      -90.550      109.154      -24.327       35.895       43.361       28.781     1288.453     1880.218      828.371        1.235        0.200      141.823       19.892        0.020      335.397        6.004      849.760
11/01/2014  01:28:00      -73.700       55.015       -7.175       28.245       31.411       21.011      797.792      986.645      441.446        0.537        0.111       91.969       13.526        0.022      335.341        5.910      849.740
11/01/2014  01:29:00      -23.495      110.862       -1.408       27.894       65.546       26.976      778.059     4296.306      727.710        0.932        0.290      113.324       20.513        0.033      335.415        6.032      849.721
11/01/2014  01:30:00      -32.656      113.327       -4.890       32.318       45.777       25.541     1044.434     2095.572      652.359        0.886        0.190      117.938       19.996        0.029      335.555        6.267      849.708
11/01/2014  01:31:00      -72.726      129.626      -12.700       38.563       48.512       26.706     1487.076     2353.454      713.208        1.340        0.228      148.634       19.243        0.017      335.390        5.991      849.696
11/01/2014  01:32:00      -45.123      138.022      -13.536       43.043       62.327       22.441     1852.712     3884.666      503.608        1.375        0.312      145.211       23.181        0.025      335.422        6.044      849.682
11/01/2014  01:33:00      -57.361      151.374      -14.964       47.776       58.675       28.451     2282.591     3442.708      809.482        1.648        0.327      161.878       24.829        0.024      335.375        5.966      849.675
11/01/2014  01:34:00      -82.040      116.526      -18.803       45.325       49.211       24.286     2054.317     2421.761      589.834        1.286        0.253      142.509       17.626        0.015      335.381        5.975      849.653
11/01/2014  01:35:00      -71.863      110.584      -22.101       47.873       45.219       28.998     2291.779     2044.736      840.866        1.153        0.259      131.882       29.548        0.050      335.326        5.884      849.638
11/01/2014  01:36:00      -42.951      135.926      -15.448       31.971       32.252       22.654     1022.157     1040.208      513.190        1.157        0.129      142.551       14.234        0.010      335.406        6.019      849.619
11/01/2014  01:37:00      -37.068      116.295      -17.865       34.224       60.000       22.423     1171.279     3599.969      502.811        1.024        0.264      122.060       20.318        0.028      335.424        6.047      849.604
11/01/2014  01:38:00      -57.557       93.860        0.217       50.489       49.178       30.966     2549.146     2418.461      958.904        0.902        0.296      110.103       25.476        0.054      335.390        5.991      849.586
11/01/2014  01:39:00      -76.292      121.566      -18.779       45.272       70.775       36.979     2049.526     5009.146     1367.471        1.469        0.421      143.523       34.292        0.057      335.324        5.881      849.577
11/01/2014  01:40:00      -81.253      180.506      -20.942       49.717       52.524       32.691     2471.825     2758.784     1068.704        2.296        0.315      197.951       23.169        0.014      335.331        5.891      849.570
11/01/2014  01:41:00      -30.493      172.461       -8.275       44.992       61.879       26.319     2024.242     3829.017      692.682        1.864        0.327      175.136       21.454        0.015      335.378        5.969      849.554
11/01/2014  01:42:00      -53.106       95.866       -4.094       45.741       42.725       33.469     2092.277     1825.453     1120.181        0.853        0.252      109.592       24.377        0.049      335.370        5.958      849.532
11/01/2014  01:43:00      -38.315      107.173       -7.764       48.538       46.013       25.879     2355.923     2117.232      669.744        0.908        0.257      113.816       22.972        0.041      335.410        6.024      849.515
11/01/2014  01:44:00      -48.583      147.660      -20.543       38.608       47.407       26.540     1490.600     2247.408      704.397        1.451        0.222      155.447       29.381        0.036      335.430        6.058      849.506
11/01/2014  01:45:00      -17.736       74.080       16.560       38.704       59.739       28.881     1498.036     3568.769      834.135        0.599        0.295       76.174       31.950        0.176      335.420        6.041      849.495
11/01/2014  01:46:00      -29.607       72.651      -13.689       49.987       66.790       27.407     2498.696     4460.944      751.168        0.702        0.386       78.452       31.915        0.165      335.383        5.981      849.496
11/01/2014  01:47:00      -54.923      232.899      -27.744       45.205       69.660       34.016     2043.509     4852.535     1157.096        3.304        0.403      239.288       33.556        0.020      335.358        5.934      849.489
11/01/2014  01:48:00      -46.806      222.568      -26.113       52.307       51.832       26.248     2736.048     2686.607      688.976        2.926        0.306      227.436       23.004        0.010      335.306        5.850      849.474
11/01/2014  01:49:00     -111.355      166.942      -35.462       48.701       81.715       29.501     2371.747     6677.381      870.306        2.572        0.496      200.673       32.020        0.025      335.364        5.946      849.468
11/01/2014  01:50:00      -41.625      246.395      -23.490       55.145       90.642       40.070     3040.964     8215.965     1605.620        3.793        0.643      249.886       32.735        0.017      335.255        5.763      849.457
11/01/2014  01:51:00      -47.631      140.925       -8.801       46.345       56.838       34.080     2147.902     3230.592     1161.414        1.437        0.327      148.757       32.801        0.049      335.356        5.935      849.448
11/01/2014  01:52:00      -86.481      145.274      -15.816       48.721       61.053       36.469     2373.728     3727.441     1329.983        1.813        0.372      169.066       32.718        0.037      335.329        5.889      849.436
11/01/2014  01:53:00     -136.376      249.515      -35.305       66.986       57.339       39.338     4487.075     3287.756     1547.474        4.571        0.466      284.352       39.861        0.020      335.252        5.758      849.414
11/01/2014  01:54:00      -39.435      126.842      -13.637       45.106       44.724       26.681     2034.532     2000.219      711.856        1.129        0.237      132.831       28.214        0.045      335.331        5.893      849.400
11/01/2014  01:55:00      -28.437      145.349       -4.983       33.032       83.957       30.172     1091.091     7048.820      910.354        1.550        0.453      148.105       36.648        0.061      335.316        5.865      849.382
11/01/2014  01:56:00      -54.128      157.010      -16.281       52.279       56.649       29.702     2733.128     3209.123      882.190        1.733        0.341      166.078       24.003        0.021      335.284        5.814      849.382
11/01/2014  01:57:00      -26.835       96.424       -2.615       57.376       57.239       28.192     3291.950     3276.260      794.795        0.869        0.368      100.088       23.288        0.054      335.348        5.921      849.378
11/01/2014  01:58:00      -17.374       70.951       -2.620       41.331       60.669       36.037     1708.293     3680.718     1298.687        0.601        0.334       73.047       35.405        0.235      335.367        5.952      849.367
11/01/2014  01:59:00      -17.594       81.032       -3.727       48.750       63.695       35.283     2376.528     4057.072     1244.861        0.728        0.384       82.920       35.018        0.178      335.315        5.865      849.349
11/01/2014  02:00:00      -41.785       95.776       -6.287       57.305      113.612       28.965     3283.846    12907.734      838.942        1.399        0.852      104.494       30.990        0.088      335.315        5.865      849.331
11/01/2014  02:01:00      -14.076       69.484       -4.887       38.099       42.851       24.245     1451.559     1836.176      587.833        0.446        0.194       70.896       15.764        0.049      335.317        5.868      849.315
11/01/2014  02:02:00      -12.859      114.907       -1.615       76.730       72.040       45.068     5887.448     5189.759     2031.158        1.324        0.655      115.624       45.179        0.153      335.376        5.967      849.320
11/01/2014  02:03:00        4.061       96.449        3.100       30.012       59.837       30.416      900.731     3580.493      925.105        0.737        0.270       96.534       32.530        0.114      335.271        5.792      849.308
11/01/2014  02:04:00      -31.279       78.326      -10.244       39.119       47.551       26.673     1530.325     2261.143      711.423        0.586        0.225       84.340       20.739        0.060      335.354        5.932      849.317
11/01/2014  02:05:00      -69.606      150.438      -17.278       41.765       58.647       29.611     1744.313     3439.478      876.815        1.692        0.303      165.760       31.168        0.035      335.346        5.917      849.316
11/01/2014  02:06:00       21.003       78.376       -2.583       25.701       47.340       27.875      660.530     2241.113      777.005        0.513        0.184       81.141       31.512        0.151      335.322        5.877      849.315
11/01/2014  02:07:00      -14.325      178.167      -21.173       40.166       64.660       23.474     1613.272     4180.942      551.015        1.937        0.317      178.742       21.404        0.014      335.284        5.813      849.298
11/01/2014  02:08:00       -8.319       87.147       17.203       68.917       70.900       45.899     4749.512     5026.793     2106.743        0.992        0.594       87.543       51.900        0.351      335.382        5.979      849.265
11/01/2014  02:09:00        3.304       78.712       -2.568       42.994       59.950       33.034     1848.478     3593.991     1091.260        0.637        0.327       78.781       27.062        0.118      335.277        5.804      849.244
11/01/2014  02:10:00       57.454       63.610       -0.419       52.782       31.876       27.628     2785.895     1016.086      763.286        0.596        0.228       85.716       17.374        0.041      335.270        5.790      849.238
11/01/2014  02:11:00       39.495       36.563        5.713       43.933       24.755       19.095     1930.131      612.811      364.619        0.292        0.145       53.821       17.318        0.104      335.253        5.761      849.252
11/01/2014  02:12:00       34.045       50.699        4.305       28.100       32.100       21.223      789.634     1030.425      450.414        0.301        0.114       61.069       20.824        0.116      335.240        5.741      849.289
11/01/2014  02:13:00       19.756       66.306       13.573       36.650       44.667       35.850     1343.225     1995.166     1285.224        0.480        0.231       69.186       31.268        0.204      335.259        5.772      849.314
11/01/2014  02:14:00       32.216       27.524        7.796       35.087       28.674       20.484     1231.131      822.186      419.595        0.216        0.124       42.373       12.590        0.088      335.291        5.827      849.319
11/01/2014  02:15:00       56.736       84.752      -11.069       34.693       39.967       23.619     1203.625     1597.400      557.837        0.694        0.168      101.990       17.821        0.031      335.246        5.751      849.321
11/01/2014  02:16:00       71.671       69.853       -1.045       39.041       33.957       29.174     1524.199     1153.060      851.143        0.677        0.176      100.081       19.699        0.039      335.251        5.758      849.316
11/01/2014  02:17:00       72.744       49.813        8.706       46.581       34.934       29.660     2169.743     1220.377      879.736        0.606        0.213       88.165       16.512        0.035      335.258        5.769      849.306
11/01/2014  02:18:00       55.783      101.133       -4.616       45.798       45.863       33.254     2097.457     2103.456     1105.819        0.933        0.265      115.497       24.843        0.046      335.236        5.734      849.285
11/01/2014  02:19:00       31.861       66.539       -6.655       34.716       43.960       25.661     1205.184     1932.512      658.472        0.464        0.190       73.774       25.244        0.117      335.249        5.755      849.258
11/01/2014  02:20:00       27.504       99.923      -10.612       28.898       48.267       28.981      835.084     2329.706      839.906        0.743        0.200      103.640       27.276        0.069      335.240        5.740      849.225
11/01/2014  02:21:00      128.413       93.526        5.705       56.652       36.800       26.559     3209.482     1354.249      705.386        1.527        0.263      158.862       14.207        0.008      335.230        5.723      849.188
11/01/2014  02:22:00       79.441       83.721       11.113       76.335       52.883       50.778     5827.071     2796.620     2578.399        1.232        0.560      115.413       29.666        0.066      335.242        5.743      849.152
11/01/2014  02:23:00      110.530       80.618        2.821       46.326       38.314       39.237     2146.084     1467.966     1539.564        1.194        0.258      136.806       23.105        0.029      335.215        5.697      849.123
11/01/2014  02:24:00      172.246      123.602       19.816       47.294       41.614       41.876     2236.682     1731.746     1753.633        2.553        0.286      212.005       23.451        0.012      335.233        5.726      849.103
11/01/2014  02:25:00      127.206      104.979        2.637       78.484       39.817       46.029     6159.801     1585.420     2118.657        1.853        0.493      164.930       24.826        0.023      335.223        5.712      849.087
11/01/2014  02:26:00       30.972       65.967       -0.578       40.926       49.425       33.377     1674.924     2442.794     1113.997        0.527        0.262       72.876       28.527        0.153      335.215        5.699      849.085
11/01/2014  02:27:00       53.172       48.666        6.401       34.668       32.357       26.385     1201.839     1046.959      696.153        0.409        0.147       72.081       21.777        0.091      335.203        5.680      849.091
11/01/2014  02:28:00       38.395       78.981       -8.223       35.486       42.398       27.268     1259.221     1797.624      743.532        0.579        0.190       87.819       26.794        0.093      335.216        5.701      849.104
11/01/2014  02:29:00       62.577       88.880        1.951       53.466       50.089       36.086     2858.588     2508.953     1302.164        0.924        0.333      108.699       30.643        0.079      335.221        5.707      849.100
11/01/2014  02:30:00       52.880      115.448      -15.094       51.290       66.536       40.612     2630.697     4427.022     1649.327        1.253        0.435      126.982       41.851        0.109      335.226        5.717      849.088
11/01/2014  02:31:00       35.859       94.295       -1.518       52.161       57.778       40.914     2720.818     3338.349     1673.931        0.895        0.387      100.883       35.552        0.124      335.218        5.706      849.070
11/01/2014  02:32:00       76.238       91.000        3.056       51.100       50.092       40.724     2611.243     2509.249     1658.444        1.044        0.339      118.715       38.295        0.104      335.222        5.711      849.050
11/01/2014  02:33:00       63.098       73.151       -1.272       59.486       46.686       28.941     3538.557     2179.618      837.610        0.794        0.328       96.605       22.802        0.056      335.209        5.689      849.040
11/01/2014  02:34:00       42.223      155.521      -15.338       53.982       68.537       43.910     2914.058     4697.277     1928.072        1.787        0.477      161.150       43.867        0.074      335.239        5.738      849.038
11/01/2014  02:35:00       47.703       78.053       11.746       53.202       60.445       40.306     2830.469     3653.611     1624.589        0.831        0.405       91.476       38.168        0.174      335.243        5.745      849.032
11/01/2014  02:36:00       72.417       72.681        0.034       38.400       47.381       32.386     1474.577     2244.998     1048.840        0.765        0.238      102.600       26.990        0.069      335.214        5.698      849.028
11/01/2014  02:37:00      133.118       93.567       15.592       32.631       32.149       26.362     1064.771     1033.529      694.977        1.476        0.140      162.712       18.323        0.013      335.194        5.665      849.034
11/01/2014  02:38:00       65.895       38.910       20.616       35.748       32.004       21.770     1277.890     1024.231      473.927        0.453        0.139       76.526       20.243        0.070      335.209        5.690      849.036
11/01/2014  02:39:00       19.278       30.908       16.475       17.861       20.613       17.803      319.016      424.875      316.959        0.133        0.053       36.427       14.345        0.155      335.242        5.744      849.037
11/01/2014  02:40:00       47.912       25.901        7.406       35.893       20.579       18.114     1288.278      423.498      328.131        0.253        0.102       54.465       10.672        0.038      335.241        5.742      849.038
11/01/2014  02:41:00       88.292       36.525       15.050       37.290       30.389       29.561     1390.511      923.478      873.827        0.627        0.159       95.549       23.436        0.060      335.280        5.808      849.029
11/01/2014  02:42:00       75.038       38.368        7.047       38.867       28.234       23.370     1510.658      797.137      546.173        0.500        0.143       84.279       15.987        0.036      335.239        5.740      849.007
11/01/2014  02:43:00       72.078       57.797       -0.156       34.532       22.587       20.056     1192.446      510.185      402.240        0.532        0.105       92.389       19.096        0.043      335.239        5.739      848.990
11/01/2014  02:44:00       84.624       65.811        3.264       20.275       21.879       21.028      411.075      478.701      442.182        0.642        0.067      107.203       11.997        0.013      335.206        5.685      848.987
11/01/2014  02:45:00       90.031       58.425       -1.441       29.289       24.095       23.743      857.855      580.561      563.728        0.676        0.100      107.327       19.134        0.032      335.226        5.717      848.987
11/01/2014  02:46:00       82.659       47.345        1.868       26.793       24.163       20.094      717.842      583.841      403.779        0.539        0.085       95.258        8.815        0.009      335.243        5.746      848.989
11/01/2014  02:47:00       35.231       68.791       -2.645       23.599       32.593       21.287      556.896     1062.274      453.143        0.403        0.104       77.288       19.417        0.063      335.210        5.690      849.001
11/01/2014  02:48:00       51.649       62.058       -5.665       46.243       36.184       31.561     2138.383     1309.316      996.119        0.550        0.222       80.739       20.717        0.066      335.219        5.705      849.006
11/01/2014  02:49:00       71.498       61.365       -2.036       33.680       33.194       21.779     1134.376     1101.827      474.333        0.580        0.136       94.221       17.321        0.034      335.254        5.761      849.020
11/01/2014  02:50:00      121.831       67.476       -4.381       26.757       23.409       22.018      715.963      547.977      484.790        1.058        0.087      139.269       14.254        0.010      335.231        5.727      849.037
11/01/2014  02:51:00       69.700       69.906       35.057       46.426       31.090       39.580     2155.328      966.609     1566.552        0.783        0.234       98.716       34.504        0.122      335.247        5.753      849.046
11/01/2014  02:52:00       51.243       63.854       43.292       54.459       31.060       41.767     2965.754      964.694     1744.453        0.713        0.284       81.873       39.716        0.235      335.240        5.742      849.050
11/01/2014  02:53:00      103.625       41.899       19.526       44.939       27.425       31.307     2019.494      752.109      980.135        0.831        0.188      111.775       20.544        0.034      335.177        5.638      849.055
11/01/2014  02:54:00       89.930       53.605       24.040       41.745       21.625       28.487     1742.627      467.662      811.493        0.728        0.151      104.694        9.122        0.008      335.167        5.622      849.043
11/01/2014  02:55:00      126.610       85.296       -0.553       41.566       34.203       27.652     1727.752     1169.844      764.649        1.348        0.183      152.662       21.632        0.020      335.135        5.568      849.043
11/01/2014  02:56:00      101.682       83.329       37.079       38.787       36.243       43.260     1504.439     1313.524     1871.389        1.167        0.234      131.465       33.001        0.063      335.123        5.549      849.042
11/01/2014  02:57:00      107.138       75.196       27.100       47.961       39.833       43.024     2300.213     1586.675     1851.096        1.180        0.287      130.893       24.857        0.036      335.109        5.527      849.042
11/01/2014  02:58:00      125.974       75.367       29.203       48.919       42.944       32.402     2393.107     1844.216     1049.914        1.384        0.264      146.798       16.635        0.013      335.070        5.461      849.049
11/01/2014  02:59:00      146.919       80.702       38.349       45.224       33.919       37.380     2045.228     1150.505     1397.272        1.708        0.230      167.624       28.623        0.029      335.068        5.458      849.066
11/01/2014  03:00:00       96.689       63.884       36.245       51.248       40.656       43.163     2626.323     1652.924     1863.030        1.044        0.307      115.888       32.625        0.079      335.048        5.424      849.061
11/01/2014  03:01:00       92.190       55.770       36.970       62.533       40.175       38.459     3910.430     1614.039     1479.101        0.999        0.350      107.746       37.756        0.123      335.068        5.457      849.055
11/01/2014  03:02:00      150.165       83.452       31.326       49.668       43.912       38.072     2466.936     1928.239     1449.472        1.817        0.292      171.796       19.597        0.013      334.994        5.334      849.040
11/01/2014  03:03:00       97.951       52.557       22.636       43.390       34.749       30.709     1882.715     1207.525      943.048        0.845        0.202      111.161       27.118        0.060      335.017        5.371      849.033
11/01/2014  03:04:00       99.995       60.686        3.370       36.174       35.445       28.545     1308.550     1256.364      814.810        0.854        0.169      116.969        9.117        0.006      334.975        5.303      849.025
11/01/2014  03:05:00      118.731       66.938       13.048       49.341       36.694       29.328     2434.494     1346.425      860.113        1.169        0.232      136.300       11.959        0.008      334.982        5.315      849.021
11/01/2014  03:06:00      128.136       83.960       22.628       59.609       44.510       37.582     3553.234     1981.113     1412.391        1.546        0.347      153.193       30.009        0.038      334.985        5.319      849.021
11/01/2014  03:07:00      126.973       72.472       16.960       29.752       32.270       32.175      885.197     1041.331     1035.201        1.231        0.148      146.200       17.722        0.015      334.987        5.324      849.032
11/01/2014  03:08:00      113.455       80.684       15.249       54.549       42.035       36.127     2975.546     1766.911     1305.181        1.283        0.302      139.219       25.425        0.033      334.960        5.279      849.042
11/01/2014  03:09:00      130.617       84.566       19.715       57.172       48.058       33.926     3268.661     2309.537     1150.991        1.566        0.336      155.603       29.604        0.036      334.975        5.301      849.046
11/01/2014  03:10:00      126.680       97.241       25.748       37.640       43.401       36.101     1416.785     1883.634     1303.307        1.538        0.230      159.698       22.939        0.021      334.989        5.326      849.062
11/01/2014  03:11:00      133.664       97.500       10.904       49.680       45.110       46.722     2468.134     2034.878     2182.981        1.709        0.334      165.445       24.908        0.023      334.970        5.293      849.071
11/01/2014  03:12:00      120.317       78.005       17.100       45.842       39.451       32.199     2101.477     1556.343     1036.804        1.277        0.235      143.391       24.716        0.030      334.997        5.340      849.076
11/01/2014  03:13:00      141.692       92.241       12.765       53.775       45.208       38.316     2891.751     2043.743     1468.143        1.757        0.320      169.071       20.072        0.014      335.004        5.351      849.073
11/01/2014  03:14:00      116.449       54.246        9.694       66.906       52.667       35.883     4476.448     2773.783     1287.563        1.257        0.427      128.464       25.498        0.039      335.028        5.390      849.083
11/01/2014  03:15:00      117.976       81.816       19.373       36.524       39.328       34.642     1333.985     1546.690     1200.075        1.253        0.204      143.570       21.222        0.022      335.003        5.348      849.083
11/01/2014  03:16:00      136.240       91.471       25.661       57.613       36.135       39.212     3319.290     1305.763     1537.612        1.687        0.308      164.099       23.063        0.020      334.999        5.342      849.082
11/01/2014  03:17:00      112.064       73.636       27.903       36.928       26.092       32.043     1363.695      680.807     1026.729        1.091        0.154      134.092       22.496        0.028      335.004        5.351      849.074
11/01/2014  03:18:00       67.058       29.033        8.580       49.821       29.987       26.675     2482.168      899.236      711.571        0.475        0.205       73.073       29.143        0.159      335.058        5.443      849.058
11/01/2014  03:19:00        5.842        8.162       21.002       18.129       32.298       20.197      328.643     1043.192      407.905        0.116        0.089       10.038       17.717        3.115      335.135        5.569      849.049
11/01/2014  03:20:00       22.224        9.331       48.014       25.143       25.917       16.826      632.160      671.671      283.112        0.224        0.079       24.103       14.305        0.352      335.169        5.624      849.025
11/01/2014  03:21:00       68.051        3.266       20.358       36.769       26.400       24.516     1351.925      696.975      601.033        0.385        0.132       68.130       17.574        0.067      335.068        5.459      849.012
11/01/2014  03:22:00       24.689       30.400       46.453       49.981       42.395       39.249     2498.147     1797.372     1540.498        0.476        0.292       39.162       37.633        0.923      335.130        5.562      849.011
11/01/2014  03:23:00       39.113        5.328       33.080       38.046       39.208       26.359     1447.479     1537.239      694.823        0.317        0.184       39.475       24.469        0.384      335.145        5.586      849.003
11/01/2014  03:24:00       37.586      -24.888       22.786       39.257       71.323       42.533     1541.147     5086.924     1809.086        0.549        0.422       45.079       55.379        1.509      335.169        5.622      848.991
11/01/2014  03:25:00       29.707       24.909       52.573       38.665       86.519       58.266     1495.015     7485.500     3394.951        0.832        0.619       38.769       66.111        2.908      335.181        5.643      848.970
11/01/2014  03:26:00       52.185      -17.195       40.248       43.016       47.513       41.973     1850.418     2257.476     1761.724        0.525        0.293       54.944       42.400        0.596      335.165        5.617      848.956
11/01/2014  03:27:00       49.175      -41.314       16.389       50.371       43.790       41.772     2537.265     1917.578     1744.940        0.530        0.310       64.226       37.873        0.348      335.171        5.626      848.932
11/01/2014  03:28:00       90.301      -58.738       25.720       49.653       61.639       43.908     2465.387     3799.410     1927.933        1.023        0.410      107.724       32.946        0.094      335.108        5.523      848.906
11/01/2014  03:29:00      113.561     -121.870       -7.771       39.778       42.709       36.717     1582.265     1824.088     1348.107        1.628        0.238      166.579       27.074        0.026      334.976        5.304      848.885
11/01/2014  03:30:00       27.626      -27.000       30.769       46.913       68.734       41.422     2200.848     4724.318     1715.795        0.554        0.432       38.629       40.026        1.074      335.171        5.626      848.871
11/01/2014  03:31:00       69.583      -68.703        9.983       35.098       79.068       38.601     1231.879     6251.744     1490.035        0.932        0.449       97.785       47.088        0.232      335.128        5.555      848.858
11/01/2014  03:32:00       40.887      -47.441       27.422       44.328       75.905       43.492     1964.934     5761.579     1891.562        0.714        0.481       62.629       52.642        0.707      335.107        5.521      848.845
11/01/2014  03:33:00        7.318       27.929       58.642       24.549       42.401       18.508      602.673     1797.841      342.562        0.351        0.137       28.872       22.623        0.614      335.086        5.486      848.833
11/01/2014  03:34:00       76.079       56.203       49.395       59.553       33.102       25.191     3546.587     1095.772      634.607        0.833        0.264       94.587       26.146        0.076      335.017        5.373      848.812
11/01/2014  03:35:00       88.243       59.231       51.451       46.873       37.803       36.494     2197.085     1429.078     1331.778        0.945        0.248      106.279       29.557        0.077      334.961        5.280      848.786
11/01/2014  03:36:00       56.905       59.956       56.207       57.435       42.786       39.501     3298.756     1830.660     1560.360        0.834        0.334       82.661       38.736        0.220      334.929        5.227      848.762
11/01/2014  03:37:00       44.779       39.069       55.762       35.722       34.527       20.732     1276.088     1192.119      429.807        0.477        0.145       59.427       19.390        0.106      334.962        5.281      848.736
11/01/2014  03:38:00       41.978       37.792       51.851       29.774       31.471       20.361      886.518      990.433      414.572        0.408        0.115       56.484       19.415        0.118      335.015        5.369      848.718
11/01/2014  03:39:00       63.261       49.858       21.265       41.528       35.187       28.730     1724.566     1238.108      825.389        0.536        0.189       80.546       18.219        0.051      335.016        5.370      848.702
11/01/2014  03:40:00       66.147       49.035       10.212       29.368       20.027       25.762      862.498      401.087      663.658        0.441        0.096       82.340       21.739        0.070      334.992        5.331      848.684
11/01/2014  03:41:00       15.651      -11.117       23.085       19.724       46.587       27.374      389.021     2170.391      749.359        0.210        0.165       19.198       20.955        1.191      335.082        5.482      848.678
11/01/2014  03:42:00        0.517       -0.595       15.264       18.077       23.169       13.816      326.760      536.823      190.872        0.064        0.053        0.788        9.852      156.161      335.118        5.540      848.675
11/01/2014  03:43:00       21.288        8.719       34.989       24.404       42.369       30.528      595.555     1795.092      931.988        0.254        0.166       23.004       32.808        2.034      335.088        5.490      848.663
11/01/2014  03:44:00       21.162       10.382       38.221       22.429       23.245       14.802      503.038      540.337      219.106        0.164        0.063       23.572       11.372        0.233      335.123        5.549      848.649
11/01/2014  03:45:00       35.282       34.593       44.674       31.852       26.096       23.830     1014.572      681.021      567.850        0.335        0.113       49.412       17.684        0.128      335.087        5.489      848.629
11/01/2014  03:46:00       20.400       59.053       72.094       33.625       43.445       25.192     1130.620     1887.445      634.612        0.638        0.183       62.477       24.700        0.156      335.070        5.461      848.605
11/01/2014  03:47:00      106.232       61.633       30.058       43.667       33.707       39.398     1906.845     1136.136     1552.238        1.029        0.230      122.816       25.901        0.044      334.951        5.264      848.588
11/01/2014  03:48:00       73.447       31.429       26.425       36.974       40.307       31.148     1367.087     1624.662      970.212        0.552        0.198       79.889       21.703        0.074      334.966        5.287      848.572
11/01/2014  03:49:00       62.952       45.276       33.714       33.488       23.395       21.312     1121.444      547.338      454.186        0.464        0.106       77.543        7.658        0.010      334.937        5.239      848.563
11/01/2014  03:50:00       20.139        8.624       26.222       21.320       27.059       17.540      454.537      732.186      307.659        0.133        0.075       21.908       10.378        0.224      335.014        5.367      848.559
11/01/2014  03:51:00       49.087      -65.021       -6.869       36.267       50.052       33.290     1315.304     2505.226     1108.213        0.581        0.246       81.469       24.433        0.090      335.119        5.541      848.547
11/01/2014  03:52:00       71.643     -104.164      -18.477       29.209       36.188       18.529      853.169     1309.561      343.337        0.941        0.125      126.424        7.040        0.003      335.083        5.482      848.536
11/01/2014  03:53:00       51.978      -53.351       -3.131       32.153       38.531       25.000     1033.821     1484.650      625.021        0.435        0.157       74.485       21.872        0.086      335.016        5.370      848.512
11/01/2014  03:54:00       30.516      -51.228        0.579       43.632       37.940       37.139     1903.757     1439.474     1379.294        0.414        0.236       59.629       32.242        0.292      334.948        5.258      848.467
11/01/2014  03:55:00       60.571      -53.235        6.754       37.213       50.671       26.017     1384.832     2567.506      676.895        0.559        0.231       80.640       24.342        0.091      334.945        5.253      848.441
11/01/2014  03:56:00       55.905      -39.790       20.628       58.490       72.948       45.782     3421.125     5321.483     2095.984        0.798        0.542       68.620       53.956        0.618      334.954        5.268      848.422
11/01/2014  03:57:00        2.124       53.065       72.814       21.557       41.363       28.677      464.715     1710.933      822.369        0.556        0.150       53.108       29.365        0.306      334.898        5.174      848.425
11/01/2014  03:58:00       66.196      -99.976       -9.196       45.189       30.814       22.705     2042.005      949.495      515.512        0.898        0.175      119.904       25.510        0.045      334.903        5.182      848.421
11/01/2014  03:59:00       69.100      -41.144        7.395       40.478       68.816       34.716     1638.471     4735.585     1205.183        0.705        0.379       80.421       46.815        0.339      334.923        5.216      848.420
11/01/2014  04:00:00       29.570       20.315       55.520       46.412       68.096       36.448     2154.101     4637.049     1328.483        0.624        0.406       35.876       48.406        1.821      334.878        5.140      848.414
11/01/2014  04:01:00       63.747      -97.152       -2.706       24.149       30.124       21.498      583.177      907.467      462.185        0.773        0.098      116.199       20.569        0.031      334.859        5.110      848.418
11/01/2014  04:02:00       43.051      -46.200        7.075       39.202       27.440       30.740     1536.816      752.948      944.975        0.364        0.162       63.149       27.406        0.188      335.043        5.417      848.442
11/01/2014  04:03:00       61.328      -81.664       -3.672       43.114       66.496       26.586     1858.806     4421.772      706.807        0.871        0.349      102.128       35.279        0.119      334.938        5.242      848.453
11/01/2014  04:04:00       64.734      -41.686       -1.598       44.518       52.487       28.136     1981.841     2754.933      791.625        0.573        0.276       76.995       28.559        0.138      334.989        5.325      848.446
11/01/2014  04:05:00       77.024      -91.732       -3.632       42.897       44.530       35.209     1840.188     1982.958     1239.646        0.971        0.253      119.781       35.358        0.087      334.991        5.330      848.445
11/01/2014  04:06:00       80.548      -90.432      -18.715       28.388       27.756       20.275      805.895      770.381      411.076        0.850        0.099      121.102        7.748        0.004      334.998        5.341      848.463
11/01/2014  04:07:00       -1.263       30.319       46.305       23.247       35.877       21.406      540.414     1287.183      458.226        0.267        0.114       30.345       23.413        0.595      334.981        5.314      848.467
11/01/2014  04:08:00       28.720      -38.530       -0.323       40.737       49.329       34.669     1659.473     2433.336     1201.924        0.380        0.265       48.057       33.130        0.475      335.008        5.359      848.479
11/01/2014  04:09:00       25.346      -33.911       26.481       29.233       36.020       32.629      854.585     1297.429     1064.632        0.285        0.161       42.336       23.353        0.304      335.053        5.431      848.504
11/01/2014  04:10:00       21.477        6.252       30.366       24.704       29.432       28.720      610.298      866.269      824.813        0.186        0.115       22.368       18.788        0.706      335.121        5.546      848.516
11/01/2014  04:11:00        4.322       22.172       54.101       23.261       34.841       15.813      541.065     1213.897      250.041        0.272        0.100       22.589       16.260        0.518      335.143        5.582      848.517
11/01/2014  04:12:00       -7.268      -68.046        0.808       21.903       39.827       26.371      479.729     1586.206      695.411        0.372        0.138       68.433       26.827        0.154      335.153        5.599      848.521
11/01/2014  04:13:00       27.589      -66.893       -9.355       37.439       31.951       24.633     1401.682     1020.868      606.769        0.418        0.151       72.359       19.431        0.072      335.076        5.471      848.557
11/01/2014  04:14:00       -2.576      -29.382       16.132       36.626       31.035       28.021     1341.429      963.178      785.194        0.211        0.154       29.494       12.167        0.170      335.140        5.575      848.580
11/01/2014  04:15:00      -40.567      -32.981        4.614       40.800       25.811       21.747     1664.611      666.229      472.944        0.278        0.140       52.282       25.778        0.243      335.148        5.590      848.595
11/01/2014  04:16:00      -60.648      -25.892       -2.443       38.362       23.864       16.805     1471.665      569.488      282.392        0.334        0.116       65.944       21.965        0.111      335.130        5.560      848.595
11/01/2014  04:17:00     -105.995      -41.807        0.699       48.403       31.069       27.081     2342.887      965.303      733.375        0.851        0.202      113.942       21.477        0.036      335.173        5.632      848.611
11/01/2014  04:18:00      -78.514      -33.784       -4.194       43.534       42.081       22.901     1895.184     1770.793      524.474        0.576        0.210       85.474       18.184        0.045      335.061        5.446      848.642
11/01/2014  04:19:00        5.499       -0.555       11.267       23.883       29.823       27.062      570.408      889.397      732.362        0.117        0.110        5.527       22.908       17.177      335.150        5.592      848.655
11/01/2014  04:20:00      -42.043        6.327        2.682       35.270       26.630       14.867     1243.974      709.134      221.032        0.199        0.109       42.516       11.817        0.077      335.106        5.523      848.665
11/01/2014  04:21:00      -18.167       13.367       14.358       26.928        9.191       12.582      725.121       84.473      158.316        0.084        0.048       22.555       11.140        0.244      335.065        5.452      848.679
11/01/2014  04:22:00       -1.321       16.289       16.902       14.353       27.327       16.644      206.017      746.745      277.012        0.089        0.061       16.342       14.401        0.777      335.063        5.451      848.694
11/01/2014  04:23:00      -10.148        8.648       -0.222       15.661       25.387       11.729      245.261      644.524      137.581        0.060        0.051       13.333       14.051        1.110      335.102        5.514      848.708
11/01/2014  04:24:00      -53.560       16.928       -3.228       21.494       18.655       15.772      462.006      348.014      248.750        0.211        0.053       56.172        8.223        0.021      335.044        5.417      848.722
11/01/2014  04:25:00      -24.727       34.214       40.925       24.625       18.562       22.863      606.367      344.558      522.707        0.246        0.074       42.214       20.361        0.233      335.083        5.482      848.726
11/01/2014  04:26:00      -15.696       20.824       48.719       12.442       23.359       16.504      154.797      545.656      272.381        0.201        0.049       26.077       17.161        0.433      335.134        5.566      848.724
11/01/2014  04:27:00        4.544       13.890       46.505       25.808       24.596       20.694      666.048      604.961      428.244        0.204        0.085       14.614       16.509        1.276      335.167        5.621      848.712
11/01/2014  04:28:00       24.752       52.795       61.910       32.719       27.930       17.642     1070.546      780.070      311.256        0.470        0.108       58.309       13.043        0.050      335.097        5.506      848.704
11/01/2014  04:29:00       16.427       40.201       66.095       30.731       32.116       17.788      944.385     1031.467      316.415        0.427        0.115       43.428       12.125        0.078      335.059        5.443      848.710
11/01/2014  04:30:00       33.336       60.771       67.457       34.683       30.904       17.749     1202.897      955.065      315.023        0.591        0.124       69.314       12.096        0.030      334.908        5.192      848.730
11/01/2014  04:31:00      139.489       65.692       29.956       50.392       36.232       36.108     2539.335     1312.774     1303.805        1.491        0.258      154.184       23.486        0.023      334.888        5.157      848.722
11/01/2014  04:32:00       53.943       11.243       41.335       59.857       36.661       35.126     3582.915     1344.049     1233.856        0.545        0.308       55.102       31.972        0.337      334.915        5.202      848.743
11/01/2014  04:33:00       83.393       52.219       29.544       25.974       23.433       21.955      674.653      549.095      482.021        0.613        0.085       98.394       16.468        0.028      334.885        5.152      848.785
11/01/2014  04:34:00       48.733       -2.142       24.728       29.937       33.548       24.206      896.237     1125.491      585.928        0.280        0.130       48.780       18.054        0.137      334.973        5.298      848.807
11/01/2014  04:35:00       17.983       29.852       51.078       29.731       32.564       24.860      883.926     1060.402      618.035        0.319        0.128       34.850       17.793        0.261      335.017        5.372      848.802
11/01/2014  04:36:00        1.164       26.113       69.340       33.750       58.162       36.754     1139.035     3382.871     1350.845        0.568        0.294       26.139       33.285        1.622      335.051        5.430      848.759
11/01/2014  04:37:00      -12.366       -3.309       39.515       36.661       64.498       34.875     1344.066     4159.935     1216.236        0.422        0.336       12.801       22.785        3.168      335.051        5.429      848.753
11/01/2014  04:38:00       66.021      -77.680       16.041       54.779       87.085       41.307     3000.722     7583.723     1706.279        1.147        0.615      101.946       54.200        0.283      334.998        5.339      848.796
11/01/2014  04:39:00       80.556      -96.481       -4.654       26.514       47.351       24.980      702.971     2242.145      623.993        0.969        0.178      125.690       16.371        0.017      334.932        5.231      848.839
11/01/2014  04:40:00       45.382        0.643       38.604       34.227       30.365       32.763     1171.497      922.031     1073.404        0.336        0.158       45.387       24.256        0.286      334.951        5.263      848.841
11/01/2014  04:41:00       30.471       -7.025       33.819       40.964       41.717       26.084     1678.028     1740.292      680.352        0.311        0.205       31.270       32.143        1.057      334.920        5.212      848.816
11/01/2014  04:42:00       63.051     -105.141      -13.089       30.907       38.070       21.835      955.251     1449.330      476.777        0.904        0.144      122.597       14.048        0.013      334.954        5.268      848.815
11/01/2014  04:43:00       66.651      -71.598      -17.018       35.772       49.192       28.349     1279.629     2419.899      803.692        0.718        0.225       97.819       25.834        0.070      334.915        5.204      848.833
11/01/2014  04:44:00        7.702      -19.396       31.325       24.676       31.019       22.593      608.925      962.154      510.451        0.175        0.104       20.869        9.472        0.206      334.973        5.298      848.837
11/01/2014  04:45:00       43.063      -47.920       -4.319       38.763       50.421       40.313     1502.567     2542.232     1625.152        0.492        0.283       64.427       32.762        0.259      334.988        5.325      848.829
11/01/2014  04:46:00       74.736     -107.039      -24.269       47.256       54.194       38.204     2233.113     2936.994     1459.544        1.213        0.331      130.548       26.424        0.041      335.003        5.350      848.823
11/01/2014  04:47:00       59.728     -123.585      -23.088       44.949       36.783       30.299     2020.373     1352.975      918.036        1.183        0.215      137.261       16.943        0.015      335.085        5.486      848.846
11/01/2014  04:48:00        4.788     -100.971      -22.110       39.817       36.543       21.669     1585.385     1335.395      469.524        0.705        0.170      101.085       19.867        0.039      335.114        5.534      848.866
11/01/2014  04:49:00       -2.571      -32.598       -0.960       19.580       32.721       22.268      383.378     1070.644      495.856        0.151        0.097       32.699       15.842        0.235      335.070        5.461      848.865
11/01/2014  04:50:00       21.010       25.124       61.527       57.445       87.379       55.722     3299.922     7635.110     3104.943        0.945        0.702       32.751       64.755        3.909      335.027        5.390      848.836
11/01/2014  04:51:00       37.198       28.461       54.344       34.658       68.141       40.293     1201.162     4643.139     1623.530        0.631        0.373       46.837       46.890        1.002      334.909        5.192      848.832
11/01/2014  04:52:00       40.868     -104.027       -8.496       45.194       47.543       39.663     2042.491     2260.334     1573.127        0.922        0.294      111.767       28.608        0.066      334.995        5.337      848.845
11/01/2014  04:53:00       15.621      -44.012        6.313       47.790       50.385       38.267     2283.906     2538.642     1464.354        0.425        0.314       46.702       38.043        0.664      335.091        5.494      848.845
11/01/2014  04:54:00       27.976      -49.684        6.378       33.497       37.405       40.337     1122.078     1399.136     1627.102        0.372        0.207       57.019       18.823        0.109      335.110        5.527      848.859
11/01/2014  04:55:00       56.287      -70.762       -0.748       53.439       44.395       27.085     2855.776     1970.948      733.620        0.687        0.278       90.418       30.158        0.111      335.120        5.544      848.825
11/01/2014  04:56:00       64.782      -69.680       -3.905       62.398       53.526       30.453     3893.506     2864.986      927.402        0.838        0.384       95.142       19.283        0.041      335.073        5.464      848.830
11/01/2014  04:57:00      -42.329      -58.374       18.825       51.642       47.164       29.022     2666.903     2224.425      842.279        0.564        0.287       72.106       24.957        0.120      335.110        5.527      848.840
11/01/2014  04:58:00        4.418       -1.217       46.773       34.595       30.088       19.583     1196.801      905.315      383.478        0.235        0.124        4.582       12.687        7.666      335.083        5.482      848.815
11/01/2014  04:59:00       34.138      -41.691       44.133       49.069       89.897       51.617     2407.810     8081.452     2664.264        0.900        0.658       53.884       61.052        1.284      334.955        5.270      848.799
11/01/2014  05:00:00       71.322      -67.490       11.743       70.576       91.334       64.706     4981.004     8341.849     4186.836        1.364        0.875       98.192       77.159        0.617      334.904        5.183      848.799
11/01/2014  05:01:00      128.690     -103.450      -25.911       64.910       82.066       58.032     4213.335     6734.829     3367.748        2.112        0.716      165.115       57.700        0.122      334.856        5.104      848.798
11/01/2014  05:02:00      121.250     -129.865      -35.464       56.748       48.825       35.497     3220.316     2383.902     1260.005        1.984        0.343      177.669       31.308        0.031      334.892        5.163      848.832
11/01/2014  05:03:00       44.630      -45.257        9.115       41.649       49.490       37.332     1734.620     2449.235     1393.653        0.485        0.279       63.561       32.660        0.264      334.917        5.205      848.886
11/01/2014  05:04:00       -3.589      -11.377        2.467       30.138       28.246       38.627      908.312      797.864     1492.019        0.167        0.160       11.929       23.993        4.045      334.965        5.285      848.902
11/01/2014  05:05:00        7.140       -8.984       45.137       30.545       68.003       32.558      932.994     4624.443     1060.026        0.439        0.331       11.475       37.736       10.814      334.953        5.265      848.879
11/01/2014  05:06:00       31.453     -122.721       -1.314       30.351       38.865       27.846      921.211     1510.520      775.382        0.963        0.160      126.687       19.998        0.025      335.069        5.457      848.913
11/01/2014  05:07:00      -17.622      -39.277       -3.148       26.366       27.581       24.120      695.153      760.689      581.769        0.195        0.102       43.049       13.308        0.096      335.178        5.637      848.971
11/01/2014  05:08:00       21.079       26.225       43.757       25.160       22.900       16.183      633.044      524.387      261.887        0.223        0.071       33.646       11.629        0.119      335.027        5.389      848.965
11/01/2014  05:09:00       18.452       16.849       39.349       31.758       27.934       22.185     1008.555      780.312      492.158        0.223        0.114       24.987       19.129        0.586      334.990        5.327      848.965
11/01/2014  05:10:00        4.903       26.900       39.929       29.971       28.172       25.459      898.272      793.685      648.143        0.234        0.117       27.343       23.486        0.738      334.974        5.300      848.990
11/01/2014  05:11:00        5.649       -0.118       15.628       27.295       29.633       18.808      745.022      878.090      353.752        0.113        0.099        5.651       17.184        9.249      335.050        5.428      849.001
11/01/2014  05:12:00       -2.801        3.659       13.368       15.194       18.582       11.968      230.849      345.287      143.239        0.046        0.036        4.608        7.784        2.854      335.019        5.375      849.021
11/01/2014  05:13:00      -55.333       -3.278        2.525       40.251       42.194       19.357     1620.105     1780.362      374.678        0.343        0.189       55.430       14.371        0.067      335.073        5.466      849.060
11/01/2014  05:14:00      -90.669      -34.615        4.222       38.667       32.161       21.974     1495.158     1034.330      482.839        0.622        0.151       97.052       12.290        0.016      335.022        5.382      849.087
11/01/2014  05:15:00      -24.522      -22.992        4.451       16.402       14.418       17.450      269.027      207.880      304.506        0.097        0.039       33.615        7.654        0.052      334.984        5.319      849.075
11/01/2014  05:16:00       -0.912       33.345       -1.204       32.306       20.261       20.667     1043.651      410.512      427.120        0.150        0.094       33.358       20.992        0.396      334.934        5.234      849.083
11/01/2014  05:17:00       36.432       30.776        7.485       25.732       31.649       20.927      662.113     1001.678      437.953        0.222        0.105       47.691       17.977        0.142      335.015        5.368      849.097
11/01/2014  05:18:00       17.963       16.713        2.301       23.001       17.517       15.412      529.043      306.850      237.533        0.084        0.054       24.535        7.602        0.096      334.940        5.244      849.125
11/01/2014  05:19:00       14.769       17.478        2.063       15.550       10.935       14.230      241.791      119.581      202.481        0.055        0.028       22.882        8.203        0.129      334.919        5.209      849.137
11/01/2014  05:20:00      -30.575       10.930       -8.605       33.066       13.969        9.036     1093.343      195.128       81.647        0.125        0.069       32.470        7.199        0.049      334.867        5.123      849.149
11/01/2014  05:21:00     -123.211      -47.190       -5.245       44.535       33.168       20.531     1983.381     1100.085      421.528        1.047        0.175      131.939       18.564        0.020      334.944        5.251      849.207
11/01/2014  05:22:00      -24.487      -91.473       11.387       48.359       34.531       21.332     2338.640     1192.371      455.045        0.654        0.199       94.694       25.687        0.074      334.996        5.338      849.234
11/01/2014  05:23:00       30.590       35.461       98.991       40.760       60.891       42.432     1661.372     3707.768     1800.514        0.958        0.358       46.832       28.887        0.380      335.032        5.398      849.161
11/01/2014  05:24:00       59.943     -122.184       -7.354       45.163       40.775       39.171     2039.684     1662.595     1534.345        1.191        0.262      136.096       27.177        0.040      335.181        5.645      849.175
11/01/2014  05:25:00       -8.259       34.053        0.776       73.929       58.884       39.810     5465.497     3467.363     1584.858        0.587        0.526       35.040       34.352        0.961      335.333        5.896      849.169
11/01/2014  05:26:00        4.836       -5.172       25.693       42.140       40.972       29.582     1775.803     1678.686      875.088        0.252        0.216        7.080       28.161       15.820      335.251        5.759      849.204
11/01/2014  05:27:00       56.477       73.449       69.911       36.384       29.473       24.410     1323.810      868.676      595.827        0.813        0.139       92.652       17.943        0.038      335.020        5.377      849.182
11/01/2014  05:28:00       45.855       55.911       -3.410       54.473       31.196       20.553     2967.317      973.190      422.437        0.480        0.218       72.310       20.120        0.077      335.013        5.365      849.145
11/01/2014  05:29:00        8.145      101.189      -15.821       27.945       29.425       23.352      780.934      865.802      545.316        0.637        0.110      101.516       18.635        0.034      334.964        5.284      849.162
11/01/2014  05:30:00        4.850      103.563      -13.010       22.791       22.822       16.355      519.417      520.862      267.491        0.611        0.065      103.676       11.689        0.013      334.972        5.299      849.161
11/01/2014  05:31:00       -8.447       73.883       -9.581       28.603       24.176       10.202      818.117      584.492      104.084        0.356        0.075       74.365        7.566        0.010      334.977        5.304      849.173
11/01/2014  05:32:00      -74.032       15.149       -7.865       31.933       43.929       16.383     1019.721     1929.740      268.399        0.449        0.161       75.566       15.756        0.043      335.172        5.629      849.186
11/01/2014  05:33:00      -20.360      -25.683        8.897       32.665       28.986       16.648     1067.011      840.168      277.142        0.167        0.109       32.774       13.903        0.180      335.319        5.875      849.203
11/01/2014  05:34:00      -53.409      -23.564        8.740       51.371       40.595       26.149     2638.953     1647.991      683.749        0.423        0.249       58.376       30.329        0.270      335.268        5.787      849.220
11/01/2014  05:35:00      -44.158      -26.333       -4.942       49.086       33.372       20.157     2409.475     1113.690      406.286        0.330        0.196       51.414       27.009        0.276      335.211        5.695      849.212
11/01/2014  05:36:00     -104.535      -13.379      -11.694       49.109       63.399       22.874     2411.671     4019.437      523.215        0.910        0.348      105.388       26.153        0.062      335.160        5.609      849.218
11/01/2014  05:37:00      -73.324      -32.411       10.989       64.931       46.165       27.451     4215.975     2131.175      753.545        0.682        0.355       80.168       31.459        0.154      335.179        5.641      849.210
11/01/2014  05:38:00      -90.250      -44.103        3.309       75.109       36.277       27.153     5641.324     1316.016      737.265        0.890        0.385      100.450       35.542        0.125      335.117        5.538      849.213
11/01/2014  05:39:00     -156.922      -43.405       -7.279       42.571       40.062       22.021     1812.325     1604.963      484.903        1.523        0.195      162.815       21.191        0.017      335.065        5.452      849.223
11/01/2014  05:40:00      -77.248      -28.619       -3.556       45.263       27.604       16.529     2048.707      761.979      273.193        0.494        0.154       82.379       19.724        0.057      335.094        5.501      849.212
11/01/2014  05:41:00      -76.746      -40.167        6.856       40.455       33.230       22.482     1636.645     1104.232      505.447        0.540        0.162       86.622       20.286        0.055      335.142        5.580      849.195
11/01/2014  05:42:00      -54.536      -61.055        4.849       44.915       31.106       27.334     2017.319      967.595      747.171        0.523        0.187       81.865       27.357        0.112      335.154        5.600      849.207
11/01/2014  05:43:00     -107.848      -77.673       -3.608       62.664       40.807       31.790     3926.810     1665.216     1010.586        1.214        0.330      132.907       21.287        0.026      335.125        5.551      849.212
11/01/2014  05:44:00     -106.525      -29.609        2.959       70.431       54.033       29.419     4960.519     2919.546      865.499        1.049        0.437      110.564       33.278        0.091      335.138        5.572      849.205
11/01/2014  05:45:00     -213.508     -114.392        2.421      103.177       70.061       42.283    10645.532     4908.580     1787.879        3.801        0.867      242.221       38.508        0.025      335.143        5.580      849.210
11/01/2014  05:46:00     -241.581     -107.480      -12.139      146.126       85.636       59.211    21352.756     7333.574     3505.983        5.112        1.610      264.411       73.648        0.078      335.238        5.735      849.197
11/01/2014  05:47:00     -461.223       -6.329      -44.947      166.974      109.316       61.517    27880.382    11949.962     3784.327       12.919        2.181      461.266       69.356        0.023      335.294        5.828      849.187
11/01/2014  05:48:00     -185.952     -103.645       11.108      118.583      142.968       80.520    14061.959    20439.731     6483.404        4.321        2.049      212.886       81.286        0.146      335.385        5.981      849.208
11/01/2014  05:49:00     -208.924      -46.303       11.406      144.340      106.667       64.511    20833.994    11377.883     4161.665        4.114        1.819      213.994       69.115        0.104      335.359        5.937      849.217
11/01/2014  05:50:00     -220.829      -18.004      -18.535      153.892       85.981       47.306    23682.854     7392.752     2237.903        4.137        1.666      221.562       59.044        0.071      335.339        5.904      849.255
11/01/2014  05:51:00     -164.584      -46.294        4.555       95.154       82.749       49.376     9054.274     6847.450     2438.008        2.379        0.917      170.970       45.157        0.070      335.341        5.909      849.280
11/01/2014  05:52:00     -349.635     -122.455      -17.646      115.425      103.501       64.120    13322.975    10712.427     4111.379        8.284        1.407      370.459       52.470        0.020      335.325        5.879      849.309
11/01/2014  05:53:00     -166.671      -10.855       11.450       93.440       78.805       53.811     8731.030     6210.261     2895.585        2.293        0.892      167.025       55.818        0.112      335.291        5.823      849.341
11/01/2014  05:54:00     -183.058      -83.865       -3.419       94.752       77.114       47.445     8977.879     5946.522     2251.001        2.886        0.859      201.354       40.112        0.040      335.285        5.813      849.376
11/01/2014  05:55:00     -125.177      -47.787        6.026       77.000       73.600       41.634     5928.971     5417.004     1733.426        1.553        0.654      133.988       34.280        0.065      335.336        5.900      849.387
11/01/2014  05:56:00     -246.962     -113.090        4.619      175.923      144.428       86.336    30948.828    20859.461     7453.985        6.652        2.963      271.624       95.632        0.124      335.331        5.891      849.377
11/01/2014  05:57:00     -446.757      -45.057      -36.970      151.281      108.348       67.976    22885.827    11739.286     4620.762       12.111        1.962      449.023       65.870        0.022      335.278        5.802      849.401
11/01/2014  05:58:00     -311.550       -9.064        0.709      129.978      108.535       74.639    16894.334    11779.915     5570.954        6.569        1.712      311.682       72.345        0.054      335.247        5.751      849.409
11/01/2014  05:59:00     -390.028     -108.812      -20.096      148.758      141.280       69.315    22129.036    19959.940     4804.611       10.562        2.345      404.922       67.891        0.028      335.289        5.820      849.393
11/01/2014  06:00:00     -222.963     -115.619       12.140      134.791      118.846       66.936    18168.495    14124.363     4480.457        4.999        1.839      251.158       68.458        0.074      335.288        5.820      849.411
11/01/2014  06:01:00     -154.959      -60.490        2.664       91.602       66.508       52.205     8390.991     4423.360     2725.379        2.161        0.777      166.347       51.927        0.097      335.306        5.850      849.422
11/01/2014  06:02:00     -351.822       -3.881      -25.703      111.511       86.476       63.329    12434.727     7478.084     4010.602        7.418        1.196      351.843       56.261        0.026      335.242        5.741      849.440
11/01/2014  06:03:00     -321.824     -103.878      -10.705      145.314      107.413       50.665    21116.291    11537.608     2566.959        7.484        1.761      338.173       53.880        0.025      335.260        5.771      849.453
11/01/2014  06:04:00     -206.329      -40.542       -2.795      130.013      103.148       57.267    16903.323    10639.438     3279.455        3.752        1.541      210.274       63.367        0.091      335.242        5.744      849.460
11/01/2014  06:05:00     -250.292      -79.405      -11.508      120.655      113.701       56.729    14557.583    12927.826     3218.220        4.989        1.535      262.585       49.642        0.036      335.205        5.681      849.465
11/01/2014  06:06:00     -298.887      -49.280       -3.642      138.407      127.295       67.796    19156.555    16203.898     4596.336        6.586        1.998      302.922       62.441        0.042      335.203        5.676      849.502
11/01/2014  06:07:00     -326.928     -205.293       -8.326      161.777      153.181       88.676    26171.734    23464.305     7863.405       10.329        2.875      386.040       70.652        0.033      335.264        5.777      849.484
11/01/2014  06:08:00     -327.084      -65.574      -13.070      145.745      107.447       59.308    21241.706    11544.780     3517.479        7.387        1.815      333.593       71.496        0.046      335.221        5.707      849.511
11/01/2014  06:09:00     -202.347     -104.153       10.580      128.223      110.613       65.405    16441.221    12235.150     4277.776        4.242        1.648      227.579       65.364        0.082      335.218        5.702      849.523
11/01/2014  06:10:00     -257.639       -8.057       -6.649      136.825      121.342       67.992    18721.039    14723.882     4622.961        5.227        1.903      257.765       58.309        0.051      335.199        5.672      849.511
11/01/2014  06:11:00     -261.139      -62.018       -2.116      144.853      114.230       65.944    20982.354    13048.416     4348.638        5.520        1.919      268.403       74.231        0.076      335.184        5.647      849.511
11/01/2014  06:12:00     -328.697     -100.767      -12.359      192.063      120.749       77.617    36888.051    14580.252     6024.327        8.791        2.875      343.796       78.780        0.053      335.171        5.625      849.527
11/01/2014  06:13:00     -413.630      -11.493      -27.036      136.968      124.091       62.033    18760.128    15398.511     3848.100       10.497        1.900      413.789       57.585        0.019      335.107        5.519      849.559
11/01/2014  06:14:00     -303.540      -46.582       -8.516      249.552      115.143       74.462    62276.424    13257.969     5544.579        8.771        4.054      307.093      111.100        0.131      335.157        5.604      849.554
11/01/2014  06:15:00     -373.673      -75.969      -24.617      138.141      153.698       69.579    19083.053    23623.124     4841.221        9.677        2.377      381.318       73.317        0.037      335.089        5.490      849.544
11/01/2014  06:16:00     -208.624      -42.324       -3.585      103.688       74.391       45.213    10751.283     5534.010     2044.174        3.183        0.916      212.874       44.998        0.045      335.113        5.530      849.549
11/01/2014  06:17:00     -321.437     -109.700       -7.303      169.822      134.999       81.292    28839.558    18224.767     6608.465        8.453        2.684      339.641       84.937        0.063      335.140        5.574      849.531
11/01/2014  06:18:00     -267.565      -81.374      -16.619      190.573      101.745       62.213    36317.887    10352.066     3870.487        6.450        2.527      279.666       77.360        0.077      335.134        5.563      849.546
11/01/2014  06:19:00     -169.906      -75.569        6.362      139.171       92.540       69.544    19368.668     8563.571     4836.399        3.369        1.638      185.954       79.875        0.185      335.115        5.534      849.553
11/01/2014  06:20:00     -332.524       20.363      -12.312      117.926      103.378       63.326    13906.554    10687.063     4010.132        6.987        1.430      333.147       59.526        0.032      335.081        5.475      849.555
11/01/2014  06:21:00     -259.754      -72.010       13.610      177.207      119.375       73.451    31402.449    14250.338     5395.063        6.194        2.552      269.550       84.962        0.099      335.127        5.554      849.531
11/01/2014  06:22:00     -293.557     -153.006       -5.459      160.938      132.950       82.142    25900.992    17675.642     6747.346        7.996        2.516      331.039       87.732        0.070      335.106        5.519      849.528
11/01/2014  06:23:00     -214.697      -87.954      -10.835      158.945       99.117       49.928    25263.501     9824.130     2492.824        4.576        1.879      232.014       70.645        0.093      335.127        5.553      849.544
11/01/2014  06:24:00     -258.463      -66.165       -8.129      134.488       94.485       74.060    18086.950     8927.410     5484.839        5.187        1.625      266.798       60.702        0.052      335.129        5.556      849.536
11/01/2014  06:25:00     -225.410      -19.470        2.124      203.307      117.911       67.218    41333.911    13903.070     4518.217        5.546        2.988      226.249       88.051        0.151      335.142        5.579      849.530
11/01/2014  06:26:00     -269.659      -48.082        5.520      165.862      101.774       58.450    27510.062    10357.933     3416.453        5.816        2.064      273.912       70.218        0.066      335.101        5.511      849.527
11/01/2014  06:27:00     -396.574      -84.974      -24.776      185.131      123.643       70.073    34273.468    15287.604     4910.196       10.978        2.724      405.576       76.584        0.036      335.101        5.510      849.527
11/01/2014  06:28:00     -215.380      -53.341        2.042      145.653      115.548       57.980    21214.702    13351.351     3361.643        4.358        1.896      221.887       52.313        0.056      335.100        5.508      849.534
11/01/2014  06:29:00     -412.866     -196.170      -21.112      233.699      143.239       84.653    54615.386    20517.390     7166.072       14.583        4.115      457.100      104.444        0.052      335.112        5.529      849.516
11/01/2014  06:30:00     -466.536     -178.378       -4.831      225.368      174.808       89.010    50790.688    30557.764     7922.754       16.937        4.464      499.474      100.054        0.040      335.135        5.567      849.531
11/01/2014  06:31:00     -278.806     -168.588        1.823      195.566      217.555       94.793    38245.977    47330.223     8985.752       10.034        4.728      325.813      114.003        0.122      335.141        5.577      849.558
11/01/2014  06:32:00     -311.728     -263.274        0.785      196.932      162.886      103.283    38782.251    26531.995    10667.452       12.122        3.799      408.029      106.042        0.068      335.173        5.630      849.554
11/01/2014  06:33:00     -408.551     -252.100       -8.565      205.167      191.384      108.349    42093.431    36627.719    11739.436       16.048        4.523      480.071      103.730        0.047      335.168        5.621      849.568
11/01/2014  06:34:00     -235.322     -185.528       -5.847      186.768      113.301       80.569    34882.233    12837.193     6491.435        7.201        2.711      299.662       90.060        0.090      335.185        5.649      849.603
11/01/2014  06:35:00     -218.736     -167.240       -3.446      176.040      150.791       91.705    30990.014    22737.813     8409.733        6.897        3.107      275.345       88.860        0.104      335.215        5.697      849.610
11/01/2014  06:36:00     -358.226     -188.207       -3.638      219.199      190.566      104.725    48048.203    36315.289    10967.391       12.953        4.767      404.657      114.939        0.081      335.232        5.726      849.579
11/01/2014  06:37:00     -400.282      -78.498      -20.739      220.132      152.116       86.153    48458.203    23139.343     7422.333       12.290        3.951      407.906      107.071        0.069      335.147        5.586      849.648
11/01/2014  06:38:00     -496.206      -77.435      -22.046      227.878      178.513       93.057    51928.600    31866.948     8659.674       17.256        4.623      502.212      108.030        0.046      335.174        5.630      849.659
11/01/2014  06:39:00     -440.984     -111.245      -27.760      222.492      179.348       95.318    49502.572    32165.531     9085.432       14.917        4.538      454.799      105.939        0.054      335.165        5.616      849.685
11/01/2014  06:40:00     -304.373     -103.973       -6.449      161.472      141.650       77.560    26073.141    20064.668     6015.590        7.781        2.608      321.642       74.693        0.054      335.148        5.589      849.703
11/01/2014  06:41:00     -444.606     -303.471       13.240      254.532      230.100      107.009    64786.626    52946.228    11450.825       20.954        6.459      538.302      123.238        0.052      335.211        5.692      849.716
11/01/2014  06:42:00     -370.681     -194.831      -14.068      195.240      153.741       88.408    38118.637    23636.275     7815.936       12.255        3.479      418.765       92.175        0.048      335.199        5.670      849.784
11/01/2014  06:43:00     -280.078     -151.172        3.529      182.812      165.867       71.185    33420.322    27511.850     5067.242        8.364        3.300      318.271       82.132        0.067      335.168        5.621      849.827
11/01/2014  06:44:00     -330.025     -203.266      -11.669      168.603      155.178       87.242    28427.014    24080.230     7611.211       10.523        3.006      387.600       81.500        0.044      335.176        5.633      849.847
11/01/2014  06:45:00     -262.202     -159.234        0.286      156.054      117.892       76.733    24352.911    13898.473     5888.024        6.911        2.207      306.766       72.253        0.055      335.170        5.624      849.874
11/01/2014  06:46:00     -328.577     -178.494       -6.359      148.628      130.024       71.536    22090.328    16906.216     5117.451        9.198        2.206      373.929       76.018        0.041      335.126        5.551      849.866
11/01/2014  06:47:00     -413.696     -192.243        5.321      209.672      150.426       83.224    43962.259    22628.069     6926.284       14.081        3.676      456.181       83.867        0.034      335.124        5.549      849.853
11/01/2014  06:48:00     -386.176     -203.789       -0.703      199.206      129.754       75.704    39683.002    16836.116     5731.152       12.644        3.113      436.648       89.930        0.042      335.145        5.584      849.873
11/01/2014  06:49:00     -441.655     -245.910       -8.269      239.655      216.161       95.323    57434.634    46725.708     9086.526       18.440        5.662      505.501      112.260        0.049      335.163        5.611      849.869
11/01/2014  06:50:00     -454.017     -250.183       -4.590      183.316      199.495       78.012    33604.706    39798.247     6085.898       17.410        3.974      518.385       80.824        0.024      335.163        5.611      849.879
11/01/2014  06:51:00     -497.400     -257.901      -20.788      228.735      192.481       88.475    52319.831    37048.922     7827.756       20.575        4.860      560.285      108.738        0.038      335.133        5.562      849.903
11/01/2014  06:52:00     -407.268     -249.559      -21.693      229.548      144.398       91.095    52692.119    20850.750     8298.344       15.521        4.092      477.647      100.567        0.044      335.124        5.549      849.925
11/01/2014  06:53:00     -392.249     -201.116      -16.585      148.397      143.977       75.581    22021.805    20729.511     5712.432       12.151        2.423      440.802       73.670        0.028      335.104        5.516      849.951
11/01/2014  06:54:00     -287.887      -77.895        5.633      179.494      109.737       86.358    32218.072    12042.198     7457.758        7.034        2.586      298.239       90.606        0.092      335.110        5.525      849.984
11/01/2014  06:55:00     -458.232     -195.904      -23.729      241.945      185.896       83.430    58537.477    34557.410     6960.547       17.447        5.003      498.352       91.785        0.034      335.129        5.556      850.005
11/01/2014  06:56:00     -306.051     -156.480      -10.251      199.910      178.422       80.673    39964.193    31834.238     6508.132        9.827        3.915      343.735       94.504        0.076      335.119        5.540      850.039
11/01/2014  06:57:00     -252.714     -235.317       -5.258      190.051      181.404       90.494    36119.330    32907.531     8189.126        9.823        3.861      345.309       98.803        0.082      335.129        5.559      850.052
11/01/2014  06:58:00     -257.349     -196.973        3.942      224.875      175.364       89.503    50568.939    30752.478     8010.795        9.717        4.467      324.078      100.598        0.096      335.122        5.545      850.064
11/01/2014  06:59:00     -306.875     -103.136       -8.287      177.116      119.783       66.940    31369.943    14348.001     4480.969        7.753        2.510      323.743       71.308        0.049      335.110        5.524      850.095
11/01/2014  07:00:00     -291.768      -82.944       -8.159      141.672      113.522       81.522    20070.947    12887.280     6645.903        6.583        1.980      303.329       71.751        0.056      335.109        5.523      850.106
11/01/2014  07:01:00     -297.092     -103.199      -14.940      144.254      118.902       72.083    20809.298    14137.753     5195.898        6.963        2.007      314.506       85.143        0.073      335.083        5.481      850.143
11/01/2014  07:02:00     -343.135       32.377      -22.119      142.900      116.836       73.704    20420.288    13650.700     5432.264        7.938        1.975      344.659       79.499        0.053      335.077        5.470      850.155
11/01/2014  07:03:00     -276.158      -93.845       -6.980      148.397      108.052       57.233    22021.725    11675.180     3275.570        6.104        1.849      291.667       58.051        0.040      335.095        5.501      850.181
11/01/2014  07:04:00     -325.805     -220.835      -26.046      180.988      137.448       82.042    32756.576    18891.841     6730.809       10.698        2.919      393.595       91.323        0.054      335.132        5.561      850.167
11/01/2014  07:05:00     -208.447      -11.388      -14.365      115.450      103.048       56.535    13328.780    10618.841     3196.214        3.546        1.357      208.758       44.641        0.046      335.092        5.496      850.181
11/01/2014  07:06:00     -273.950     -116.667      -26.255      145.763      109.741       66.290    21246.853    12043.112     4394.424        6.351        1.884      297.758       75.262        0.064      335.078        5.472      850.196
11/01/2014  07:07:00     -161.756      -65.203        0.561      150.148      116.737       60.357    22544.451    13627.490     3643.019        3.511        1.991      174.403       71.241        0.167      335.110        5.527      850.204
11/01/2014  07:08:00     -212.012      -93.623       22.958      207.157      120.230       69.599    42914.042    14455.335     4844.018        5.821        3.111      231.763      101.233        0.191      335.111        5.526      850.204
11/01/2014  07:09:00     -257.041      -35.357       -8.399      107.663       81.894       51.947    11591.242     6706.669     2698.507        4.419        1.050      259.461       45.476        0.031      335.070        5.459      850.234
11/01/2014  07:10:00     -276.802      -21.601       -8.362      103.954       96.635       51.842    10806.473     9338.419     2687.580        4.999        1.142      277.644       56.377        0.041      335.048        5.421      850.255
11/01/2014  07:11:00     -308.171      -68.581      -11.698      125.480      117.979       63.234    15745.344    13918.932     3998.514        6.673        1.683      315.710       55.791        0.031      335.080        5.475      850.279
11/01/2014  07:12:00     -274.034      -98.766      -10.981      115.024      111.536       64.723    13230.543    12440.186     4189.124        5.741        1.493      291.289       23.406        0.006      335.119        5.541      850.265
11/01/2014  07:13:00     -314.439      -85.260      -15.621      173.449      111.989       75.493    30084.481    12541.631     5699.211        7.735        2.416      325.793       90.401        0.077      335.128        5.555      850.267
11/01/2014  07:14:00     -225.168      -22.129      -11.502      134.057       87.337       63.858    17971.299     7627.815     4077.852        4.049        1.484      226.252       68.071        0.091      335.062        5.446      850.265
11/01/2014  07:15:00     -311.462      -97.320       -9.379      116.785      108.210       58.426    13638.803    11709.408     3413.581        6.766        1.438      326.312       59.795        0.034      335.083        5.480      850.278
11/01/2014  07:16:00     -230.244      -66.641       -3.361      116.142       92.050       56.846    13489.021     8473.278     3231.476        4.132        1.260      239.695       55.513        0.054      335.057        5.437      850.291
11/01/2014  07:17:00     -431.872       19.157      -35.189      196.897      109.412       75.693    38768.276    11970.888     5729.458       12.228        2.823      432.297       92.386        0.046      335.067        5.454      850.308
11/01/2014  07:18:00     -247.470       16.954      -19.235      103.270       85.702       45.855    10664.684     7344.793     2102.713        4.100        1.006      248.050       30.248        0.015      335.047        5.420      850.326
11/01/2014  07:19:00     -335.751      -14.653      -17.463      128.160      148.064       60.293    16424.979    21922.808     3635.286        7.761        2.099      336.070       47.639        0.020      335.062        5.445      850.325
11/01/2014  07:20:00     -198.611     -127.137        7.527      179.731      170.680       77.759    32303.292    29131.690     6046.430        6.156        3.374      235.818       86.846        0.136      335.075        5.467      850.322
11/01/2014  07:21:00     -244.040      -98.707        1.591      188.688      137.393       67.966    35603.011    18876.757     4619.336        6.419        2.955      263.246       83.896        0.102      335.130        5.557      850.317
11/01/2014  07:22:00     -192.770       -2.344      -18.155       95.608       74.161       44.455     9140.833     5499.926     1976.258        2.705        0.831      192.784       41.433        0.046      335.052        5.429      850.323
11/01/2014  07:23:00     -157.637      -85.671       10.381      170.082       93.457       74.732    28927.859     8734.202     5584.945        3.776        2.162      179.413       85.513        0.227      335.087        5.488      850.313
11/01/2014  07:24:00     -282.555     -130.692       -7.730      165.732      134.554       85.977    27467.063    18104.726     7392.106        7.496        2.648      311.316       77.758        0.062      335.075        5.467      850.318
11/01/2014  07:25:00     -405.053      -29.865      -39.394      239.839      138.814       79.334    57522.870    19269.227     6293.873       12.478        4.154      406.153       97.936        0.058      335.069        5.458      850.313
11/01/2014  07:26:00     -212.120      -97.256        1.587      139.293      149.081       84.036    19402.404    22225.008     7062.121        5.156        2.434      233.353       85.427        0.134      335.107        5.521      850.299
11/01/2014  07:27:00     -238.687      -75.407        7.587      207.836      110.481       71.134    43195.788    12206.086     5060.111        6.158        3.023      250.315       76.026        0.092      335.110        5.525      850.306
11/01/2014  07:28:00     -276.243     -101.249       -7.143      174.177      136.577       63.294    30337.485    18653.184     4006.087        6.979        2.650      294.214       78.298        0.071      335.079        5.474      850.323
11/01/2014  07:29:00     -151.347      -22.928       15.972      149.651       85.598       56.432    22395.569     7327.021     3184.527        2.829        1.645      153.074       69.129        0.204      335.090        5.495      850.330
11/01/2014  07:30:00     -179.105     -106.964       17.501      133.956      126.108       61.024    17944.333    15903.317     3723.919        4.069        1.879      208.614       56.587        0.074      335.105        5.518      850.342
11/01/2014  07:31:00     -297.862     -170.293        1.064      214.384      167.676       80.926    45960.400    28115.350     6549.094        9.916        4.031      343.105      101.552        0.088      335.117        5.537      850.337
11/01/2014  07:32:00     -225.596     -140.061        5.680      139.890      136.349       76.458    19569.337    18590.981     5845.786        5.727        2.200      265.538       71.051        0.072      335.109        5.523      850.356
11/01/2014  07:33:00     -357.365      -55.651      -20.782      201.677      138.512       72.341    40673.509    19185.464     5233.186        9.815        3.255      361.673       60.964        0.028      335.124        5.548      850.351
11/01/2014  07:34:00     -389.853     -210.499      -19.223      231.417      146.905      100.712    53553.762    21581.140    10142.856       14.095        4.264      443.052      125.367        0.080      335.147        5.586      850.362
11/01/2014  07:35:00     -325.696      -99.846      -10.553      221.340      144.829       71.051    48991.608    20975.441     5048.310        9.557        3.751      340.657       96.916        0.081      335.148        5.588      850.390
11/01/2014  07:36:00     -335.254      -29.793      -18.150      177.659      113.594       73.137    31562.752    12903.706     5349.028        8.170        2.491      336.575       85.839        0.065      335.144        5.581      850.389
11/01/2014  07:37:00     -271.786     -135.497      -11.609      189.136      122.644       73.863    35772.362    15041.480     5455.783        7.430        2.813      303.689       90.445        0.089      335.173        5.630      850.406
11/01/2014  07:38:00     -174.682      -90.107        2.835      195.514      126.773       94.128    38225.847    16071.423     8860.115        5.089        3.158      196.553       96.142        0.239      335.240        5.739      850.390
11/01/2014  07:39:00     -420.908     -166.505      -18.442      188.067      153.655       81.715    35369.018    23609.972     6677.401       13.543        3.283      452.645       89.121        0.039      335.180        5.639      850.414
11/01/2014  07:40:00     -399.438     -186.962      -35.870      167.192      169.085       79.761    27953.083    28589.755     6361.878       12.934        3.145      441.028       82.383        0.035      335.176        5.635      850.420
11/01/2014  07:41:00     -228.382     -142.464       11.255      210.751      149.467       94.044    44416.134    22340.318     8844.270        7.408        3.780      269.174      101.140        0.141      335.178        5.636      850.432
11/01/2014  07:42:00     -382.096     -201.634       10.002      211.334      141.743       90.419    44662.134    20091.220     8175.560       12.983        3.646      432.034      105.578        0.060      335.176        5.635      850.416
11/01/2014  07:43:00     -327.539     -184.457        8.660      249.422      173.326      104.072    62211.216    30041.733    10830.991       12.221        5.154      375.907      122.553        0.106      335.214        5.697      850.392
11/01/2014  07:44:00     -361.846     -186.308        1.335      224.038      166.972       93.834    50192.995    27879.692     8804.761       12.624        4.344      406.993      113.501        0.078      335.237        5.735      850.441
11/01/2014  07:45:00     -414.428     -228.894       -8.229      219.510      215.907      117.929    48184.457    46615.916    13907.221       16.644        5.435      473.437      115.124        0.059      335.283        5.811      850.460
11/01/2014  07:46:00     -414.925     -195.781       -5.938      183.593      165.107       96.860    33706.503    27260.211     9381.932       14.042        3.517      458.795       88.725        0.037      335.261        5.774      850.478
11/01/2014  07:47:00     -400.212     -176.470      -31.040      244.764      175.201       89.432    59909.309    30695.488     7998.147       14.542        4.930      437.392      105.986        0.059      335.279        5.804      850.491
11/01/2014  07:48:00     -419.845     -203.647       -6.060      225.336      160.518       96.854    50776.302    25766.103     9380.713       15.183        4.296      466.629      110.807        0.056      335.231        5.724      850.523
11/01/2014  07:49:00     -325.676     -149.776       12.662      224.227      207.014      104.995    50277.639    42854.839    11023.995       11.639        5.208      358.466      119.253        0.111      335.236        5.733      850.508
11/01/2014  07:50:00     -294.420     -149.664      -15.546      183.342      145.125       73.100    33614.456    21061.341     5343.572        8.466        3.001      330.276       72.228        0.048      335.238        5.734      850.530
11/01/2014  07:51:00     -222.519     -152.796       -8.033      220.983      177.539       95.352    48833.638    31520.173     9092.024        8.117        4.472      269.928      112.603        0.174      335.255        5.763      850.543
11/01/2014  07:52:00     -344.323     -250.912      -18.440      186.246      179.112      116.110    34687.600    32081.139    13481.565       13.104        4.013      426.046      110.047        0.067      335.272        5.792      850.513
11/01/2014  07:53:00     -262.007     -224.005       18.404      249.900      205.544      121.430    62449.941    42248.256    14745.217       11.928        5.972      344.711      135.213        0.154      335.317        5.865      850.512
11/01/2014  07:54:00     -457.147     -245.760       -3.178      246.679      197.553      122.392    60850.515    39027.144    14979.792       19.210        5.743      519.020      135.515        0.068      335.309        5.855      850.511
11/01/2014  07:55:00     -313.177     -190.945        6.957      228.156      168.516      107.466    52054.987    28397.640    11549.035       11.328        4.600      366.796      114.101        0.097      335.324        5.879      850.527
11/01/2014  07:56:00     -261.044     -190.175       -0.953      215.116      153.117       85.172    46274.771    23444.911     7254.221        9.063        3.849      322.971      105.846        0.107      335.314        5.863      850.565
11/01/2014  07:57:00     -360.691     -189.784        0.069      177.604      147.440       80.629    31543.234    21738.470     6500.993       11.294        2.989      407.573       94.680        0.054      335.286        5.816      850.602
11/01/2014  07:58:00     -382.008     -200.078      -10.689      197.429      197.380       96.839    38978.195    38958.961     9377.752       13.668        4.366      431.233      100.571        0.054      335.297        5.835      850.606
11/01/2014  07:59:00     -356.475     -243.089        1.122      248.945      216.486      105.087    61973.391    46866.054    11043.257       15.300        5.994      431.470      110.881        0.066      335.382        5.975      850.580
11/01/2014  08:00:00     -346.406     -193.434       -1.534      188.001      156.072       85.770    35344.538    24358.462     7356.459       11.222        3.353      396.754      100.851        0.065      335.340        5.905      850.598
11/01/2014  08:01:00     -340.392     -127.377       -1.089      181.879      160.585       88.148    33080.082    25787.424     7770.045        9.935        3.332      363.444       87.167        0.058      335.341        5.907      850.595
11/01/2014  08:02:00     -463.304     -182.348      -17.473      268.282      167.883      104.104    71975.150    28184.833    10837.559       17.958        5.550      497.897      119.260        0.057      335.352        5.926      850.606
11/01/2014  08:03:00     -392.675     -179.245      -20.974      208.505      155.773       88.136    43474.514    24265.077     7768.028       13.112        3.775      431.651       79.856        0.034      335.354        5.928      850.618
11/01/2014  08:04:00     -292.900     -225.290        5.583      222.755      177.353      102.197    49619.861    31454.077    10444.168       11.403        4.576      369.521      117.751        0.102      335.362        5.942      850.637
11/01/2014  08:05:00     -332.653     -291.172        4.821      253.664      188.282      120.539    64345.350    35450.045    14529.570       15.487        5.716      442.085      145.330        0.108      335.379        5.969      850.633
11/01/2014  08:06:00     -429.817     -163.400      -31.338      237.301      168.355       86.079    56311.934    28343.347     7409.511       15.223        4.603      459.829       99.998        0.047      335.382        5.976      850.655
11/01/2014  08:07:00     -315.559     -197.267       -1.654      217.870      207.065      101.112    47467.360    42876.108    10223.542       11.951        5.028      372.145      115.378        0.096      335.351        5.924      850.665
11/01/2014  08:08:00     -422.720     -193.195      -18.866      231.520      155.492       83.837    53601.535    24177.749     7028.580       15.057        4.240      464.775       93.426        0.040      335.377        5.967      850.689
11/01/2014  08:09:00     -444.567     -233.384      -26.238      159.606      128.953       77.853    25474.015    16628.954     6061.073       15.047        2.408      502.104       83.862        0.028      335.368        5.953      850.697
11/01/2014  08:10:00     -295.167     -103.865       -5.528      151.478      147.513       65.610    22945.526    21759.972     4304.719        7.347        2.451      312.908       68.433        0.048      335.357        5.933      850.735
11/01/2014  08:11:00     -305.834     -215.543      -12.236      199.523      131.431       88.039    39809.476    17274.008     7750.830       10.248        3.242      374.157       99.371        0.071      335.364        5.945      850.750
11/01/2014  08:12:00     -276.131      -90.411        0.641      179.198      154.156       78.439    32111.838    23763.987     6152.651        7.321        3.101      290.555       88.918        0.094      335.362        5.942      850.795
11/01/2014  08:13:00     -340.376     -148.143        8.674      197.307      151.846       82.995    38930.125    23057.265     6888.213       10.336        3.444      371.217       88.317        0.057      335.339        5.904      850.798
11/01/2014  08:14:00     -192.807     -170.664       12.091      157.364      151.553       78.931    24763.564    22968.365     6230.026        6.019        2.698      257.490       96.352        0.140      335.348        5.919      850.827
11/01/2014  08:15:00     -294.431     -122.391        6.116      148.944      131.688       75.723    22184.266    17341.607     5734.040        7.347        2.263      318.856       87.536        0.075      335.357        5.933      850.842
11/01/2014  08:16:00     -303.687     -167.385       -7.275      166.331      117.741       68.483    27666.091    13862.917     4689.884        8.325        2.311      346.761       82.392        0.056      335.351        5.923      850.867
11/01/2014  08:17:00     -300.187      -83.604       -6.671      222.399      135.910       74.749    49461.294    18471.513     5587.362        8.532        3.676      311.612      100.173        0.103      335.383        5.978      850.840
11/01/2014  08:18:00     -171.117     -122.137       18.348      166.920      141.214       83.388    27862.428    19941.402     6953.586        4.964        2.738      210.234       86.632        0.170      335.394        5.996      850.865
11/01/2014  08:19:00     -325.609      -92.619       -3.077      134.000      122.416       63.529    17956.048    14985.655     4035.930        7.579        1.849      338.525       66.974        0.039      335.359        5.937      850.901
11/01/2014  08:20:00     -209.847      -89.009      -17.560      111.672      105.410       46.666    12470.581    11111.341     2177.751        3.901        1.288      227.944       40.866        0.032      335.386        5.982      850.926
11/01/2014  08:21:00     -366.374      -53.223      -28.427      136.797      126.744       63.683    18713.416    16064.044     4055.505        8.834        1.942      370.219       70.792        0.037      335.340        5.906      850.925
11/01/2014  08:22:00     -311.263      -59.929      -17.414      144.523      113.483       67.993    20886.861    12878.450     4623.097        6.958        1.919      316.980       69.916        0.049      335.370        5.955      850.897
11/01/2014  08:23:00     -250.439     -154.228        3.318      163.850      154.660       82.075    26846.712    23919.784     6736.354        7.200        2.875      294.119       85.098        0.084      335.368        5.953      850.899
11/01/2014  08:24:00      -69.000      -23.933       33.069      128.363       76.450       78.006    16477.141     5844.622     6084.997        1.741        1.420       73.033       67.570        0.856      335.422        6.044      850.897
11/01/2014  08:25:00     -264.218     -150.119       -4.371      210.361      123.017       72.944    44251.883    15133.081     5320.849        7.852        3.235      303.886       94.710        0.097      335.409        6.020      850.914
11/01/2014  08:26:00     -171.654     -105.028       -2.371      157.230      144.313       70.107    24721.340    20826.121     4914.960        4.547        2.523      201.236       64.768        0.104      335.433        6.064      850.939
11/01/2014  08:27:00     -342.848     -172.379       -5.191      187.482      137.179       81.255    35149.686    18818.130     6602.310       10.392        3.029      383.743       87.042        0.051      335.403        6.010      850.961
11/01/2014  08:28:00     -357.756     -237.013       -2.849      168.026      140.832       89.535    28232.858    19833.603     8016.468       12.012        2.804      429.144       83.609        0.038      335.409        6.022      850.971
11/01/2014  08:29:00     -317.642      -38.613        8.433      172.869      167.168       83.324    29883.626    27945.035     6942.967        8.360        3.239      319.981       96.573        0.091      335.421        6.040      850.990
11/01/2014  08:30:00     -239.251     -128.907       -4.646      141.984      107.932       70.534    20159.589    11649.273     4974.983        5.532        1.839      271.768       70.980        0.068      335.413        6.027      851.031
11/01/2014  08:31:00     -321.348     -152.481       -4.759      223.492      132.277       97.534    49948.511    17497.126     9512.923       10.173        3.848      355.690      121.252        0.116      335.433        6.059      851.027
11/01/2014  08:32:00     -354.605     -195.962      -13.539      204.534      162.776       98.457    41834.177    26496.062     9693.845       12.116        3.901      405.149       96.560        0.057      335.477        6.133      851.050
11/01/2014  08:33:00     -465.167     -197.314      -42.457      166.695      147.030       79.991    27787.148    21617.892     6398.560       15.645        2.790      505.285       76.806        0.023      335.469        6.120      851.062
11/01/2014  08:34:00     -352.905     -173.728      -12.237      201.922      160.747       81.040    40772.502    25839.626     6567.441       11.401        3.659      393.349       99.645        0.064      335.501        6.174      851.087
11/01/2014  08:35:00     -304.254     -188.395       17.693      251.647      172.976      102.874    63325.997    29920.575    10583.056       11.608        5.191      357.859      116.959        0.107      335.533        6.228      851.077
11/01/2014  08:36:00     -447.429     -130.653       -6.536      205.563      171.024       96.293    42256.202    29249.101     9272.270       14.903        4.039      466.115      111.342        0.057      335.520        6.205      851.087
11/01/2014  08:37:00     -372.605     -132.663      -11.895      216.267      161.817       83.515    46771.450    26184.751     6974.789       11.824        3.997      395.517       96.147        0.059      335.512        6.192      851.080
11/01/2014  08:38:00     -262.270     -144.271        2.231      188.744      148.203       93.855    35624.280    21964.089     8808.813        7.799        3.320      299.332      101.688        0.115      335.520        6.205      851.083
11/01/2014  08:39:00     -455.278     -106.474      -22.478      191.126      144.614       90.368    36529.166    20913.272     8166.324       14.235        3.280      467.562       85.952        0.034      335.535        6.230      851.098
11/01/2014  08:40:00     -410.239     -124.483      -21.878      204.964      119.199       78.734    42010.188    14208.509     6199.016       12.333        3.121      428.710       89.574        0.044      335.554        6.261      851.083
11/01/2014  08:41:00     -284.383     -145.720      -19.836      162.496      172.182       81.737    26404.870    29646.745     6680.940        8.260        3.137      319.544       81.984        0.066      335.581        6.308      851.107
11/01/2014  08:42:00     -568.224     -186.506      -35.019      224.575      184.858      110.514    50433.945    34172.447    12213.449       22.784        4.841      598.050      121.585        0.041      335.589        6.321      851.134
11/01/2014  08:43:00     -384.451     -148.061        6.428      287.231      162.416      104.250    82501.834    26378.942    10868.126       14.473        5.987      411.976      140.000        0.115      335.613        6.361      851.103
11/01/2014  08:44:00     -216.050      -64.747       11.299      187.541      119.242       71.228    35171.563    14218.712     5073.432        5.272        2.723      225.543       86.437        0.147      335.626        6.383      851.132
11/01/2014  08:45:00     -266.893     -188.458        0.501      211.176      161.394      105.225    44595.349    26048.037    11072.392        9.422        4.086      326.724      102.036        0.098      335.611        6.359      851.117
11/01/2014  08:46:00     -283.432     -151.241        1.911      151.947      121.096       70.751    23087.974    14664.176     5005.676        7.298        2.138      321.259       75.986        0.056      335.592        6.327      851.153
11/01/2014  08:47:00     -309.880     -241.120        9.241      230.059      199.050      116.035    52927.200    39620.766    13464.211       13.011        5.301      392.638      131.847        0.113      335.636        6.397      851.122
11/01/2014  08:48:00     -299.747      -54.616       14.641      249.519      177.272       97.861    62259.624    31425.185     9576.796        9.813        5.163      304.682      120.905        0.157      335.649        6.421      851.094
11/01/2014  08:49:00     -371.533      -40.232       -1.412      241.731      136.033       99.974    58433.995    18504.861     9994.844       11.328        4.347      373.705      113.554        0.092      335.657        6.435      851.115
11/01/2014  08:50:00     -391.536      -37.707      -24.657      170.295      130.083       82.195    29000.383    16921.655     6756.055       10.399        2.634      393.347       85.460        0.047      335.628        6.386      851.096
11/01/2014  08:51:00     -467.010     -144.866      -45.068      225.064      154.004       98.001    50653.598    23717.094     9604.102       16.253        4.199      488.962      101.892        0.043      335.627        6.384      851.069
11/01/2014  08:52:00     -422.096      -63.137      -18.828      171.081      165.972       83.473    29268.604    27546.639     6967.729       12.313        3.189      426.792       85.272        0.040      335.623        6.375      851.089
11/01/2014  08:53:00     -359.470     -263.848      -14.612      205.539      166.441       88.978    42246.277    27702.698     7917.085       13.844        3.893      445.908      103.397        0.054      335.655        6.430      851.078
11/01/2014  08:54:00     -309.352      -98.589        2.182      186.422      136.402       95.395    34753.189    18605.618     9100.164        8.393        3.123      324.682      103.606        0.102      335.659        6.438      851.097
11/01/2014  08:55:00     -371.837     -100.194      -11.497      184.195      155.768       77.327    33927.923    24263.716     5979.517       10.629        3.209      385.100       82.179        0.046      335.663        6.444      851.121
11/01/2014  08:56:00     -221.745     -120.232       17.187      208.971      138.557       97.731    43668.751    19198.022     9551.430        6.816        3.621      252.243      111.368        0.195      335.687        6.482      851.138
11/01/2014  08:57:00     -408.402     -208.206      -21.927      216.044      139.823       83.553    46675.012    19550.461     6981.155       14.190        3.660      458.412       91.107        0.039      335.663        6.443      851.139
11/01/2014  08:58:00     -356.248     -125.906      -13.278      171.683      167.046       60.951    29474.934    27904.239     3714.966       10.201        3.055      377.843       67.341        0.032      335.668        6.453      851.156
11/01/2014  08:59:00     -395.040     -110.500       -8.328      233.604      164.161       96.164    54570.728    26948.739     9247.538       12.953        4.538      410.204      110.255        0.072      335.696        6.499      851.172
11/01/2014  09:00:00     -346.197     -214.446       -5.194      176.306      163.293       88.194    31083.681    26664.455     7778.234       11.568        3.276      407.233       85.140        0.044      335.684        6.477      851.185
11/01/2014  09:01:00     -417.545     -172.784      -17.746      200.618      141.828       88.339    40247.498    20115.121     7803.787       13.633        3.408      451.883       99.737        0.049      335.693        6.494      851.208
11/01/2014  09:02:00     -216.440      -24.614       10.932      165.266      133.657       81.473    27312.841    17864.239     6637.842        4.968        2.591      217.835       90.704        0.173      335.724        6.546      851.235
11/01/2014  09:03:00     -369.128     -157.442      -13.679      157.716      137.241       85.623    24874.365    18835.099     7331.289       10.613        2.552      401.303       86.871        0.047      335.687        6.483      851.226
11/01/2014  09:04:00     -287.075     -250.329        6.989      206.001      191.960       97.874    42436.527    36848.608     9579.328       11.698        4.443      380.889      114.305        0.090      335.720        6.538      851.262
11/01/2014  09:05:00     -357.158     -251.985       -7.679      204.854      180.702      109.114    41965.266    32653.155    11905.895       13.880        4.326      437.103      124.786        0.082      335.704        6.512      851.267
11/01/2014  09:06:00     -287.789     -186.132        4.160      225.441      177.918      106.540    50823.733    31654.838    11350.728       10.564        4.691      342.735      127.208        0.138      335.744        6.579      851.274
11/01/2014  09:07:00     -224.809     -100.637       -9.209      192.146      130.177       90.375    36920.025    16946.121     8167.724        6.138        3.102      246.306       92.127        0.140      335.751        6.590      851.298
11/01/2014  09:08:00     -252.912     -132.728       10.085      256.804      191.572      118.860    65948.389    36699.918    14127.620        9.921        5.839      285.624      141.566        0.246      335.773        6.628      851.316
11/01/2014  09:09:00     -229.206     -120.882       -7.608      145.501      127.279       63.905    21170.421    16199.899     4083.875        5.432        2.073      259.129       69.288        0.071      335.754        6.596      851.361
11/01/2014  09:10:00     -265.799     -236.048        7.255      213.122      159.822      101.932    45420.851    25543.025    10390.137       10.387        4.068      355.482      125.428        0.124      335.738        6.570      851.381
11/01/2014  09:11:00     -158.776      -65.060       -1.911      168.032      123.362       78.651    28234.841    15218.210     6186.034        3.953        2.482      171.589       70.794        0.170      335.779        6.639      851.404
11/01/2014  09:12:00     -258.836      -75.700        5.129      187.678      146.317       84.872    35222.941    21408.764     7203.273        6.828        3.192      269.678      100.753        0.140      335.778        6.635      851.445
11/01/2014  09:13:00     -237.575      -38.346      -18.166      189.927      133.740       77.813    36072.298    17886.290     6054.874        5.912        3.001      240.650       74.718        0.096      335.751        6.591      851.471
11/01/2014  09:14:00     -288.507      -79.302      -13.185      174.394      148.483       68.655    30413.396    22047.126     4713.466        7.342        2.859      299.207       77.757        0.068      335.754        6.595      851.494
11/01/2014  09:15:00     -454.589     -127.600      -12.561      194.438      175.510       78.499    37806.062    30803.726     6162.098       14.892        3.739      472.158       63.399        0.018      335.733        6.560      851.494
11/01/2014  09:16:00     -395.711      -94.666      -12.977      188.249      145.459       83.879    35437.503    21158.186     7035.728       11.466        3.182      406.877       87.106        0.046      335.758        6.601      851.502
11/01/2014  09:17:00     -288.400     -131.031      -21.727      186.849      168.976       74.447    34912.475    28552.897     5542.301        8.490        3.450      316.770       82.504        0.068      335.785        6.647      851.536
11/01/2014  09:18:00     -336.590     -163.116       -6.913      150.436      169.401       86.741    22630.864    28696.806     7523.960        9.939        2.943      374.032       85.762        0.053      335.766        6.616      851.536
11/01/2014  09:19:00     -203.451      -62.445       10.562      177.918      115.135       79.019    31654.639    13256.019     6244.024        4.827        2.558      212.819       97.214        0.209      335.790        6.656      851.554
11/01/2014  09:20:00     -274.919     -209.995       12.654      272.113      156.700      119.543    74045.553    24554.783    14290.541       11.634        5.645      345.946      144.010        0.173      335.815        6.697      851.560
11/01/2014  09:21:00     -283.818      -72.000      -12.309      181.064      205.412       87.125    32784.079    42194.263     7590.823        8.421        4.128      292.808       87.738        0.090      335.795        6.665      851.578
11/01/2014  09:22:00     -428.032     -166.202      -13.189      182.005      142.941       74.228    33125.866    20432.174     5509.866       13.503        2.953      459.168       81.698        0.032      335.788        6.653      851.597
11/01/2014  09:23:00     -492.769     -153.348      -11.072      230.315      204.320      102.186    53044.909    41746.801    10441.890       18.583        5.262      516.078      110.271        0.046      335.791        6.658      851.610
11/01/2014  09:24:00     -378.783        4.144      -13.746      273.026      189.390       91.139    74542.963    35868.698     8306.227       13.118        5.936      378.805      118.734        0.098      335.825        6.715      851.638
11/01/2014  09:25:00     -363.317     -100.375      -23.791      259.984      161.726       93.206    67591.617    26155.160     8687.340       12.252        5.122      376.927      119.061        0.100      335.840        6.740      851.616
11/01/2014  09:26:00     -475.164      -62.946      -25.169      200.046      179.346       91.809    40018.520    32165.137     8428.971       15.548        4.031      479.316       97.917        0.042      335.814        6.695      851.652
11/01/2014  09:27:00     -412.541      -95.574       -7.839      290.281      159.564      106.194    84263.203    25460.541    11277.100       15.017        6.050      423.467      129.477        0.093      335.876        6.799      851.647
11/01/2014  09:28:00     -279.529     -146.795       21.762      230.633      173.313      108.651    53191.685    30037.408    11805.087        9.758        4.752      315.729      112.334        0.127      335.906        6.850      851.699
11/01/2014  09:29:00     -330.403     -208.510       -6.899      214.612      177.397      107.958    46058.236    31469.869    11654.864       12.092        4.459      390.695       96.010        0.060      335.891        6.823      851.713
11/01/2014  09:30:00     -312.784      -37.850       -4.014      191.663      160.996       79.098    36734.778    25919.733     6256.500        8.408        3.446      315.066       77.388        0.060      335.937        6.899      851.735
11/01/2014  09:31:00     -356.487     -136.842        0.386      175.274      153.356       73.446    30721.136    23518.027     5394.388       10.271        2.982      381.849       83.194        0.047      335.926        6.881      851.785
11/01/2014  09:32:00     -319.048      -68.041       -5.575      245.189      161.258       90.168    60117.868    26004.096     8130.182       10.033        4.713      326.223      114.664        0.124      335.932        6.893      851.780
11/01/2014  09:33:00     -342.866      -74.797       -9.376      218.370      116.914       92.898    47685.278    13668.774     8630.042        9.660        3.499      350.930      106.244        0.092      335.925        6.880      851.783
11/01/2014  09:34:00     -294.805     -185.264       -6.184      169.529      185.805       87.652    28739.916    34523.574     7682.952        9.609        3.547      348.185       97.591        0.079      335.935        6.897      851.799
11/01/2014  09:35:00     -359.381     -219.617      -10.326      240.093      149.720       98.976    57644.840    22415.949     9796.164       13.366        4.493      421.173      126.207        0.090      335.897        6.834      851.808
11/01/2014  09:36:00     -336.453      -45.155      -21.746      222.510      147.750       73.989    49510.887    21830.014     5474.393        9.625        3.841      339.469       78.598        0.054      335.954        6.928      851.847
11/01/2014  09:37:00     -328.622     -198.670      -11.991      285.438      200.028      120.136    81474.680    40011.044    14432.561       14.174        6.796      384.008      140.811        0.134      335.960        6.938      851.803
11/01/2014  09:38:00     -183.961     -100.730       15.725      143.692      124.907       72.016    20647.254    15601.722     5186.333        4.283        2.072      209.733       68.385        0.106      335.984        6.978      851.862
11/01/2014  09:39:00     -327.278     -131.159       -5.910      199.201      157.828       91.245    39680.962    24909.598     8325.584        9.862        3.646      352.581       93.354        0.070      335.939        6.905      851.879
11/01/2014  09:40:00     -326.768     -201.321       -3.798      217.767      141.528       89.782    47422.564    20030.254     8060.796       11.140        3.776      383.806       93.493        0.059      335.929        6.886      851.900
11/01/2014  09:41:00     -366.635      -65.632      -13.921      162.906      150.177       70.597    26538.304    22553.184     4983.924        9.649        2.704      372.463       70.104        0.035      335.935        6.898      851.918
11/01/2014  09:42:00     -414.719      -47.443      -38.706      143.777      151.123       79.526    20671.861    22838.098     6324.449       11.278        2.492      417.424       70.148        0.028      335.927        6.884      851.929
11/01/2014  09:43:00     -410.702      -34.060      -19.345      170.266      137.248       71.370    28990.640    18836.900     5093.733       11.156        2.646      412.112       74.841        0.033      335.920        6.870      851.921
11/01/2014  09:44:00     -260.252     -110.115        3.829      216.124      168.685       80.851    46709.492    28454.529     6536.931        8.077        4.085      282.588      103.455        0.134      335.976        6.967      851.975
11/01/2014  09:45:00     -581.525      -90.257      -30.107      256.656      196.916       99.213    65872.379    38775.857     9843.201       23.083        5.725      588.487      106.158        0.033      335.914        6.863      851.932
11/01/2014  09:46:00     -374.255      -43.368      -17.895      209.300      199.701       87.561    43806.603    39880.536     7666.875       11.679        4.568      376.760       97.500        0.067      335.957        6.933      851.978
11/01/2014  09:47:00     -393.330     -125.790      -10.105      162.657      167.079       79.889    26457.183    27915.538     6382.292       11.568        3.038      412.954       74.693        0.033      335.950        6.921      852.003
11/01/2014  09:48:00     -438.391     -113.370      -16.306      272.154      120.536       81.466    74067.810    14528.898     6636.742       15.025        4.762      452.813      100.096        0.049      335.974        6.962      852.033
11/01/2014  09:49:00     -327.442      -71.191      -18.256      217.696      128.710       77.726    47391.723    16566.294     6041.327        9.130        3.500      335.091       81.565        0.059      336.000        7.004      852.072
11/01/2014  09:50:00     -586.475     -225.243      -37.107      180.663      198.243       98.229    32639.209    39300.481     9648.945       23.881        4.079      628.241       94.244        0.023      335.956        6.932      852.074
11/01/2014  09:51:00     -566.448     -192.532      -25.515      209.286      168.730      100.300    43800.797    28469.667    10060.089       22.044        4.117      598.275      102.345        0.029      335.961        6.940      852.078
11/01/2014  09:52:00     -443.543     -120.254       -4.638      238.747      186.379       83.688    56999.926    34737.211     7003.707       15.496        4.937      459.556       90.793        0.039      335.982        6.974      852.078
11/01/2014  09:53:00     -352.114      -66.847       -0.461      249.612      124.436       80.875    62306.032    15484.226     6540.791       10.638        4.217      358.403      101.241        0.080      336.012        7.026      852.118
11/01/2014  09:54:00     -430.732     -132.824      -24.023      224.956      162.119       89.560    50605.166    26282.655     8021.036       14.431        4.245      450.747       98.188        0.047      336.008        7.018      852.145
11/01/2014  09:55:00     -199.685     -141.194       17.664      210.178      132.723       97.156    44174.761    17615.438     9439.192        6.566        3.561      244.561      116.636        0.227      336.070        7.124      852.155
11/01/2014  09:56:00     -287.316     -224.436       -1.083      224.806      161.164       94.871    50537.697    25973.724     9000.596       10.920        4.276      364.585      108.600        0.089      336.056        7.098      852.154
11/01/2014  09:57:00     -337.636      -63.585      -19.053      170.386      155.666       77.609    29031.539    24231.821     6023.208        8.883        2.964      343.571       72.719        0.045      336.058        7.102      852.174
11/01/2014  09:58:00     -384.511       -4.947       -9.248      164.591      155.186       81.965    27090.058    24082.727     6718.225       10.291        2.895      384.542       83.732        0.047      336.069        7.119      852.180
11/01/2014  09:59:00     -268.620      -86.448       15.697      160.774      117.040       63.118    25848.289    13698.355     3983.870        6.169        2.177      282.188       65.828        0.054      336.075        7.131      852.208
11/01/2014  10:00:00     -573.203     -106.197      -31.440      245.971      190.252       95.847    60501.517    36195.852     9186.632       22.334        5.294      582.958      121.625        0.044      336.020        7.038      852.220
11/01/2014  10:01:00     -304.883     -119.784        1.144      225.472      147.143       79.945    50837.459    21651.183     6391.181        9.308        3.944      327.570      109.899        0.113      336.078        7.136      852.251
11/01/2014  10:02:00     -292.274     -153.138       -3.400      142.227      127.805       74.478    20228.459    16334.016     5546.916        7.549        2.105      329.963       80.620        0.060      336.073        7.127      852.289
11/01/2014  10:03:00     -303.325     -100.977       -1.659      177.339      165.090       85.440    31449.154    27254.669     7299.959        8.409        3.300      319.691       91.413        0.082      336.079        7.138      852.294
11/01/2014  10:04:00     -270.435      -73.898      -12.683      154.624      143.486       87.135    23908.443    20588.138     7592.453        6.541        2.604      280.350       87.920        0.098      336.084        7.146      852.304
11/01/2014  10:05:00     -231.279      -52.526       -9.976      162.948      155.155       83.984    26551.959    24073.080     7053.338        5.700        2.884      237.169       86.448        0.133      336.121        7.207      852.317
11/01/2014  10:06:00     -198.136      -70.787        5.974      158.263      102.021       60.591    25047.038    10408.231     3671.278        4.171        1.956      210.401       59.659        0.080      336.145        7.248      852.345
11/01/2014  10:07:00     -238.345     -172.821        0.341      187.248      141.678       78.041    35061.800    20072.652     6090.474        7.394        3.061      294.407      102.269        0.121      336.133        7.227      852.354
11/01/2014  10:08:00     -332.323     -169.971      -18.166      203.325      194.331       79.366    41341.074    37764.687     6298.887       11.251        4.270      373.268       90.849        0.059      336.082        7.142      852.339
11/01/2014  10:09:00     -220.738      -86.764        1.170      191.336      130.789       89.035    36609.294    17105.741     7927.312        5.894        3.082      237.177       89.132        0.141      336.124        7.212      852.377
11/01/2014  10:10:00     -237.322      -42.232       -1.817      198.270      138.401       80.791    39310.932    19154.873     6527.175        6.154        3.250      241.051       97.137        0.162      336.132        7.226      852.382
11/01/2014  10:11:00     -278.509      -87.393       21.424      225.146      168.550      101.470    50690.797    28409.255    10296.220        8.751        4.470      291.899      119.873        0.169      336.127        7.218      852.389
11/01/2014  10:12:00     -193.004     -110.997       -3.435      169.709      140.714       87.883    28801.254    19800.350     7723.415        5.294        2.816      222.646       76.173        0.117      336.144        7.246      852.395
11/01/2014  10:13:00     -401.105     -129.205      -24.540      174.052      159.070       78.974    30294.261    25303.407     6236.950       12.000        3.092      421.401       84.249        0.040      336.093        7.159      852.429
11/01/2014  10:14:00     -303.293      -42.828        0.794      154.707      114.927       70.363    23934.135    13208.223     4950.942        6.795        2.105      306.302       80.261        0.069      336.120        7.207      852.447
11/01/2014  10:15:00     -343.738     -135.780      -12.814      142.753      137.660       75.708    20378.418    18950.206     5731.728        9.090        2.253      369.584       85.271        0.053      336.113        7.194      852.489
11/01/2014  10:16:00     -215.748     -112.820       20.986      258.244      175.780      115.009    66690.058    30898.723    13226.976        8.524        5.541      243.466      141.601        0.338      336.134        7.230      852.474
11/01/2014  10:17:00     -585.973     -100.773      -39.936      328.159      167.742       99.396   107688.541    28137.447     9879.631       25.038        7.285      594.575      122.008        0.042      336.082        7.141      852.478
11/01/2014  10:18:00     -354.339      -85.043      -13.570      186.445      167.377       84.050    34761.755    28015.210     7064.425       10.139        3.492      364.401       96.095        0.070      336.145        7.247      852.507
11/01/2014  10:19:00     -218.157     -184.447        8.406      141.657      115.982       84.255    20066.671    13451.811     7098.921        6.114        2.031      285.680       73.526        0.066      336.145        7.247      852.525
11/01/2014  10:20:00     -273.861      -84.214       -0.137      226.024      118.891       65.579    51086.758    14135.087     4300.556        7.579        3.476      286.516       86.194        0.091      336.133        7.227      852.550
11/01/2014  10:21:00     -469.824      -70.930      -11.079      233.152      212.415       94.454    54359.731    45120.269     8921.577       16.712        5.420      475.148      102.547        0.047      336.106        7.181      852.524
11/01/2014  10:22:00     -331.814     -167.685        8.978      207.599      165.476       85.599    43097.462    27382.424     7327.185       10.804        3.890      371.778       91.194        0.060      336.143        7.244      852.524
11/01/2014  10:23:00     -269.875     -136.310       -9.203      161.372      117.734       65.107    26040.770    13861.375     4238.909        6.781        2.207      302.345       61.941        0.042      336.149        7.255      852.544
11/01/2014  10:24:00     -233.448     -118.209        1.537      140.135      131.159       67.315    19637.747    17202.649     4531.258        5.491        2.069      261.670       47.768        0.033      336.156        7.265      852.558
11/01/2014  10:25:00     -226.611      -63.289        5.327      151.834      130.100       72.723    23053.578    16925.986     5288.683        5.032        2.263      235.283       81.080        0.119      336.192        7.327      852.575
11/01/2014  10:26:00     -119.249      -54.641       25.971      147.397      117.494       73.480    21725.849    13804.917     5399.362        2.940        2.047      131.172       75.145        0.328      336.226        7.382      852.598
11/01/2014  10:27:00     -265.716     -111.080        2.783      191.822      120.477       71.861    36795.542    14514.649     5164.026        6.970        2.824      287.999       86.580        0.090      336.206        7.349      852.627
11/01/2014  10:28:00     -221.543     -103.632        7.867      191.144      121.191       66.486    36536.038    14687.364     4420.390        5.775        2.782      244.583       81.899        0.112      336.228        7.385      852.642
11/01/2014  10:29:00     -293.040     -156.169       -6.348      128.750      148.289       70.757    16576.442    21989.596     5006.578        7.693        2.179      332.056       65.634        0.039      336.193        7.329      852.648
11/01/2014  10:30:00     -460.108     -112.882      -15.205      214.436      151.162       94.058    45982.780    22849.911     8846.825       15.116        3.884      473.753       98.073        0.043      336.171        7.291      852.653
11/01/2014  10:31:00     -288.960      -97.515        5.554      198.334      182.022       82.526    39336.381    33132.077     6810.566        8.614        3.964      304.970       82.858        0.074      336.214        7.362      852.671
11/01/2014  10:32:00     -240.907     -129.730      -15.512      151.075       92.122       59.235    22823.735     8486.428     3508.767        5.496        1.741      273.617       70.764        0.067      336.225        7.382      852.705
11/01/2014  10:33:00     -238.042     -138.125       -2.923      132.281      136.346       70.259    17498.358    18590.248     4936.352        5.838        2.051      275.213       57.814        0.044      336.243        7.411      852.721
11/01/2014  10:34:00     -307.757      -37.165        6.127      154.177      139.937       80.795    23770.700    19582.367     6527.821        7.300        2.494      309.992       92.479        0.089      336.257        7.433      852.743
11/01/2014  10:35:00     -321.005     -153.476      -18.432      173.060      130.281       72.580    29949.907    16973.214     5267.889        8.955        2.610      355.808       70.884        0.040      336.247        7.415      852.770
11/01/2014  10:36:00     -407.401     -123.683      -10.595      178.991      145.198       95.796    32037.945    21082.401     9176.953       12.183        3.115      425.762      103.723        0.059      336.235        7.397      852.793
11/01/2014  10:37:00     -251.451     -109.050       -9.537      153.491      135.696       61.445    23559.483    18413.498     3775.513        6.047        2.287      274.079       54.143        0.039      336.234        7.396      852.796
11/01/2014  10:38:00     -371.211     -160.885      -22.800      191.375      201.860       81.576    36624.380    40747.494     6654.703       12.410        4.201      404.575       79.777        0.039      336.257        7.434      852.801
11/01/2014  10:39:00     -305.773     -119.935      -14.654      144.392      170.506       77.206    20848.991    29072.220     5960.838        8.198        2.794      328.453       69.012        0.044      336.241        7.407      852.820
11/01/2014  10:40:00     -270.567      -98.370        4.111      172.815      189.844       86.916    29865.192    36040.687     7554.363        7.817        3.673      287.894       98.257        0.116      336.252        7.425      852.789
11/01/2014  10:41:00     -351.307      -49.762      -21.587      231.707      149.062       78.625    53687.929    22219.401     6181.895       10.421        4.104      354.814       92.648        0.068      336.274        7.462      852.830
11/01/2014  10:42:00     -321.512      -95.392        0.816      180.864      173.378       80.972    32711.883    30059.985     6556.415        9.089        3.466      335.365       92.418        0.076      336.285        7.480      852.867
11/01/2014  10:43:00     -211.172     -152.157       -0.611      172.448      139.454       83.605    29738.326    19447.310     6989.833        6.195        2.809      260.280       84.988        0.107      336.314        7.529      852.862
11/01/2014  10:44:00     -381.168     -134.199       -9.521      194.099      161.104       83.116    37674.467    25954.519     6908.196       11.695        3.527      404.102       84.478        0.044      336.269        7.454      852.890
11/01/2014  10:45:00     -401.756     -101.727      -10.588      231.725      180.524       88.308    53696.404    32589.066     7798.224       13.296        4.704      414.435      110.591        0.071      336.262        7.441      852.878
11/01/2014  10:46:00     -467.795        2.759      -24.411      226.294      152.942       88.442    51208.890    23391.127     7821.903       15.091        4.121      467.803      103.884        0.049      336.247        7.417      852.859
11/01/2014  10:47:00     -355.628     -141.222      -18.894      161.144      186.713       82.812    25967.492    34861.745     6857.787       10.722        3.384      382.642       79.231        0.043      336.285        7.480      852.892
11/01/2014  10:48:00     -315.209     -236.887      -10.450      140.019      149.853       80.092    19605.308    22455.896     6414.749       10.202        2.424      394.300       83.661        0.045      336.290        7.488      852.918
11/01/2014  10:49:00     -278.777     -128.561       -5.746      168.857      141.127       63.025    28512.740    19916.707     3972.177        7.333        2.620      306.992       72.106        0.055      336.316        7.532      852.957
11/01/2014  10:50:00     -336.572     -240.701      -26.443      160.581      183.024       74.059    25786.117    33497.661     5484.781       11.833        3.238      413.785       84.033        0.041      336.266        7.450      852.953
11/01/2014  10:51:00     -217.406     -180.442      -13.011      229.193      227.372       95.573    52529.458    51697.932     9134.181        9.666        5.668      282.533       83.206        0.087      336.322        7.543      852.957
11/01/2014  10:52:00     -268.932     -140.175       -4.692      199.792      125.421       84.339    39916.928    15730.362     7112.987        7.737        3.138      303.271      112.838        0.138      336.324        7.546      852.992
11/01/2014  10:53:00     -392.726     -194.891       -1.538      168.229      131.992       69.796    28301.088    17422.002     4871.471       12.140        2.530      438.424       68.592        0.024      336.317        7.534      853.045
11/01/2014  10:54:00     -338.444      -54.019       -9.271      186.571      136.481       70.674    34808.685    18627.196     4994.883        8.798        2.922      342.728       82.305        0.058      336.309        7.520      853.060
11/01/2014  10:55:00     -293.563       85.374       -0.343      187.884      116.235       77.439    35300.518    13510.552     5996.851        7.413        2.740      305.725       85.300        0.078      336.352        7.594      853.074
11/01/2014  10:56:00     -326.707       66.788       -7.549      177.684      159.016       90.133    31571.631    25285.949     8123.998        8.811        3.249      333.464       91.545        0.075      336.312        7.526      853.061
11/01/2014  10:57:00     -180.057      -52.667        0.197       92.944      124.467       53.772     8638.604    15491.910     2891.398        3.110        1.351      187.601       51.691        0.076      336.383        7.644      853.076
11/01/2014  10:58:00     -225.420     -174.667        5.910      166.848       98.932       72.116    27838.183     9787.472     5200.685        6.208        2.141      285.171       86.043        0.091      336.402        7.678      853.083
11/01/2014  10:59:00     -332.909     -286.800      -11.092      168.948      161.395       91.515    28543.268    26048.210     8375.052       12.807        3.148      439.412       87.215        0.039      336.359        7.604      853.093
11/01/2014  11:00:00     -281.618     -174.562       15.898      241.065      182.021       87.861    58112.281    33131.542     7719.602       10.448        4.948      331.331      109.454        0.109      336.407        7.685      853.081
11/01/2014  11:01:00     -298.563      -76.418       -3.529      131.790      137.302       59.095    17368.632    18851.820     3492.200        6.734        1.986      308.187       44.631        0.021      336.387        7.649      853.104
11/01/2014  11:02:00     -596.455      -61.901      -38.823      169.938      130.722       79.515    28879.038    17088.170     6322.628       20.668        2.614      599.659       76.273        0.016      336.291        7.490      853.105
11/01/2014  11:03:00     -300.828     -186.888       17.650      216.901      181.823       96.752    47046.134    33059.489     9361.027       10.758        4.473      354.153      104.273        0.087      336.367        7.617      853.106
11/01/2014  11:04:00     -254.340     -181.542       -5.526      133.143      106.283       59.873    17726.937    11296.139     3584.823        6.514        1.630      312.484       65.258        0.044      336.401        7.675      853.108
11/01/2014  11:05:00     -235.562     -136.250      -14.853      158.149      138.036       68.693    25010.995    19053.982     4718.768        6.152        2.439      272.128       66.645        0.060      336.458        7.771      853.124
11/01/2014  11:06:00     -133.949      -40.375       27.522      164.399       90.620       74.928    27027.141     8212.046     5614.147        3.058        2.043      139.902       82.759        0.350      336.507        7.852      853.116
11/01/2014  11:07:00     -162.656      -61.863        3.668      154.961      104.161       63.201    24012.784    10849.461     3994.368        3.457        1.943      174.023       76.740        0.194      336.481        7.809      853.158
11/01/2014  11:08:00     -325.741     -125.189       -7.319      239.912      114.562       67.074    57557.609    13124.417     4498.956        9.849        3.759      348.969       90.546        0.067      336.456        7.766      853.158
11/01/2014  11:09:00     -313.866     -245.314      -12.406      189.841      143.245       90.467    36039.750    20519.244     8184.267       11.178        3.237      398.361       92.711        0.054      336.424        7.711      853.171
11/01/2014  11:10:00     -380.318     -230.199      -17.806      215.936      138.704       91.811    46628.487    19238.675     8429.271       13.611        3.715      444.559       97.178        0.048      336.414        7.696      853.166
11/01/2014  11:11:00     -362.065     -249.836      -19.400      176.283      132.281       90.721    31075.521    17498.159     8230.345       12.533        2.840      439.897       74.551        0.029      336.420        7.705      853.174
11/01/2014  11:12:00     -377.680     -225.699       -9.240      187.387      172.619       91.258    35114.061    29797.225     8327.944       13.344        3.662      439.980       84.888        0.037      336.401        7.674      853.172
11/01/2014  11:13:00     -225.566     -197.919       13.347      144.988      176.446       77.723    21021.654    31133.326     6040.845        7.420        2.910      300.086       84.023        0.078      336.477        7.802      853.199
11/01/2014  11:14:00     -356.776     -208.563      -13.232      218.158      170.327       91.753    47592.974    29011.339     8418.675       12.798        4.251      413.264      110.168        0.071      336.465        7.781      853.223
11/01/2014  11:15:00     -388.469     -200.033      -14.255      173.073      168.906       92.428    29954.163    28529.235     8542.853       12.906        3.351      436.945      100.803        0.053      336.429        7.720      853.204
11/01/2014  11:16:00     -256.576     -107.897       12.915      179.356      165.865       86.366    32168.614    27511.335     7459.039        7.238        3.357      278.340       98.975        0.126      336.519        7.874      853.223
11/01/2014  11:17:00     -396.101     -226.486       -8.224      198.018      176.080       98.861    39211.195    31004.233     9773.582       14.411        3.999      456.280       98.479        0.047      336.480        7.808      853.226
11/01/2014  11:18:00     -439.939     -217.170       -5.357      190.614      158.470       89.022    36333.571    25112.740     7924.946       15.504        3.469      490.621       87.042        0.031      336.462        7.776      853.260
11/01/2014  11:19:00     -386.985     -266.079      -20.552      143.907      145.777       82.156    20709.219    21251.049     6749.555       13.483        2.435      469.633       79.501        0.029      336.490        7.824      853.281
11/01/2014  11:20:00     -280.805     -185.564       14.707      250.834      192.817       98.654    62917.869    37178.394     9732.710       11.164        5.491      336.579      131.792        0.153      336.527        7.886      853.273
11/01/2014  11:21:00     -227.193      -70.540       11.883      181.684      159.498       73.668    33008.985    25439.675     5426.962        6.029        3.194      237.891       81.387        0.117      336.584        7.982      853.307
11/01/2014  11:22:00     -269.624     -212.688       17.049      203.928      178.080      102.476    41586.685    31712.464    10501.317       10.100        4.190      343.414      113.160        0.109      336.558        7.938      853.311
11/01/2014  11:23:00     -445.554     -206.372      -19.086      219.313      248.803      113.098    48098.255    61902.740    12791.252       18.211        6.140      491.027      120.986        0.061      336.461        7.774      853.321
11/01/2014  11:24:00     -418.795     -251.492       -4.449      239.261      164.605       88.313    57246.039    27094.677     7799.202       16.538        4.607      488.505      115.963        0.056      336.458        7.770      853.331
11/01/2014  11:25:00     -270.339      -80.796       -0.450      157.127      139.049       70.942    24689.042    19334.590     5032.829        6.432        2.453      282.155       77.147        0.075      336.518        7.871      853.344
11/01/2014  11:26:00     -232.622      -79.832       12.449      162.049      132.990       66.277    26259.808    17686.428     4392.603        5.448        2.417      245.940       66.229        0.073      336.579        7.973      853.360
11/01/2014  11:27:00     -459.384     -246.635        3.729      195.020      146.713       87.387    38032.791    21524.605     7636.444       16.952        3.360      521.404       82.422        0.025      336.451        7.758      853.358
11/01/2014  11:28:00     -397.930     -246.172       -3.874      216.929      135.984       79.325    47058.361    18491.657     6292.435       14.539        3.592      467.919       92.205        0.039      336.505        7.848      853.367
11/01/2014  11:29:00     -267.245     -174.426       -7.429      152.230      135.692       85.927    23174.072    18412.369     7383.445        7.542        2.448      319.130       79.381        0.062      336.571        7.959      853.377
11/01/2014  11:30:00     -447.321     -198.104      -31.724      150.267      163.675       77.957    22580.200    26789.575     6077.262       14.789        2.772      489.225       80.306        0.027      336.485        7.816      853.374
11/01/2014  11:31:00     -360.761     -179.786       -7.942      226.220      139.670       82.363    51175.539    19507.837     6783.612       11.999        3.873      403.077       97.575        0.059      336.569        7.956      853.407
11/01/2014  11:32:00     -219.221     -119.670        2.694      138.668      113.049       67.489    19228.851    12780.049     4554.822        4.947        1.828      249.758       71.644        0.082      336.624        8.049      853.416
11/01/2014  11:33:00     -205.081      -70.767        9.196      107.063      122.060       60.517    11462.424    14898.654     3662.357        3.858        1.501      216.947       51.998        0.057      336.635        8.068      853.417
11/01/2014  11:34:00     -278.703     -190.855       -1.265      159.189      131.496       78.878    25341.251    17291.163     6221.800        8.147        2.443      337.788       85.410        0.064      336.583        7.980      853.408
11/01/2014  11:35:00     -184.992     -121.843       23.526      135.250      135.344       62.165    18292.553    18317.933     3864.475        4.504        2.024      221.512       72.164        0.106      336.625        8.049      853.410
11/01/2014  11:36:00     -303.600     -221.883        1.668      137.840      124.049       80.030    18999.928    15388.072     6404.851        9.109        2.040      376.039       86.309        0.053      336.623        8.048      853.445
11/01/2014  11:37:00     -229.799     -188.539        4.996      198.108      187.783       84.773    39246.669    35262.355     7186.462        8.502        4.085      297.245       92.420        0.097      336.702        8.178      853.435
11/01/2014  11:38:00     -340.742     -182.339       -7.045      173.630      182.607       91.597    30147.462    33345.184     8389.982       11.063        3.594      386.462       83.514        0.047      336.640        8.075      853.425
11/01/2014  11:39:00     -163.635     -186.460       35.195      229.991      203.458      103.979    52895.998    41395.347    10811.545        8.392        5.255      248.080      118.695        0.229      336.709        8.190      853.420
11/01/2014  11:40:00     -477.654     -253.307      -12.869      201.848      241.024      110.382    40742.597    58092.780    12184.141       20.173        5.551      540.664      109.608        0.041      336.559        7.939      853.430
11/01/2014  11:41:00     -410.540     -291.728      -11.938      268.383      190.178      123.054    72029.335    36167.751    15142.243       18.854        6.167      503.635      139.168        0.076      336.546        7.919      853.410
11/01/2014  11:42:00     -549.368     -426.995      -31.067      254.273      219.294      124.946    64654.989    48090.077    15611.434       30.670        6.418      695.794      124.631        0.032      336.552        7.929      853.368
11/01/2014  11:43:00     -374.836     -205.027      -10.177      195.735      168.090       92.001    38312.239    28254.129     8464.112       12.882        3.752      427.245       98.450        0.053      336.635        8.067      853.466
11/01/2014  11:44:00     -350.444     -161.677       -0.229      154.344      180.401       84.375    23821.931    32544.391     7119.076       10.621        3.174      385.941       73.449        0.036      336.644        8.082      853.490
11/01/2014  11:45:00     -279.286     -197.764       34.853      260.752      231.403      122.898    67991.784    53547.430    15103.817       12.746        6.832      342.215      150.374        0.193      336.664        8.115      853.482
11/01/2014  11:46:00     -473.650     -133.220      -38.220      166.619      184.188       91.931    27761.953    33925.365     8451.311       15.683        3.507      492.029       88.927        0.033      336.578        7.972      853.518
11/01/2014  11:47:00     -399.390     -154.605      -38.230      207.463      124.316       85.519    43040.855    15454.499     7313.577       12.533        3.290      428.270      101.026        0.056      336.584        7.982      853.529
11/01/2014  11:48:00     -427.666     -247.505      -13.759      224.811      138.902       92.552    50539.985    19293.689     8565.817       16.136        3.920      494.123      101.583        0.042      336.617        8.036      853.509
11/01/2014  11:49:00     -346.369      -60.851       -1.651      252.844      123.176       95.411    63929.984    15172.307     9103.317       10.592        4.410      351.674      121.525        0.119      336.699        8.174      853.538
11/01/2014  11:50:00     -494.013     -149.935      -47.525      135.706      141.966       74.971    18416.004    20154.360     5620.667       15.648        2.210      516.265       69.704        0.018      336.624        8.050      853.560
11/01/2014  11:51:00     -313.673      -66.284       -0.008      248.053      134.988      105.143    61530.495    18221.792    11055.058        9.678        4.540      320.600      120.721        0.142      336.752        8.262      853.569
11/01/2014  11:52:00     -392.362     -124.827       -8.355      248.070      160.054       87.061    61538.583    25617.195     7579.668       13.215        4.737      411.740      109.059        0.070      336.690        8.157      853.569
11/01/2014  11:53:00     -321.882     -240.105      -16.695      192.965      145.290       87.450    37235.630    21109.196     7647.511       11.375        3.300      401.570      103.188        0.066      336.706        8.185      853.579
11/01/2014  11:54:00     -338.450     -132.076       -3.629      222.763      124.190       92.716    49623.510    15423.138     8596.178       10.281        3.682      363.307      110.309        0.092      336.780        8.308      853.604
11/01/2014  11:55:00     -285.753      -60.515        8.903      152.613      138.304       70.540    23290.725    19127.949     4975.897        6.639        2.370      292.091       72.749        0.062      336.884        8.483      853.613
11/01/2014  11:56:00     -377.139     -171.442      -12.969      238.452      206.260      102.357    56859.574    42543.297    10477.035       14.081        5.494      414.278       99.575        0.058      336.800        8.342      853.614
11/01/2014  11:57:00     -359.304     -194.227        4.159      206.758      171.614      109.822    42748.898    29451.197    12060.873       12.553        4.213      408.440      106.648        0.068      336.779        8.306      853.621
11/01/2014  11:58:00     -443.187     -140.473      -27.174      225.288      204.431       99.547    50754.701    41792.081     9909.608       15.965        5.123      464.916      114.587        0.061      336.730        8.226      853.667
11/01/2014  11:59:00     -435.881     -203.142      -15.597      242.122      190.863       97.974    58623.212    36428.860     9598.819       16.806        5.233      480.893      104.413        0.047      336.761        8.275      853.669
11/01/2014  12:00:00     -574.516     -142.823      -23.546      205.325      181.317       84.647    42158.435    32875.884     7165.147       21.659        4.110      592.003       86.167        0.021      336.677        8.137      853.659
11/01/2014  12:01:00     -246.947      -86.944       20.521      206.549      136.452       93.310    42662.468    18619.223     8706.808        6.946        3.499      261.805      110.520        0.178      336.887        8.486      853.649
11/01/2014  12:02:00     -402.280      -63.322      -22.429      173.261      179.208       89.349    30019.373    32115.578     7983.290       11.822        3.506      407.233       70.102        0.030      336.849        8.423      853.648
11/01/2014  12:03:00     -361.151      -53.342      -21.364      159.376      145.370       79.079    25400.551    21132.297     6253.501        9.325        2.639      365.069       78.197        0.046      336.859        8.441      853.653
11/01/2014  12:04:00     -473.201     -144.545      -17.372      213.311      239.075      111.336    45501.556    57156.850    12395.642       18.006        5.753      494.785      107.169        0.047      336.810        8.358      853.655
11/01/2014  12:05:00     -443.784     -191.276      -24.214      212.085      209.982       87.415    44980.085    44092.542     7641.416       16.540        4.836      483.250      102.313        0.045      336.828        8.388      853.657
11/01/2014  12:06:00     -425.284     -185.980      -17.967      209.105      165.876       95.118    43724.930    27514.718     9047.344       14.802        4.014      464.172      102.529        0.049      336.802        8.346      853.689
11/01/2014  12:07:00     -166.275      -25.287       19.893      187.926      134.244       93.571    35316.216    18021.500     8755.488        4.538        3.105      168.186       82.921        0.243      336.973        8.632      853.696
11/01/2014  12:08:00     -234.739      -77.090        8.600      170.638      114.893       75.500    29117.409    13200.288     5700.297        5.456        2.401      247.073       78.800        0.102      336.976        8.635      853.715
11/01/2014  12:09:00     -355.396      -64.905        0.328      239.168      130.526       89.227    57201.518    17036.924     7961.370       10.634        4.110      361.274      110.268        0.093      336.963        8.614      853.702
11/01/2014  12:10:00     -389.380     -103.280      -14.354      157.120      148.968       79.813    24686.821    22191.374     6370.082       10.786        2.662      402.844       82.011        0.041      336.946        8.584      853.724
11/01/2014  12:11:00     -469.800     -312.706      -41.072      197.148      164.647       93.683    38867.457    27108.542     8776.422       19.745        3.738      564.355       79.527        0.020      336.877        8.471      853.728
11/01/2014  12:12:00     -401.528     -243.319       -4.551      212.625      215.411      102.176    45209.308    46401.789    10439.860       16.123        5.103      469.499      126.587        0.073      336.867        8.452      853.711
11/01/2014  12:13:00     -357.894     -251.633       -6.525      193.319      146.270       95.593    37372.146    21394.984     9137.928       12.966        3.395      437.501      103.669        0.056      336.904        8.515      853.735
11/01/2014  12:14:00     -385.446     -121.281      -17.637      233.422      151.164       79.356    54485.639    22850.660     6297.410       12.359        4.182      404.076       95.012        0.055      336.879        8.475      853.734
11/01/2014  12:15:00     -378.144     -195.133      -16.121      191.677      133.383       84.832    36740.250    17791.104     7196.412       12.152        3.086      425.523       91.619        0.046      336.939        8.574      853.746
11/01/2014  12:16:00     -284.469     -146.359        5.840      247.007      207.360      107.530    61012.329    42998.008    11562.605       10.895        5.779      319.912      130.281        0.166      336.956        8.602      853.726
11/01/2014  12:17:00     -484.244     -109.195      -20.523      203.757      168.604       92.540    41516.964    28427.236     8563.627       16.266        3.925      496.403       90.145        0.033      336.852        8.428      853.747
11/01/2014  12:18:00     -430.078     -157.611      -23.867      222.979      153.474       90.751    49719.614    23554.337     8235.803       14.593        4.075      458.049       91.762        0.040      336.864        8.450      853.734
11/01/2014  12:19:00     -527.169      -86.165      -27.462      257.341      188.293       89.417    66224.607    35454.417     7995.461       19.786        5.484      534.164       96.262        0.032      336.849        8.423      853.742
11/01/2014  12:20:00     -208.520      -73.112       19.088      178.603      144.669       75.050    31898.909    20929.176     5632.559        5.381        2.923      220.966       82.029        0.138      337.069        8.793      853.779
11/01/2014  12:21:00     -430.009      -67.904      -17.002      169.880      153.152       76.343    28859.312    23455.470     5828.305       12.396        2.907      435.338       76.495        0.031      336.896        8.502      853.786
11/01/2014  12:22:00     -189.173      -38.719       -0.404      138.205      121.340       58.950    19100.551    14723.335     3475.090        3.729        1.865      193.095       68.579        0.126      337.098        8.839      853.817
11/01/2014  12:23:00     -446.474      -93.355      -23.727      185.836      154.232       78.062    34535.121    23787.429     6093.634       13.650        3.221      456.129       91.586        0.040      336.881        8.478      853.819
11/01/2014  12:24:00     -199.672      -58.251       10.863      171.710      109.844       71.217    29484.252    12065.755     5071.853        4.499        2.331      207.996       67.169        0.104      337.018        8.707      853.827
11/01/2014  12:25:00     -170.785     -111.111       -0.905       99.953      121.660       60.382     9990.584    14801.071     3646.033        3.497        1.422      203.748       59.678        0.086      337.032        8.729      853.843
11/01/2014  12:26:00     -170.959      -20.733       -0.377      139.261      102.135       54.237    19393.597    10431.648     2941.649        3.121        1.638      172.211       62.199        0.130      337.096        8.837      853.828
11/01/2014  12:27:00     -266.995      -18.797       -0.415      181.665      131.562       74.810    33002.194    17308.571     5596.523        6.376        2.795      267.656       89.925        0.113      337.082        8.812      853.862
11/01/2014  12:28:00     -222.659      -31.545       20.776      185.222      134.371       86.208    34307.014    18055.531     7431.810        5.539        2.990      224.883       91.722        0.166      337.004        8.684      853.867
11/01/2014  12:29:00     -426.816      -55.229       -8.787      223.516      184.314       87.603    49959.222    33971.536     7674.250       13.843        4.580      430.374       91.157        0.045      336.964        8.615      853.862
11/01/2014  12:30:00     -370.853      -72.197      -17.992      173.071      214.505       89.061    29953.483    46012.214     7931.915       11.347        4.195      377.815       69.203        0.034      336.879        8.474      853.899
11/01/2014  12:31:00     -308.448      -75.731        5.707      140.064      148.137       79.564    19618.049    21944.470     6330.501        7.439        2.395      317.609       82.413        0.067      336.905        8.517      853.905
11/01/2014  12:32:00     -315.231      -32.530       -1.103      159.971      110.908       71.688    25590.854    12300.506     5139.136        7.172        2.152      316.905       80.610        0.065      336.873        8.465      853.910
11/01/2014  12:33:00     -340.844      -93.802       -1.565      178.125      145.284       81.329    31728.553    21107.488     6614.368        9.220        2.973      353.516       83.789        0.056      336.843        8.413      853.914
11/01/2014  12:34:00     -446.615      -40.156      -15.307      189.573      155.568       86.659    35938.111    24201.291     7509.754       13.447        3.382      448.417      100.194        0.050      336.862        8.444      853.898
11/01/2014  12:35:00     -468.291     -181.246      -12.212      201.553      165.263       95.653    40623.568    27311.757     9149.448       16.467        3.854      502.142       98.952        0.039      336.827        8.387      853.915
11/01/2014  12:36:00     -248.130     -112.766       12.253      166.263      163.302       82.660    27643.226    26667.443     6832.621        6.778        3.057      272.552       92.827        0.116      336.924        8.548      853.930
11/01/2014  12:37:00     -282.997     -147.636       -5.489      220.958      173.611       90.048    48822.448    30140.916     8108.624        9.448        4.354      319.192      113.891        0.127      336.880        8.475      853.944
11/01/2014  12:38:00     -323.797      -49.143       -8.474      182.945      141.120       66.550    33468.739    19914.909     4428.909        8.256        2.891      327.505       78.322        0.057      336.849        8.423      853.963
11/01/2014  12:39:00     -305.511     -136.066      -26.125      152.775      120.148       68.392    23340.244    14435.561     4677.434        7.748        2.123      334.441       77.544        0.054      336.864        8.449      853.972
11/01/2014  12:40:00     -313.574     -171.929        0.059      203.947      146.009       79.208    41594.200    21318.693     6273.844        9.852        3.459      357.615       91.105        0.065      336.841        8.411      853.988
11/01/2014  12:41:00     -449.557      -50.342      -17.011      225.624      157.308       84.686    50906.213    24745.702     7171.642       14.386        4.141      452.367      106.796        0.056      336.830        8.393      854.001
11/01/2014  12:42:00     -327.410     -178.344       -9.073      166.026      152.068       80.833    27564.643    23124.606     6533.961        9.814        2.861      372.833       88.362        0.056      336.835        8.400      854.008
11/01/2014  12:43:00     -408.554      -82.438      -27.387      187.429      141.206       79.108    35129.604    19939.045     6258.149       11.788        3.066      416.788       79.652        0.037      336.805        8.350      854.026
11/01/2014  12:44:00     -246.377      -64.674       -9.551      104.633      102.974       56.619    10947.973    10603.730     3205.683        4.486        1.238      254.724       40.620        0.025      336.867        8.454      854.028
11/01/2014  12:45:00     -339.065     -126.447       -7.589      162.228      113.965       69.335    26317.868    12987.985     4807.366        8.755        2.206      361.875       80.782        0.050      336.891        8.493      854.044
11/01/2014  12:46:00     -263.848      -56.191      -16.405      151.900      107.400       62.785    23073.642    11534.843     3941.897        5.579        1.928      269.765       67.865        0.063      336.944        8.581      854.048
11/01/2014  12:47:00     -255.593      -92.696        3.441      136.740      130.475       77.108    18697.914    17023.669     5945.638        5.779        2.083      271.882       74.955        0.076      336.941        8.576      854.052
11/01/2014  12:48:00     -340.007     -222.930      -12.634      178.879      139.188       65.849    31997.874    19373.275     4336.084       11.057        2.785      406.574       63.664        0.025      336.868        8.455      854.053
11/01/2014  12:49:00     -266.120     -119.466      -13.443      144.725      110.568       52.652    20945.292    12225.177     2772.256        6.060        1.797      291.705       66.794        0.052      336.909        8.525      854.040
11/01/2014  12:50:00     -197.151      -91.198        6.340       95.901       87.117       44.986     9197.060     7589.293     2023.736        3.301        0.941      217.222       49.810        0.053      337.047        8.755      854.076
11/01/2014  12:51:00     -268.410     -109.469      -22.494      132.980       89.637       43.117    17683.711     8034.726     1859.091        5.605        1.379      289.874       53.287        0.034      336.952        8.595      854.063
11/01/2014  12:52:00     -221.847      -53.027      -11.357      102.111       77.947       49.018    10426.728     6075.702     2402.782        3.553        0.945      228.096       44.455        0.038      337.037        8.736      854.053
11/01/2014  12:53:00     -335.816     -154.031      -22.776      283.699      168.010       82.539    80484.995    28227.366     6812.724       12.625        5.776      369.456      109.012        0.087      336.986        8.653      854.058
11/01/2014  12:54:00     -301.307       -0.627       -7.750      226.587      164.762       81.044    51341.447    27146.357     6568.187        8.793        4.253      301.307       89.637        0.089      336.926        8.552      854.068
11/01/2014  12:55:00     -380.228     -102.324      -26.248      141.071      137.277       63.637    19900.888    18845.032     4049.652        9.926        2.140      393.756       62.081        0.025      336.909        8.522      854.040
11/01/2014  12:56:00     -466.100      -86.051       -7.077      220.197      153.858       80.709    48486.768    23672.205     6513.981       15.167        3.934      473.977       85.422        0.032      336.929        8.556      854.040
11/01/2014  12:57:00     -268.353      -74.439      -26.204      156.564      100.862       49.106    24512.152    10173.134     2411.350        5.766        1.855      278.486       54.688        0.039      337.028        8.722      854.057
11/01/2014  12:58:00     -339.927     -161.206        0.863      163.079      107.906       79.835    26594.843    11643.690     6373.667        9.307        2.231      376.215       82.210        0.048      337.059        8.773      854.059
11/01/2014  12:59:00     -368.397      -54.290      -33.418      136.135      127.885       67.406    18532.652    16354.595     4543.596        8.960        1.972      372.376       74.222        0.040      337.024        8.715      854.061
11/01/2014  13:00:00     -350.769      -14.365      -25.019      130.403      122.969       64.063    17004.964    15121.388     4104.075        8.004        1.812      351.063       46.488        0.018      336.996        8.669      854.042
11/01/2014  13:01:00     -211.422     -135.897       -4.643      196.629      170.549       96.773    38663.053    29086.848     9364.969        7.014        3.856      251.331      103.810        0.171      337.018        8.704      854.025
11/01/2014  13:02:00     -198.413      -70.255       -2.957      118.692      128.560       60.345    14087.882    16527.691     3641.487        3.928        1.713      210.484       46.638        0.049      337.108        8.858      854.025
11/01/2014  13:03:00     -371.042      -55.383      -29.488      130.119      135.500       62.026    16931.057    18360.174     3847.192        9.037        1.957      375.153       62.501        0.028      337.001        8.677      854.038
11/01/2014  13:04:00     -320.104     -121.923       22.099      245.927      161.191       83.863    60480.180    25982.575     7033.002       10.564        4.675      342.538      105.786        0.095      337.077        8.805      854.045
11/01/2014  13:05:00     -459.276      -68.035      -14.516      183.059      140.089       82.527    33510.661    19624.910     6810.720       13.785        2.997      464.288       86.336        0.035      336.948        8.589      854.036
11/01/2014  13:06:00     -378.222     -128.285      -24.743      209.533      174.721       80.515    43904.065    30527.305     6482.713       12.050        4.046      399.385       91.354        0.052      337.106        8.854      854.000
11/01/2014  13:07:00     -264.753     -123.334       12.424      219.585      152.768       79.779    48217.661    23337.987     6364.678        8.167        3.896      292.071       95.950        0.108      337.200        9.011      854.023
11/01/2014  13:08:00     -338.418     -131.909      -25.109      172.166      129.313       70.017    29641.051    16721.749     4902.404        9.190        2.563      363.217       66.914        0.034      337.146        8.921      854.058
11/01/2014  13:09:00     -318.710       -8.605        0.183      158.112      146.572       87.186    24999.517    21483.219     7601.386        7.786        2.704      318.826       89.244        0.078      337.052        8.763      854.067
11/01/2014  13:10:00     -405.238      -99.480      -15.191      196.991      160.499       84.406    38805.333    25759.785     7124.300       12.300        3.584      417.270      107.343        0.066      337.058        8.771      854.075
11/01/2014  13:11:00     -288.124      -53.265       -6.649      226.609      148.225       76.984    51351.660    21970.687     5926.527        8.256        3.962      293.006       96.160        0.108      336.986        8.652      854.050
11/01/2014  13:12:00     -150.534       59.495      -16.496       94.052       85.863       62.214     8845.704     7372.438     3870.595        2.328        1.004      161.864       59.178        0.134      337.114        8.867      854.047
11/01/2014  13:13:00     -161.518      -55.118       -7.103      133.079      100.159       61.781    17710.108    10031.885     3816.947        3.036        1.578      170.663       68.864        0.163      337.233        9.066      854.080
11/01/2014  13:14:00     -381.951      -48.286      -16.178      190.938      149.678       79.662    36457.449    22403.472     6346.085       10.683        3.260      384.991       81.001        0.044      337.043        8.749      854.064
11/01/2014  13:15:00     -310.417     -108.405       -3.473      144.859      152.608       75.917    20984.159    23289.342     5763.368        7.907        2.502      328.802       71.873        0.048      337.106        8.852      854.084
11/01/2014  13:16:00     -214.334      -41.445        6.430      210.718      161.337       85.179    44401.894    26029.626     7255.383        6.268        3.884      218.305       95.257        0.190      337.162        8.947      854.112
11/01/2014  13:17:00     -213.795      -77.752       12.094      164.219      142.191       74.813    26967.802    20218.277     5596.918        5.233        2.639      227.495       71.607        0.099      337.069        8.792      854.098
11/01/2014  13:18:00     -244.906      -15.832      -14.348      142.908       76.241       56.970    20422.600     5812.763     3245.632        4.495        1.474      245.417       73.787        0.090      337.165        8.952      854.078
11/01/2014  13:19:00     -345.898       -6.618      -23.916      171.953      145.123       64.922    29567.995    21060.726     4214.835        8.754        2.742      345.962       72.047        0.043      337.133        8.898      854.100
11/01/2014  13:20:00     -288.699       65.783      -26.064      138.633      119.772       57.160    19219.013    14345.392     3267.313        6.259        1.842      296.098       46.766        0.025      337.126        8.886      854.109
11/01/2014  13:21:00     -332.420      -86.244       -1.920      225.417      106.010       66.847    50812.717    11238.092     4468.507        9.222        3.326      343.426       91.347        0.071      337.154        8.935      854.104
11/01/2014  13:22:00     -358.137       -0.369       -9.948      173.653      117.064       77.337    30155.502    13703.974     5981.034        8.909        2.492      358.137       87.527        0.060      337.119        8.874      854.109
11/01/2014  13:23:00     -244.550      -47.136       -9.740      151.896      129.076       61.590    23072.423    16660.576     3793.269        5.282        2.176      249.051       51.711        0.043      337.273        9.132      854.139
11/01/2014  13:24:00     -152.284     -199.054        2.821      192.862      193.136       95.276    37195.678    37301.612     9077.544        7.318        4.179      250.625      111.835        0.199      337.214        9.034      854.128
11/01/2014  13:25:00     -412.680      -89.663      -17.943      230.022      185.070      114.016    52909.997    34251.070    12999.742       13.939        5.008      422.308      130.490        0.095      337.092        8.830      854.086
11/01/2014  13:26:00     -466.871      -82.154      -32.527      160.129      137.362       88.905    25641.234    18868.333     7904.057       13.908        2.621      474.044       83.528        0.031      337.023        8.713      854.104
11/01/2014  13:27:00     -294.158      -47.226        3.027      177.750      144.847       75.229    31595.010    20980.566     5659.460        7.349        2.912      297.924       81.565        0.075      337.162        8.948      854.094
11/01/2014  13:28:00     -350.384      -85.086      -14.553      167.924      141.415       74.751    28198.396    19998.148     5587.672        9.199        2.689      360.567       74.694        0.043      337.070        8.792      854.116
11/01/2014  13:29:00     -284.048      -77.513       -7.510      151.920      130.738       68.503    23079.712    17092.340     4692.677        6.580        2.243      294.435       84.144        0.082      337.208        9.025      854.108
11/01/2014  13:30:00     -448.710      -15.385      -31.332      129.737      197.343       64.522    16831.727    38944.391     4163.151       13.124        2.997      448.974       63.287        0.020      337.060        8.775      854.090
11/01/2014  13:31:00     -208.966      -56.599        8.890      148.347      106.250       58.262    22006.959    11288.971     3394.456        4.181        1.835      216.495       66.365        0.094      337.263        9.117      854.091
11/01/2014  13:32:00     -221.551      -73.096      -13.979      134.197      111.533       64.316    18008.769    12439.509     4136.601        4.460        1.729      233.298       59.183        0.064      337.257        9.106      854.100
11/01/2014  13:33:00     -346.172      -55.006      -17.957      239.576      121.617       76.581    57396.708    14790.704     5864.664       10.060        3.903      350.515      111.330        0.101      337.170        8.962      854.117
11/01/2014  13:34:00     -267.114      -46.144       -8.371      143.423       99.314       62.349    20570.247     9863.364     3887.392        5.393        1.716      271.070       53.481        0.039      337.161        8.946      854.136
11/01/2014  13:35:00     -217.648      -72.317        1.204      152.019      132.402       72.875    23109.840    17530.230     5310.832        4.927        2.298      229.347       76.456        0.111      337.157        8.940      854.146
11/01/2014  13:36:00     -258.730      -16.708       -4.542      189.339      121.490       80.860    35849.092    14759.934     6538.403        6.218        2.857      259.269       93.733        0.131      337.172        8.964      854.151
11/01/2014  13:37:00     -334.334       -2.367       -4.602      205.151      135.215       91.441    42086.904    18283.047     8361.544        9.026        3.437      334.342       96.866        0.084      337.136        8.904      854.147
11/01/2014  13:38:00     -424.933     -117.044      -23.847      199.825      160.929       87.638    39930.170    25898.029     7680.337       13.416        3.675      440.757       94.207        0.046      337.027        8.721      854.171
11/01/2014  13:39:00     -279.040     -155.068       -6.097      194.241      160.150       76.574    37729.433    25647.870     5863.596        8.558        3.462      319.232       96.720        0.092      337.075        8.802      854.169
11/01/2014  13:40:00     -323.208     -186.230       -2.661      164.985      133.270       81.305    27220.161    17760.762     6610.544        9.536        2.580      373.021       92.031        0.061      337.113        8.863      854.190
11/01/2014  13:41:00     -370.466     -143.942       -2.994      201.355      218.326       98.068    40544.002    47666.181     9617.378       12.788        4.891      397.447      103.987        0.068      337.023        8.714      854.182
11/01/2014  13:42:00     -442.661     -268.330      -23.265      292.441      141.816       94.577    85521.612    20111.919     8944.871       19.151        5.729      517.639      135.327        0.068      336.922        8.546      854.163
11/01/2014  13:43:00     -378.987     -307.115      -12.446      176.111      165.845       90.267    31015.209    27504.412     8148.043       15.237        3.333      487.802       91.481        0.035      336.973        8.629      854.165
11/01/2014  13:44:00     -270.953     -118.140       -7.107      171.602      106.486       63.260    29447.196    11339.289     4001.867        6.610        2.239      295.588       75.735        0.066      337.113        8.864      854.183
11/01/2014  13:45:00     -380.821      -77.236      -12.684      198.852      157.217       72.166    39542.156    24717.102     5207.995       11.030        3.473      388.575       73.935        0.036      337.060        8.775      854.187
11/01/2014  13:46:00     -379.833     -182.340       -4.320      268.315      210.238      113.194    71993.000    44200.007    12812.849       15.325        6.450      421.332      131.730        0.098      337.064        8.782      854.150
11/01/2014  13:47:00     -583.309     -183.495      -22.685      204.892      187.987       99.497    41980.847    35338.952     9899.737       23.081        4.361      611.490      101.496        0.028      337.070        8.794      854.159
11/01/2014  13:48:00     -463.274     -143.280      -18.091      183.392      122.506       90.521    33632.571    15007.834     8194.079       14.615        2.842      484.925       96.039        0.039      337.035        8.733      854.163
11/01/2014  13:49:00     -366.678     -187.885      -12.511      226.445      187.296       99.046    51277.475    35079.680     9810.044       13.302        4.808      412.011      110.615        0.072      337.164        8.949      854.163
11/01/2014  13:50:00     -423.672     -184.964      -29.243      184.776      168.557       92.360    34142.152    28411.314     8530.318       14.281        3.554      462.287       91.695        0.039      337.171        8.961      854.161
11/01/2014  13:51:00     -263.814     -125.229       -9.531      127.242      106.073       69.857    16190.495    11251.466     4879.995        5.884        1.616      292.027       61.871        0.045      337.216        9.037      854.189
11/01/2014  13:52:00     -260.175     -127.180       -2.934      140.840      100.302       68.285    19836.041    10060.565     4662.848        5.921        1.728      289.596       66.090        0.052      337.190        8.994      854.169
11/01/2014  13:53:00     -297.852     -176.277      -13.597      176.420      130.100       71.988    31124.024    16925.958     5182.228        8.659        2.662      346.106       74.663        0.047      337.152        8.929      854.160
11/01/2014  13:54:00     -213.842     -142.062       10.468      169.139      120.064       78.339    28608.015    14415.454     6137.034        5.758        2.458      256.729       86.999        0.115      337.151        8.930      854.167
11/01/2014  13:55:00     -289.945      -71.186       -1.849      120.510      100.685       60.878    14522.651    10137.419     3706.106        5.875        1.418      298.556       61.977        0.043      337.177        8.972      854.171
11/01/2014  13:56:00     -296.804     -143.246      -14.011      151.033      129.899       74.227    22810.943    16873.651     5509.576        7.699        2.260      329.563       69.606        0.045      337.130        8.893      854.153
11/01/2014  13:57:00     -476.360      -19.306      -18.732      228.239      200.310       83.945    52093.091    40124.230     7046.843       16.343        4.963      476.751      103.162        0.047      337.056        8.769      854.142
11/01/2014  13:58:00     -392.938      -83.764      -16.546      185.281      156.843       70.468    34329.183    24599.575     4965.808       11.278        3.195      401.767       75.951        0.036      337.060        8.775      854.139
11/01/2014  13:59:00     -495.043     -174.323       -3.742      180.242      134.561       76.479    32487.347    18106.738     5848.987       16.595        2.822      524.839       76.012        0.021      337.066        8.785      854.153
11/01/2014  14:00:00     -223.165      -93.832       -8.013      163.684      155.479       79.128    26792.297    24173.580     6261.215        5.794        2.861      242.089       89.571        0.137      337.219        9.042      854.165
11/01/2014  14:01:00     -323.720     -101.460      -14.256      187.698      167.287       85.330    35230.437    27984.932     7281.286        9.288        3.525      339.247       90.241        0.071      337.152        8.930      854.187
11/01/2014  14:02:00     -326.280     -114.981        2.907      180.992      127.865       79.146    32758.106    16349.360     6264.119        8.752        2.769      345.947       91.977        0.071      337.284        9.153      854.205
11/01/2014  14:03:00     -241.861      -49.704        9.898      178.388      125.548       74.842    31822.309    15762.363     5601.369        5.712        2.659      246.915       88.492        0.128      337.250        9.095      854.205
11/01/2014  14:04:00     -272.472      -49.288       -2.947       93.664      118.005       57.533     8772.979    13925.231     3310.017        5.134        1.300      276.894       45.021        0.026      337.258        9.107      854.200
11/01/2014  14:05:00     -389.626      -64.708      -19.207       97.970      137.574       56.591     9598.038    18926.526     3202.571        9.404        1.586      394.962       49.213        0.016      337.314        9.202      854.208
11/01/2014  14:06:00     -307.174      -95.051      -25.372      142.443      132.159       62.014    20290.010    17465.978     3845.764        7.281        2.080      321.544       59.747        0.035      337.350        9.261      854.191
11/01/2014  14:07:00     -231.428      -11.632       -4.453      147.801      119.534       53.642    21845.248    14288.385     2877.508        4.635        1.951      231.720       61.457        0.070      337.441        9.415      854.218
11/01/2014  14:08:00     -264.574      -90.987      -12.166      154.425      170.056       61.621    23847.027    28918.911     3797.189        6.748        2.828      279.782       68.476        0.060      337.463        9.451      854.198
11/01/2014  14:09:00     -341.704     -202.361       -6.478      193.628      132.632       59.747    37491.770    17591.244     3569.684       10.819        2.933      397.129       40.459        0.010      337.251        9.095      854.239
11/01/2014  14:10:00     -320.456      -35.298      -16.639      200.016      109.513       72.805    40006.530    11993.181     5300.607        8.075        2.865      322.394       87.862        0.074      337.397        9.341      854.237
11/01/2014  14:11:00     -322.593      -83.339       -5.129      231.928      185.746       99.347    53790.681    34501.487     9869.766       10.458        4.908      333.184      116.204        0.122      337.405        9.353      854.272
11/01/2014  14:12:00     -547.396     -147.595      -30.633      153.593      149.963       76.591    23590.869    22488.943     5866.200       18.714        2.597      566.945       72.096        0.016      337.109        8.858      854.289
11/01/2014  14:13:00     -245.246      -30.035        0.736      120.130      140.667       59.950    14431.160    19787.185     3593.964        4.942        1.891      247.078       50.838        0.042      337.315        9.204      854.311
11/01/2014  14:14:00     -158.754     -100.882       -2.757       95.301       95.969       49.157     9082.270     9210.020     2416.409        2.804        1.035      188.095       40.975        0.047      337.522        9.550      854.330
11/01/2014  14:15:00     -258.996      -39.849      -10.339      152.542      155.298       66.386    23269.067    24117.551     4407.151        6.027        2.590      262.044       75.996        0.084      337.566        9.621      854.295
11/01/2014  14:16:00     -243.042     -132.821       11.361      211.612      203.190       92.962    44779.628    41286.193     8641.878        8.575        4.735      276.968      116.267        0.176      337.569        9.628      854.320
11/01/2014  14:17:00     -403.813     -211.489       -2.552      192.926      133.651       82.039    37220.462    17862.682     6730.420       13.479        3.091      455.843       83.947        0.034      337.335        9.235      854.318
11/01/2014  14:18:00     -265.494     -123.582        1.493      146.404      135.096       64.378    21434.106    18250.904     4144.567        6.479        2.191      292.848       73.011        0.062      337.398        9.341      854.362
11/01/2014  14:19:00     -383.739     -127.292      -22.723      198.473      132.228       82.988    39391.644    17484.372     6887.067       11.386        3.188      404.300      104.598        0.067      337.340        9.244      854.368
11/01/2014  14:20:00     -556.480      -28.160      -50.984      234.154      155.813       92.329    54827.907    24277.594     8524.700       20.033        4.382      557.192      109.250        0.038      337.365        9.285      854.361
11/01/2014  14:21:00     -458.380     -203.051       -9.672      236.369      130.867       80.376    55870.122    17126.203     6460.363       16.543        3.973      501.340       92.301        0.034      337.339        9.244      854.363
11/01/2014  14:22:00     -380.383      -95.101      -16.477      162.177      134.512       78.799    26301.397    18093.474     6209.303       10.230        2.530      392.091       78.040        0.040      337.326        9.221      854.395
11/01/2014  14:23:00     -307.025     -102.081       -9.979      154.108      117.749       73.810    23749.370    13864.743     5447.979        7.391        2.153      323.551       84.815        0.069      337.434        9.402      854.445
11/01/2014  14:24:00     -334.279     -219.944      -22.843      171.253      131.925       89.909    29327.535    17404.186     8083.560       10.772        2.741      400.147       81.636        0.042      337.334        9.235      854.430
11/01/2014  14:25:00      -99.461      -87.506       25.532      111.879      100.464       64.114    12516.924    10093.017     4110.635        2.246        1.336      132.476       61.699        0.217      337.616        9.710      854.445
11/01/2014  14:26:00     -358.367      -41.251      -18.475      170.696      138.694       71.920    29137.282    19236.112     5172.479        9.200        2.677      360.733       73.415        0.041      337.390        9.329      854.420
11/01/2014  14:27:00     -227.031      -83.332        5.656      168.797      117.360       66.843    28492.446    13773.402     4467.929        5.262        2.337      241.842       78.997        0.107      337.527        9.559      854.417
11/01/2014  14:28:00     -236.428     -100.495        0.220      159.413      146.642       74.884    25412.643    21503.956     5607.585        5.925        2.626      256.900       81.002        0.099      337.600        9.680      854.451
11/01/2014  14:29:00     -455.141      -29.132      -32.555      218.631      123.684       87.232    47799.392    15297.800     7609.447       13.987        3.535      456.073      102.290        0.050      337.499        9.513      854.441
11/01/2014  14:30:00     -407.842     -152.180      -21.998      181.115      117.740       79.164    32802.812    13862.659     6266.886       12.144        2.647      435.309       84.811        0.038      337.417        9.373      854.471
11/01/2014  14:31:00     -278.020     -104.563       -4.673      139.083      136.041       75.962    19344.196    18507.265     5770.274        6.593        2.181      297.033       68.262        0.053      337.378        9.309      854.468
11/01/2014  14:32:00     -254.407      -76.988       -0.989      155.450      121.355       71.147    24164.631    14727.069     5061.923        5.729        2.198      265.801       82.915        0.097      337.436        9.407      854.488
11/01/2014  14:33:00     -502.845     -256.428      -26.052      224.628      153.724       96.768    50457.809    23631.116     9364.057       20.135        4.173      564.454      101.894        0.033      337.224        9.052      854.481
11/01/2014  14:34:00     -399.296     -278.610      -10.307      249.176      197.131      123.778    62088.507    38860.688    15321.037       17.670        5.814      486.889      136.794        0.079      337.189        8.993      854.492
11/01/2014  14:35:00     -413.405     -337.172        0.012      223.895      169.714      110.757    50128.850    28802.714    12267.111       18.788        4.560      533.469      112.799        0.045      337.228        9.058      854.481
11/01/2014  14:36:00     -417.412     -267.173      -17.518      242.089      169.311      102.959    58606.873    28666.286    10600.615       17.188        4.894      495.595      113.593        0.053      337.342        9.249      854.479
11/01/2014  14:37:00     -222.893     -136.533        3.577      167.755      127.566       81.648    28141.804    16273.161     6666.315        5.970        2.554      261.386       96.757        0.137      337.428        9.394      854.492
11/01/2014  14:38:00     -146.292      -72.734        4.060      153.076       94.618       66.566    23432.309     8952.638     4431.018        3.175        1.841      163.376       81.476        0.249      337.603        9.687      854.513
11/01/2014  14:39:00     -263.731      -61.014      -18.588      117.678      107.589       55.404    13848.036    11575.478     3069.564        5.105        1.425      270.697       52.010        0.037      337.600        9.680      854.505
11/01/2014  14:40:00     -275.696      -26.046       11.435      155.751       95.306       66.568    24258.281     9083.265     4431.349        5.729        1.889      276.924       64.382        0.054      337.524        9.554      854.511
11/01/2014  14:41:00     -277.551     -117.357        0.061      169.189      152.863       70.878    28624.970    23367.053     5023.698        7.390        2.851      301.342       84.188        0.078      337.576        9.640      854.506
11/01/2014  14:42:00     -276.131     -120.612       -8.355      170.118      186.187       82.512    28940.260    34665.491     6808.182        8.063        3.521      301.323       79.453        0.070      337.580        9.646      854.476
11/01/2014  14:43:00     -342.804     -252.683       -6.333      210.297      139.821       96.954    44224.767    19549.835     9400.164       12.727        3.659      425.868      102.988        0.058      337.497        9.508      854.493
11/01/2014  14:44:00     -180.324      -64.420       20.411      173.834      159.772       78.033    30218.112    25526.957     6089.171        4.945        3.092      191.485       87.621        0.209      337.597        9.677      854.506
11/01/2014  14:45:00     -188.723     -129.013        1.370      145.573      134.528       72.051    21191.552    18097.731     5191.288        4.836        2.224      228.606       77.901        0.116      337.610        9.699      854.533
11/01/2014  14:46:00     -259.740     -161.155       -1.137      179.116      123.293       80.132    32082.546    15201.271     6421.073        7.356        2.685      305.673       89.525        0.086      337.433        9.403      854.554
11/01/2014  14:47:00     -334.267     -180.953      -17.559      208.427      181.535       98.987    43441.937    32954.892     9798.399       11.547        4.310      380.103      107.694        0.080      337.252        9.099      854.561
11/01/2014  14:48:00     -471.043      -66.413      -42.280      158.074      109.595       84.585    24987.237    12011.112     7154.685       13.611        2.208      475.702       71.664        0.023      337.144        8.916      854.569
11/01/2014  14:49:00     -332.020      -24.176      -18.731      174.660      131.923       74.035    30506.275    17403.801     5481.189        8.227        2.670      332.899       78.413        0.055      337.206        9.021      854.557
11/01/2014  14:50:00     -264.629     -114.100       -5.688      145.639       98.236       54.053    21210.719     9650.279     2921.703        5.842        1.689      288.179       70.441        0.060      337.298        9.174      854.566
11/01/2014  14:51:00     -213.026     -101.148       -8.404      163.469      118.172       50.831    26722.078    13964.564     2583.835        4.947        2.164      235.820       67.105        0.081      337.458        9.445      854.594
11/01/2014  14:52:00     -123.334     -159.943       10.593      132.941      116.655       69.400    17673.419    13608.448     4816.330        3.849        1.805      201.973       65.818        0.106      337.566        9.623      854.602
11/01/2014  14:53:00     -295.258     -113.310      -10.719      137.043       91.872       51.882    18780.797     8440.462     2691.702        6.502        1.496      316.254       54.149        0.029      337.489        9.493      854.615
11/01/2014  14:54:00     -246.161     -136.756        9.941      154.450      113.022       67.892    23854.694    12773.980     4609.326        6.031        2.062      281.598       68.342        0.059      337.514        9.537      854.641
11/01/2014  14:55:00     -264.318     -111.810       -5.313      172.803      126.515       76.201    29860.746    16005.933     5806.568        6.702        2.584      286.994       86.327        0.090      337.461        9.447      854.629
11/01/2014  14:56:00     -148.308     -131.494      -10.444      150.598      107.395       68.416    22679.629    11533.656     4680.719        3.914        1.945      198.207       75.182        0.144      337.620        9.715      854.629
11/01/2014  14:57:00     -190.770       32.320        2.456      130.071      112.079       58.697    16918.446    12561.606     3445.332        3.518        1.646      193.488       51.497        0.071      337.649        9.764      854.611
11/01/2014  14:58:00     -333.643      -49.678       -1.684      166.042      130.050       61.436    27570.101    16912.926     3774.415        8.101        2.413      337.321       65.864        0.038      337.510        9.531      854.595
11/01/2014  14:59:00     -412.872      -37.247      -18.169      189.705      151.132       77.403    35987.932    22840.826     5991.155       11.849        3.241      414.549       87.130        0.044      337.484        9.486      854.564
11/01/2014  15:00:00     -264.777     -143.576       12.883      159.310       96.700       65.956    25379.778     9350.959     4350.160        6.498        1.954      301.199       82.074        0.074      337.641        9.749      854.588
11/01/2014  15:01:00     -318.064      -34.354       -6.406      165.361       97.214       66.447    27344.148     9450.499     4415.250        7.179        2.060      319.914       71.664        0.050      337.490        9.497      854.595
11/01/2014  15:02:00     -377.545      -30.257      -21.247      207.646      139.850       75.390    43116.970    19557.889     5683.724       10.612        3.418      378.755       90.908        0.058      337.486        9.489      854.580
11/01/2014  15:03:00     -574.026     -190.255      -14.549      206.011      178.583       89.852    42440.559    31891.820     8073.435       22.414        4.120      604.733       93.296        0.024      337.309        9.191      854.603
11/01/2014  15:04:00     -451.523     -135.039      -11.788      221.644      152.768       88.661    49126.014    23338.025     7860.763       15.127        4.016      471.284       97.560        0.043      337.277        9.140      854.612
11/01/2014  15:05:00     -505.920     -144.524      -27.556      146.448      125.930       69.364    21447.083    15858.371     4811.397       15.985        2.106      526.158       71.143        0.018      337.212        9.030      854.640
11/01/2014  15:06:00     -281.264     -173.977       -8.742      144.029      110.142       63.694    20744.249    12131.351     4056.970        7.319        1.847      330.723       60.652        0.034      337.461        9.448      854.633
11/01/2014  15:07:00     -485.900     -242.209      -26.679      246.804      169.771       92.096    60912.371    28822.122     8481.718       19.683        4.911      542.922      100.782        0.034      337.383        9.317      854.670
11/01/2014  15:08:00     -363.356     -247.911      -24.822      252.667      195.244      107.110    63840.587    38120.391    11472.511       15.375        5.672      439.872      132.075        0.090      337.375        9.303      854.691
11/01/2014  15:09:00     -506.908      -84.808      -26.917      238.530      151.759       88.105    56896.353    23030.916     7762.519       17.626        4.384      513.954       74.181        0.021      337.390        9.329      854.692
11/01/2014  15:10:00     -386.056       -5.695       -9.299      193.891      168.822       79.351    37593.692    28500.862     6296.574       11.076        3.620      386.098       92.709        0.058      337.484        9.487      854.710
11/01/2014  15:11:00     -231.690     -135.857        8.197      157.107      150.325       65.762    24682.650    22597.603     4324.610        6.189        2.580      268.584       70.401        0.069      337.509        9.529      854.739
11/01/2014  15:12:00     -390.965     -258.940       -4.371      254.400      175.837      104.428    64719.171    30918.781    10905.236       16.321        5.327      468.938      109.079        0.054      337.332        9.232      854.746
11/01/2014  15:13:00     -583.020     -229.424      -18.479      204.239      160.457      101.667    41713.483    25746.574    10336.101       23.533        3.890      626.536      100.023        0.025      337.262        9.114      854.760
11/01/2014  15:14:00     -408.631     -239.685      -13.528      231.070      169.147      100.413    53393.485    28610.716    10082.800       15.833        4.604      473.739      114.194        0.058      337.320        9.211      854.785
11/01/2014  15:15:00     -242.321     -144.920        3.710      197.070      179.214       81.891    38836.474    32117.488     6706.144        7.868        3.883      282.349       93.929        0.111      337.408        9.360      854.829
11/01/2014  15:16:00     -490.797     -273.147       -9.054      230.989      128.733       86.536    53355.960    16572.289     7488.504       19.648        3.871      561.686       89.234        0.025      337.257        9.106      854.841
11/01/2014  15:17:00     -331.916     -213.955       -6.634      202.309      165.821       90.805    40928.899    27496.725     8245.505       11.631        3.834      394.899       98.827        0.063      337.232        9.065      854.844
11/01/2014  15:18:00     -424.764     -185.219        4.040      207.345      155.878       97.255    42991.876    24297.811     9458.440       14.573        3.837      463.391       99.998        0.047      337.238        9.074      854.870
11/01/2014  15:19:00     -401.619     -206.394      -18.281      244.948      157.295       99.935    59999.483    24741.645     9986.939       14.946        4.736      451.549      115.426        0.065      337.243        9.083      854.887
11/01/2014  15:20:00     -294.218     -147.356      -19.435      149.464      137.970       81.085    22339.438    19035.647     6574.718        7.829        2.397      329.057       78.609        0.057      337.214        9.035      854.885
11/01/2014  15:21:00     -219.612     -174.310        2.387      177.252      134.224       75.775    31418.447    18016.047     5741.781        6.689        2.759      280.381       75.516        0.073      337.236        9.071      854.889
11/01/2014  15:22:00     -327.909     -207.124       -3.603      175.625      125.827       89.204    30844.115    15832.451     7957.436       10.252        2.732      387.846      101.163        0.068      337.206        9.020      854.891
11/01/2014  15:23:00     -250.623     -130.105        9.609      213.757      151.197       66.326    45691.842    22860.537     4399.081        7.638        3.648      282.381       98.761        0.122      337.278        9.142      854.880
11/01/2014  15:24:00     -284.019      -24.647      -10.631      154.753      118.306       69.796    23948.346    13996.376     4871.468        6.209        2.141      285.086       75.495        0.070      337.333        9.234      854.907
11/01/2014  15:25:00     -287.609      -87.029       -2.558      218.517       88.673       55.694    47749.560     7862.943     3101.774        7.450        2.936      300.488       75.770        0.064      337.329        9.227      854.926
11/01/2014  15:26:00     -245.060     -179.143        6.756      248.981      194.154       88.463    61991.635    37695.766     7825.662        9.983        5.376      303.557      118.778        0.153      337.278        9.143      854.915
11/01/2014  15:27:00     -285.816     -198.439       -4.768      148.668      150.623       74.312    22102.142    22687.416     5522.326        8.569        2.516      347.949       73.453        0.045      337.220        9.044      854.912
11/01/2014  15:28:00     -230.453      -27.703       -7.875      115.791      129.227       64.820    13407.569    16699.728     4201.594        4.412        1.715      232.112       60.099        0.067      337.322        9.214      854.899
11/01/2014  15:29:00     -220.643      -77.530       -6.649      132.805       98.281       56.174    17637.120     9659.204     3155.474        4.259        1.523      233.868       58.555        0.063      337.366        9.288      854.907
11/01/2014  15:30:00     -426.844      -25.458      -13.981      153.182      136.039       68.052    23464.798    18506.677     4631.100       11.481        2.330      427.602       71.813        0.028      337.295        9.168      854.913
11/01/2014  15:31:00     -213.621     -158.448        5.343      160.648      146.584       76.715    25807.698    21486.862     5885.174        6.196        2.659      265.969       83.146        0.098      337.326        9.222      854.943
11/01/2014  15:32:00     -464.701     -188.345      -27.672      169.347      164.679       79.105    28678.285    27119.119     6257.625       15.711        3.103      501.418       70.809        0.020      337.206        9.020      854.951
11/01/2014  15:33:00     -436.630     -205.882      -13.412      173.179      125.750       74.334    29991.052    15813.131     5525.614       14.226        2.566      482.735       70.316        0.021      337.248        9.091      854.976
11/01/2014  15:34:00     -382.135     -149.871       -8.985      145.248      120.039       68.901    21097.046    14409.362     4747.281       10.440        2.013      410.473       72.201        0.031      337.263        9.118      854.980
11/01/2014  15:35:00     -263.544      -98.731       -0.081      140.155      126.001       75.803    19643.446    15876.197     5746.157        6.023        2.063      281.431       74.755        0.071      337.381        9.315      854.994
11/01/2014  15:36:00     -433.078     -222.333      -22.237      168.981      127.959       73.850    28554.624    16373.602     5453.827       14.392        2.519      486.815       83.331        0.029      337.284        9.151      854.979
11/01/2014  15:37:00     -264.918     -203.117       -7.351      131.307      105.833       73.393    17241.586    11200.594     5386.576        7.265        1.691      333.823       71.801        0.046      337.362        9.281      854.978
11/01/2014  15:38:00     -253.191      -16.383       -5.659      147.199      152.830       70.749    21667.453    23356.941     5005.489        5.721        2.501      253.721       62.346        0.060      337.492        9.500      854.950
11/01/2014  15:39:00     -458.192      -86.694      -15.518      214.288      137.632       84.577    45919.189    18942.546     7153.253       14.484        3.601      466.321       97.254        0.043      337.437        9.406      854.974
11/01/2014  15:40:00     -261.875     -156.785       11.119      198.349      165.186      109.114    39342.183    27286.294    11905.872        8.589        3.927      305.221      120.500        0.156      337.276        9.138      854.990
11/01/2014  15:41:00     -210.661     -118.277        3.154      141.519      131.072       66.349    20027.550    17179.845     4402.174        4.999        2.080      241.594       76.960        0.101      337.376        9.305      855.003
11/01/2014  15:42:00     -326.599     -247.744       -9.686      192.460      150.664       89.739    37041.013    22699.686     8053.114       11.795        3.390      409.932      106.619        0.068      337.310        9.196      855.027
11/01/2014  15:43:00     -302.094     -211.752       12.805      213.070      145.928      108.047    45398.863    21294.949    11674.094       10.730        3.918      368.917      113.819        0.095      337.285        9.154      855.055
11/01/2014  15:44:00     -235.020     -251.408        8.032      166.418      162.711       71.938    27695.100    26474.875     5175.082        8.891        2.967      344.152       87.996        0.065      337.230        9.062      855.050
11/01/2014  15:45:00     -330.415     -150.932       -1.989      180.357      132.069       80.028    32528.627    17442.107     6404.456        9.416        2.819      363.255       95.851        0.070      337.268        9.123      855.082
11/01/2014  15:46:00     -251.190      -89.029        1.235      160.435      133.746       75.963    25739.511    17888.116     5770.357        6.020        2.470      266.500       85.824        0.104      337.266        9.122      855.055
11/01/2014  15:47:00     -343.214      -32.991       -8.222      171.129      108.779       64.003    29285.257    11832.870     4096.344        8.207        2.261      344.795       66.703        0.037      337.223        9.052      855.065
11/01/2014  15:48:00     -406.705     -247.326       -4.506      207.634      163.102       96.737    43112.082    26602.394     9358.021       15.282        3.954      476.004      107.071        0.051      337.186        8.988      855.064
11/01/2014  15:49:00     -263.594      -65.783       -8.925      170.145      109.886       74.739    28949.189    12074.926     5585.961        6.024        2.331      271.679       74.750        0.076      337.271        9.130      855.086
11/01/2014  15:50:00     -290.267     -138.223      -12.864      149.879      156.227       71.401    22463.727    24406.992     5098.142        7.774        2.598      321.498       78.208        0.059      337.115        8.870      855.092
11/01/2014  15:51:00     -257.096     -192.575      -13.954      163.546      129.473       75.611    26747.219    16763.287     5716.950        7.629        2.461      321.222       76.414        0.057      337.167        8.955      855.070
11/01/2014  15:52:00     -373.366     -244.409      -22.971      171.971      173.051       73.383    29574.034    29946.514     5385.125       13.227        3.245      446.249       73.712        0.027      337.205        9.020      855.065
11/01/2014  15:53:00     -303.974     -222.754        2.087      166.827      142.282       79.502    27831.104    20244.176     6320.568        9.820        2.720      376.855       85.982        0.052      337.262        9.114      855.086
11/01/2014  15:54:00     -249.424     -162.392       -6.471      167.524      123.386       69.958    28064.206    15224.206     4894.143        6.839        2.409      297.630       77.872        0.068      337.224        9.051      855.097
11/01/2014  15:55:00     -259.094      -47.979      -12.820      120.201       94.912       61.141    14448.235     9008.266     3738.201        4.839        1.360      263.499       62.853        0.057      337.303        9.183      855.108
11/01/2014  15:56:00     -160.099     -134.444        1.133      187.841      152.821       89.783    35284.162    23354.180     8060.999        5.519        3.335      209.062       95.584        0.209      337.349        9.261      855.106
11/01/2014  15:57:00     -463.089     -104.732      -38.173      214.650      165.966       89.595    46074.667    27544.815     8027.323       15.425        4.082      474.784      103.974        0.048      337.210        9.028      855.129
11/01/2014  15:58:00     -306.361     -122.806       -4.849      150.180      110.891       69.552    22553.922    12296.840     4837.432        7.432        1.984      330.058       72.424        0.048      337.294        9.168      855.156
11/01/2014  15:59:00     -146.959     -135.198       11.630      146.861      110.315       66.153    21568.243    12169.372     4376.161        3.905        1.906      199.689       70.459        0.124      337.344        9.252      855.191
11/01/2014  16:00:00     -230.693     -160.245        7.415      126.552      131.631       66.604    16015.307    17326.615     4436.076        5.836        1.889      280.887       63.485        0.051      337.250        9.094      855.222
11/01/2014  16:01:00     -154.278      -77.073       14.345      100.249      109.305       54.913    10049.898    11947.653     3015.438        2.748        1.251      172.458       54.749        0.101      337.314        9.204      855.227
11/01/2014  16:02:00     -268.953     -137.668       -5.430      109.341      107.040       54.890    11955.496    11457.470     3012.888        5.887        1.321      302.140       60.100        0.040      337.292        9.164      855.253
11/01/2014  16:03:00     -266.762     -126.484       -1.063      184.035      159.682       82.201    33869.023    25498.467     6757.051        7.663        3.306      295.229      103.750        0.123      337.270        9.131      855.281
11/01/2014  16:04:00     -259.030      -85.267      -18.540      160.906      105.098       66.756    25890.645    11045.649     4456.425        5.804        2.070      272.704       74.358        0.074      337.258        9.109      855.291
11/01/2014  16:05:00     -356.663     -210.693      -20.586      221.158      123.495       86.961    48910.786    15250.996     7562.129       12.186        3.586      414.247       87.378        0.044      337.204        9.018      855.313
11/01/2014  16:06:00     -222.526      -94.574       15.354      145.781       96.020       65.241    21252.221     9219.817     4256.330        4.671        1.736      241.790       76.992        0.101      337.264        9.120      855.334
11/01/2014  16:07:00     -247.572      -91.099      -13.247      134.176       95.976       72.105    18003.268     9211.311     5199.126        5.108        1.621      263.801       75.553        0.082      337.272        9.132      855.368
11/01/2014  16:08:00     -197.651     -133.292        2.003      134.191       94.369       67.272    18007.155     8905.416     4525.539        4.413        1.572      238.396       64.874        0.074      337.283        9.150      855.379
11/01/2014  16:09:00     -344.044     -155.146       -7.180      160.546      162.834       69.727    25774.933    26514.864     4861.914        9.981        2.858      377.408       78.171        0.043      337.196        9.004      855.370
11/01/2014  16:10:00     -426.069     -111.862      -33.350      219.018      167.413       80.006    47968.860    28027.156     6400.904       13.876        4.120      440.509       92.819        0.044      337.188        8.990      855.383
11/01/2014  16:11:00     -351.776      -72.738       -6.347      193.690      141.800       87.946    37515.866    20107.189     7734.445        9.720        3.268      359.217      100.984        0.079      337.168        8.957      855.402
11/01/2014  16:12:00     -390.373     -137.161      -13.266      192.823      168.697       75.551    37180.899    28458.623     5707.986       12.135        3.567      413.769       86.845        0.044      337.113        8.863      855.428
11/01/2014  16:13:00     -150.400      -58.489       19.799      166.509      122.102       68.460    27725.286    14908.828     4686.817        3.687        2.366      161.372       91.195        0.319      337.266        9.122      855.447
11/01/2014  16:14:00     -142.694      -56.063       -2.257      119.612      113.580       60.414    14306.956    12900.396     3649.803        2.718        1.543      153.313       55.646        0.132      337.262        9.115      855.463
11/01/2014  16:15:00     -197.333     -220.264        2.770      165.449      145.940       89.656    27373.290    21298.527     8038.255        7.208        2.836      295.730       88.747        0.090      337.187        8.990      855.484
11/01/2014  16:16:00     -198.680      -58.875       19.367      115.807      123.075       70.195    13411.300    15147.532     4927.297        3.839        1.674      207.220       58.672        0.080      337.201        9.013      855.497
11/01/2014  16:17:00     -218.977     -174.004        2.790      156.837      144.838       71.287    24597.733    20978.180     5081.785        6.444        2.533      279.693       80.015        0.082      337.202        9.015      855.505
11/01/2014  16:18:00     -336.957     -156.607      -19.160      137.914      119.356       71.306    19020.143    14245.819     5084.495        8.838        1.918      371.572       76.187        0.042      337.179        8.976      855.521
11/01/2014  16:19:00     -246.655      -49.442       -5.556      190.257      116.936       77.588    36197.630    13673.982     6019.914        5.959        2.795      251.561       89.667        0.127      337.194        9.002      855.523
11/01/2014  16:20:00     -490.056      -68.223      -21.616      189.918      156.047       78.015    36068.720    24350.668     6086.299       15.588        3.325      494.782       79.687        0.026      337.121        8.877      855.525
11/01/2014  16:21:00     -292.120     -217.344        0.378      243.257      170.259       93.650    59174.085    28988.205     8770.396       11.473        4.847      364.105      104.827        0.083      337.129        8.892      855.565
11/01/2014  16:22:00     -385.766     -264.887      -13.665      180.718      140.498       80.987    32658.944    19739.620     6558.818       13.905        2.948      467.954       92.965        0.039      337.129        8.893      855.570
11/01/2014  16:23:00     -237.077     -170.889        9.214      191.465      141.778       91.614    36658.837    20100.904     8393.042        7.531        3.258      292.247      114.877        0.155      337.197        9.007      855.613
11/01/2014  16:24:00     -277.097     -142.099       -3.938      196.321      132.806       73.194    38542.088    17637.469     5357.411        7.925        3.077      311.408       85.793        0.076      337.152        8.929      855.641
11/01/2014  16:25:00     -210.251     -123.942      -12.450      147.029      149.034       78.585    21617.412    22211.032     6175.576        5.485        2.500      244.063       69.761        0.082      337.147        8.923      855.636
11/01/2014  16:26:00     -271.193     -187.145        1.735      200.863      193.758       89.148    40345.927    37542.281     7947.310        9.719        4.292      329.498      104.587        0.101      337.118        8.874      855.660
11/01/2014  16:27:00     -311.565     -102.809      -22.971      241.670      160.447       80.694    58404.616    25743.093     6511.458        9.940        4.533      328.089      106.947        0.106      337.118        8.872      855.673
11/01/2014  16:28:00     -510.274     -100.633      -22.473      204.383      165.128       97.855    41772.480    27267.274     9575.661       17.480        3.931      520.103       98.709        0.036      337.047        8.754      855.681
11/01/2014  16:29:00     -559.294     -226.705      -46.542      186.818      194.590       93.873    34901.088    37865.370     8812.051       22.396        4.079      603.494       81.002        0.018      337.059        8.774      855.678
11/01/2014  16:30:00     -368.434     -143.023       -5.139      137.215      143.330       71.314    18827.914    20543.615     5085.659       10.033        2.223      395.220       71.250        0.033      337.090        8.825      855.695
11/01/2014  16:31:00     -238.399     -161.962        5.498      168.233      183.771       98.713    28302.496    33771.747     9744.216        7.744        3.591      288.211       97.334        0.114      337.104        8.851      855.695
11/01/2014  16:32:00     -362.288      -72.559       -3.943      258.050      175.479      115.944    66589.904    30792.803    13443.014       12.366        5.541      369.483      144.951        0.154      337.111        8.861      855.687
11/01/2014  16:33:00     -365.570     -179.779      -24.022      169.303      143.138       73.799    28663.650    20488.429     5446.268       11.056        2.730      407.385       77.891        0.037      337.096        8.835      855.718
11/01/2014  16:34:00     -288.442     -179.517       -9.452      171.994      138.215       72.638    29582.078    19103.471     5276.341        8.473        2.698      339.743       63.578        0.035      337.077        8.804      855.719
11/01/2014  16:35:00     -295.862     -205.107       -3.066      154.948      116.496       82.625    24008.853    13571.402     6826.871        8.700        2.220      360.004       79.327        0.049      337.085        8.818      855.738
11/01/2014  16:36:00     -369.157     -236.113       -9.626      164.980      114.818       82.982    27218.361    13183.106     6886.018       11.969        2.364      438.208       96.180        0.048      337.023        8.714      855.776
11/01/2014  16:37:00     -352.612     -215.998       -9.224      202.089      134.697       80.027    40840.004    18143.254     6404.260       11.822        3.269      413.509      104.185        0.063      337.005        8.682      855.766
11/01/2014  16:38:00     -275.687     -217.644        3.694      157.244      132.502       84.466    24725.818    17556.774     7134.544        8.639        2.471      351.244       80.226        0.052      336.998        8.672      855.779
11/01/2014  16:39:00     -301.783     -255.518      -14.665      127.180      114.833       71.176    16174.770    13186.541     5066.008        9.550        1.721      395.426       79.652        0.041      337.008        8.689      855.802
11/01/2014  16:40:00     -229.786     -144.721       -0.412      150.053      129.074       59.219    22515.892    16660.192     3506.848        5.821        2.134      271.561       75.246        0.077      337.052        8.761      855.811
11/01/2014  16:41:00     -248.488     -117.323      -20.133      128.360      111.712       57.813    16476.262    12479.532     3342.388        5.410        1.615      274.793       59.706        0.047      337.029        8.724      855.822
11/01/2014  16:42:00     -195.119     -169.437        3.167      150.401      114.293       69.937    22620.353    13062.900     4891.123        5.367        2.029      258.419       78.986        0.093      337.110        8.859      855.820
11/01/2014  16:43:00     -420.880     -259.502      -12.838      179.646      152.784       93.305    32272.715    23342.931     8705.821       15.447        3.216      494.451       94.101        0.036      337.034        8.733      855.804
11/01/2014  16:44:00     -304.532     -234.064      -17.261      199.562      143.255       87.358    39825.108    20521.919     7631.448       10.789        3.399      384.090       98.674        0.066      337.083        8.816      855.816
11/01/2014  16:45:00     -348.810     -227.655      -12.293      198.929      148.504       82.283    39572.787    22053.504     6770.472       12.101        3.420      416.528       90.948        0.048      337.049        8.756      855.810
11/01/2014  16:46:00     -390.370     -203.936      -10.240      240.337      151.826       89.573    57761.986    23051.165     8023.296       14.144        4.442      440.430      101.612        0.053      337.036        8.736      855.822
11/01/2014  16:47:00     -192.947     -151.045       -0.170      143.128      165.884       84.935    20485.637    27517.610     7213.876        5.762        2.761      245.037       95.919        0.153      337.092        8.830      855.813
11/01/2014  16:48:00     -317.798     -249.767       11.333      248.045      169.756       99.491    61526.158    28816.967     9898.512       13.185        5.012      404.202      114.572        0.080      337.021        8.712      855.809
11/01/2014  16:49:00     -405.599     -256.651       -7.611      213.370      163.987       88.362    45526.917    26891.762     7807.911       15.532        4.011      479.980       90.759        0.036      336.954        8.598      855.814
11/01/2014  16:50:00     -344.872     -218.699       10.134      178.365      140.527       78.323    31814.182    19747.976     6134.512       11.227        2.885      408.370       86.115        0.044      336.988        8.654      855.827
11/01/2014  16:51:00     -333.028     -144.623        7.155      202.100      198.145       89.207    40844.382    39261.433     7957.962       10.995        4.403      363.075      102.794        0.080      336.989        8.655      855.860
11/01/2014  16:52:00     -263.953      -54.962       -2.826      148.707      127.815       61.204    22113.882    16336.661     3745.883        5.744        2.110      269.615       66.737        0.061      336.994        8.665      855.891
11/01/2014  16:53:00     -382.990     -148.089      -23.664      133.416      139.403       67.022    17799.764    19433.070     4491.991       10.544        2.086      410.624       62.199        0.023      336.980        8.641      855.921
11/01/2014  16:54:00     -263.330      -62.426       12.196      149.473      110.352       85.854    22342.056    12177.627     7370.828        5.763        2.095      270.628       95.652        0.125      336.976        8.636      855.946
11/01/2014  16:55:00     -357.949     -169.836      -12.675      177.271      124.923       79.931    31425.069    15605.655     6388.957       10.527        2.671      396.197       88.083        0.049      336.978        8.638      855.969
11/01/2014  16:56:00     -303.786     -195.969       -1.890      133.154      131.481       79.747    17730.077    17287.234     6359.543        8.603        2.069      361.510       76.533        0.045      336.976        8.635      855.956
11/01/2014  16:57:00     -383.719     -207.735       -0.713      171.180      151.104       75.772    29302.734    22832.347     5741.354       12.412        2.894      436.342       88.445        0.041      336.956        8.602      855.946
11/01/2014  16:58:00     -423.837     -210.285      -19.823      157.722      106.641       70.968    24876.365    11372.212     5036.482       13.276        2.064      473.136       71.418        0.023      336.940        8.574      855.940
11/01/2014  16:59:00     -227.726     -158.489       -7.392      128.244       77.873       53.242    16446.422     6064.200     2834.702        5.118        1.267      277.449       51.672        0.035      337.001        8.676      855.959
11/01/2014  17:00:00     -286.317     -104.872      -12.466       97.981       67.572       50.941     9600.217     4566.018     2595.004        5.494        0.838      304.919       46.004        0.023      337.014        8.699      855.967
11/01/2014  17:01:00     -126.998     -117.767        6.086      101.534       60.723       44.923    10309.231     3687.287     2018.048        2.302        0.801      173.198       53.676        0.096      337.062        8.780      855.989
11/01/2014  17:02:00     -101.878     -105.980       15.270      113.812       88.412       68.130    12953.071     7816.727     4641.680        2.362        1.271      147.007       74.898        0.260      337.064        8.782      856.006
11/01/2014  17:03:00     -250.202      -32.077       -6.100      115.759      105.125       61.970    13400.058    11051.323     3840.272        4.597        1.415      252.250       58.275        0.053      337.007        8.686      856.022
11/01/2014  17:04:00     -390.526     -117.727      -27.642      141.055      157.513       63.824    19896.380    24810.332     4073.444       10.795        2.439      407.885       62.768        0.024      336.943        8.578      856.024
11/01/2014  17:05:00     -295.810     -144.791        2.352      156.692      111.268       64.008    24552.305    12380.614     4097.053        7.474        2.051      329.344       58.303        0.031      336.960        8.609      856.015
11/01/2014  17:06:00     -225.530     -137.587        2.994      159.801      123.529       81.828    25536.244    15259.368     6695.752        5.864        2.375      264.185       78.694        0.089      336.967        8.622      856.031
11/01/2014  17:07:00     -265.194     -149.913        4.976      184.803      106.659       68.858    34152.316    11376.198     4741.397        7.154        2.513      304.634       74.399        0.060      336.944        8.582      856.040
11/01/2014  17:08:00     -355.242     -191.779       -9.998      190.242      148.759       84.355    36192.191    22129.111     7115.804       11.424        3.272      403.703       89.489        0.049      336.911        8.526      856.060
11/01/2014  17:09:00     -309.459     -188.081       -5.358      170.981      157.773       75.319    29234.349    24892.232     5672.887        9.547        2.990      362.132       84.390        0.054      336.894        8.499      856.070
11/01/2014  17:10:00     -267.119     -171.164        2.579      145.565      112.828       58.288    21189.054    12730.241     3397.444        6.898        1.866      317.253       52.687        0.028      336.890        8.491      856.089
11/01/2014  17:11:00     -434.188     -258.641       -7.142      137.530      112.872       74.624    18914.390    12739.977     5568.790       14.634        1.861      505.385       71.047        0.020      336.831        8.392      856.108
11/01/2014  17:12:00     -295.522     -177.160       -2.631      208.370      134.418      102.460    43418.049    18068.129    10497.979        9.534        3.599      344.556      105.108        0.093      336.853        8.430      856.092
11/01/2014  17:13:00     -126.103      -87.231       13.128      151.312      102.006       63.956    22895.305    10405.290     4090.409        3.053        1.870      153.334       80.723        0.277      336.878        8.472      856.125
11/01/2014  17:14:00     -170.790     -156.493        7.844      142.238      125.986       80.432    20231.573    15872.367     6469.304        4.814        2.129      231.645       83.683        0.131      336.853        8.432      856.127
11/01/2014  17:15:00     -181.028      -82.335        6.315      143.596       94.962       61.722    20619.710     9017.698     3809.578        3.651        1.672      198.873       75.463        0.144      336.858        8.439      856.140
11/01/2014  17:16:00     -264.869     -104.298        0.023      130.636      114.594       68.502    17065.687    13131.891     4692.505        5.795        1.745      284.664       68.997        0.059      336.832        8.394      856.152
11/01/2014  17:17:00     -192.905      -91.783        6.528       92.840      108.452       63.063     8619.188    11761.907     3976.986        3.501        1.218      213.627       59.416        0.077      336.835        8.399      856.173
11/01/2014  17:18:00     -238.628     -193.123      -14.590      184.708      118.122       68.126    34116.943    13952.877     4641.183        7.357        2.636      306.985       68.662        0.050      336.859        8.440      856.171
11/01/2014  17:19:00     -413.443     -135.520       -8.248      167.507      146.736       86.542    28058.597    21531.330     7489.570       12.321        2.854      435.087       87.487        0.040      336.813        8.364      856.161
11/01/2014  17:20:00     -283.034     -113.430       -2.023      108.714      105.593       61.516    11818.778    11149.829     3784.242        5.986        1.338      304.917       54.992        0.033      336.831        8.393      856.188
11/01/2014  17:21:00     -300.615     -119.861      -10.129      125.222       67.005       50.739    15680.487     4489.730     2574.477        6.379        1.137      323.630       47.516        0.022      336.816        8.369      856.196
11/01/2014  17:22:00     -212.207     -141.728        4.741      118.093      113.617       65.861    13946.067    12908.746     4337.713        4.816        1.560      255.184       70.928        0.077      336.810        8.357      856.204
11/01/2014  17:23:00     -229.637      -26.904       -4.538      137.570      111.624       64.114    18925.519    12459.902     4110.609        4.448        1.775      231.208       73.632        0.101      336.766        8.286      856.215
11/01/2014  17:24:00     -273.749      -58.360      -12.291      134.030      114.699       63.020    17964.106    13155.756     3971.550        5.679        1.755      279.901       62.961        0.051      336.732        8.229      856.244
11/01/2014  17:25:00     -272.403      -64.779       -0.707      146.372      116.210       72.008    21424.860    13504.673     5185.142        5.925        2.006      279.999       76.899        0.075      336.682        8.146      856.276
11/01/2014  17:26:00     -267.369      -43.731      -14.119      144.957      102.504       68.640    21012.631    10506.982     4711.509        5.491        1.812      270.922       69.500        0.066      336.675        8.135      856.293
11/01/2014  17:27:00     -300.529      -50.965      -23.015      125.458      109.586       60.707    15739.593    12009.140     3685.361        6.243        1.572      304.820       59.270        0.038      336.673        8.130      856.300
11/01/2014  17:28:00     -252.109      -56.600       -5.592      148.561      103.995       54.129    22070.508    10814.899     2929.926        5.130        1.791      258.385       61.713        0.057      336.697        8.173      856.310
11/01/2014  17:29:00     -272.323     -147.303      -11.162      126.885      129.276       67.953    16099.809    16712.315     4617.608        6.670        1.871      309.609       72.926        0.055      336.716        8.202      856.315
11/01/2014  17:30:00     -259.554     -108.281      -12.211      132.806      102.731       61.604    17637.557    10553.585     3795.056        5.561        1.599      281.235       60.872        0.047      336.741        8.243      856.331
11/01/2014  17:31:00     -234.619      -67.419      -17.594      113.519       81.071       54.458    12886.567     6572.565     2965.676        4.116        1.121      244.114       48.213        0.039      336.756        8.270      856.355
11/01/2014  17:32:00     -212.890      -81.779       10.350      134.855       91.218       55.887    18185.755     8320.762     3123.338        4.087        1.481      228.057       65.515        0.083      336.730        8.226      856.365
11/01/2014  17:33:00     -178.779      -18.251       -6.966       77.176       69.125       37.160     5956.082     4778.283     1380.865        2.223        0.606      179.709       37.073        0.043      336.740        8.244      856.386
11/01/2014  17:34:00     -130.977      -13.903       -4.487       78.904       66.910       39.656     6225.814     4476.959     1572.564        1.482        0.614      131.713       44.013        0.112      336.760        8.277      856.401
11/01/2014  17:35:00     -124.022      -61.443        5.208       92.358       57.615       42.129     8529.963     3319.495     1774.876        1.640        0.681      138.407       37.533        0.074      336.772        8.298      856.408
11/01/2014  17:36:00     -205.833      -91.247       -6.629      108.266       83.341       44.039    11721.513     6945.740     1939.472        3.567        1.030      225.152       35.921        0.025      336.771        8.294      856.403
11/01/2014  17:37:00     -179.952      -56.909      -11.885      116.261       59.027       36.722    13516.541     3484.206     1348.527        2.705        0.917      188.736       51.310        0.074      336.778        8.306      856.408
11/01/2014  17:38:00     -210.528     -110.601       -2.733       92.691       92.814       54.368     8591.603     8614.414     2955.828        3.836        1.008      237.813       49.368        0.043      336.765        8.283      856.417
11/01/2014  17:39:00      -51.685      -51.752       13.739      117.678       86.127       47.636    13848.227     7417.879     2269.222        1.453        1.177       73.141       43.437        0.353      336.833        8.400      856.409
11/01/2014  17:40:00     -283.081      -58.087       -2.952      120.014       78.800       47.405    14403.274     6209.518     2247.242        5.318        1.143      288.979       48.247        0.028      336.742        8.245      856.414
11/01/2014  17:41:00     -207.113      -62.385        3.755       90.220       51.166       42.803     8139.719     2617.972     1832.055        2.969        0.629      216.305       48.866        0.051      336.770        8.292      856.435
11/01/2014  17:42:00     -108.006       15.891        2.065       84.400       48.725       38.376     7123.351     2374.111     1472.693        1.144        0.549      109.169       37.562        0.118      336.789        8.328      856.451
11/01/2014  17:43:00     -164.117      -33.555       -3.310       84.817       84.029       49.164     7193.905     7060.878     2417.125        2.237        0.834      167.512       40.978        0.060      336.771        8.295      856.449
11/01/2014  17:44:00     -141.362      -25.894       -7.688       52.621       81.245       31.772     2768.923     6600.780     1009.469        1.554        0.519      143.714       23.758        0.027      336.780        8.311      856.452
11/01/2014  17:45:00     -252.088       -7.054      -13.713       62.742       54.441       40.803     3936.610     2963.873     1664.870        3.617        0.428      252.187       37.498        0.022      336.696        8.168      856.460
11/01/2014  17:46:00     -105.099      -26.906        2.711       59.679       60.954       33.550     3561.565     3715.443     1125.628        1.009        0.420      108.488       31.140        0.082      336.722        8.216      856.474
11/01/2014  17:47:00     -130.283      -12.638      -11.182       30.935       47.403       29.932      956.961     2247.014      895.904        1.068        0.205      130.894       20.481        0.024      336.726        8.223      856.498
11/01/2014  17:48:00     -181.091      -13.589      -15.370       83.924       65.727       36.034     7043.298     4319.993     1298.440        2.294        0.633      181.600       37.889        0.044      336.734        8.231      856.510
11/01/2014  17:49:00     -133.468      -29.127        4.880       59.862       55.712       26.924     3583.421     3103.862      724.916        1.305        0.371      136.609       24.532        0.032      336.692        8.166      856.524
11/01/2014  17:50:00     -173.103        6.976      -12.936       59.974       56.927       33.816     3596.896     3240.717     1143.515        1.908        0.399      173.244       32.356        0.035      336.696        8.170      856.542
11/01/2014  17:51:00     -105.263       -9.581      -10.569       82.000       40.635       25.000     6724.061     1651.198      625.014        1.014        0.450      105.698       37.491        0.126      336.759        8.277      856.552
11/01/2014  17:52:00      -59.466      -15.066        9.644       38.891       30.122       25.362     1512.478      907.344      643.246        0.346        0.153       61.345       16.505        0.072      336.736        8.237      856.565
11/01/2014  17:53:00      -72.845      -38.066        7.161       57.923       42.347       30.015     3355.033     1793.278      900.883        0.643        0.302       82.191       31.158        0.144      336.734        8.235      856.587
11/01/2014  17:54:00     -104.996      -28.506        1.902       60.713       42.473       24.412     3686.041     1803.928      595.926        0.896        0.304      108.797       23.030        0.045      336.698        8.175      856.598
11/01/2014  17:55:00      -53.246      -12.854        3.710       39.055       26.201       20.076     1525.307      686.498      403.054        0.281        0.131       54.776       13.689        0.062      336.700        8.179      856.603
11/01/2014  17:56:00      -74.872       -4.421        4.945       66.076       35.547       27.567     4365.995     1263.577      759.923        0.602        0.319       75.002       29.808        0.158      336.715        8.206      856.602
11/01/2014  17:57:00      -90.821      -12.256        8.114       61.765       46.327       25.100     3814.909     2146.185      630.004        0.753        0.330       91.644       27.520        0.090      336.651        8.097      856.609
11/01/2014  17:58:00      -62.569       -5.686        4.718       69.881       41.356       35.842     4883.285     1710.330     1284.660        0.592        0.394       62.827       40.150        0.408      336.725        8.221      856.614
11/01/2014  17:59:00     -198.716      -19.499       -0.779       95.490       49.800       36.885     9118.340     2480.087     1360.538        2.641        0.648      199.670       37.763        0.036      336.579        7.973      856.625
11/01/2014  18:00:00     -126.096      -38.323       -7.750       64.889       44.781       29.271     4210.590     2005.376      856.773        1.225        0.354      131.791       27.799        0.044      336.582        7.982      856.618
11/01/2014  18:01:00     -159.029      -95.136       -9.127       65.703       50.374       31.164     4316.913     2537.493      971.203        2.112        0.391      185.313       31.603        0.029      336.592        7.996      856.616
11/01/2014  18:02:00     -192.058     -104.054       -5.002       81.581       75.882       39.838     6655.471     5758.087     1587.089        3.087        0.700      218.434       33.326        0.023      336.575        7.966      856.618
11/01/2014  18:03:00     -150.817      -71.687        2.613       92.904       67.355       42.024     8631.075     4536.669     1765.989        2.141        0.747      166.987       48.279        0.084      336.555        7.934      856.632
11/01/2014  18:04:00     -158.458       -3.023       -1.355       71.894       58.053       39.538     5168.743     3370.121     1563.260        1.761        0.505      158.487       36.940        0.054      336.538        7.906      856.660
11/01/2014  18:05:00     -159.828      -39.689       -4.485       55.079       56.991       32.371     3033.682     3248.002     1047.868        1.723        0.366      164.682       28.813        0.031      336.495        7.834      856.675
11/01/2014  18:06:00     -105.556       -7.643       -4.244       53.905       55.124       28.676     2905.732     3038.606      822.308        0.899        0.338      105.832       28.331        0.072      336.478        7.807      856.685
11/01/2014  18:07:00     -160.819      -48.529       -5.860       59.216       44.087       22.964     3506.531     1943.628      527.357        1.711        0.299      167.981       23.392        0.019      336.467        7.787      856.703
11/01/2014  18:08:00     -123.179      -18.086      -11.550       51.494       44.101       29.824     2651.660     1944.860      889.470        1.056        0.274      124.500       27.361        0.048      336.455        7.768      856.718
11/01/2014  18:09:00     -141.051      -36.667       -7.475       43.398       40.629       28.516     1883.411     1650.677      813.138        1.282        0.217      145.739       18.228        0.016      336.439        7.742      856.732
11/01/2014  18:10:00     -194.334       -4.620      -19.995       47.794       34.255       29.956     2284.304     1173.437      897.383        2.127        0.218      194.389       29.672        0.023      336.427        7.720      856.748
11/01/2014  18:11:00     -148.910      -23.014       -4.296       51.440       60.534       30.088     2646.105     3664.306      905.298        1.497        0.361      150.678       32.172        0.046      336.387        7.653      856.774
11/01/2014  18:12:00     -132.918       -6.590       -5.276       61.266       49.495       29.911     3753.546     2449.741      894.666        1.242        0.355      133.081       29.319        0.049      336.388        7.653      856.794
11/01/2014  18:13:00     -154.093      -26.087      -10.132       36.724       43.617       22.977     1348.659     1902.486      527.958        1.415        0.189      156.285       20.890        0.018      336.377        7.637      856.816
11/01/2014  18:14:00     -123.808      -46.692      -11.496       25.596       33.356       18.666      655.172     1112.643      348.427        0.988        0.106      132.319       14.993        0.013      336.373        7.632      856.824
11/01/2014  18:15:00     -157.326      -37.390       -7.302       35.806       31.675       19.019     1282.093     1003.277      361.727        1.442        0.132      161.708       13.302        0.007      336.353        7.599      856.838
11/01/2014  18:16:00     -139.329       -7.670        1.073       66.176       54.025       32.856     4379.300     2918.719     1079.492        1.392        0.419      139.540       36.464        0.068      336.337        7.569      856.863
11/01/2014  18:17:00     -194.486      -53.176        3.791       65.421       47.624       29.346     4279.877     2267.998      861.166        2.404        0.370      201.625       33.186        0.027      336.322        7.543      856.870
11/01/2014  18:18:00     -212.182      -73.324        0.248       83.655       61.281       38.754     6998.215     3755.383     1501.858        3.132        0.613      224.494       44.134        0.039      336.294        7.495      856.877
11/01/2014  18:19:00     -203.095      -95.054       -4.344       78.928       77.393       45.584     6229.585     5989.661     2077.860        3.230        0.715      224.238       43.176        0.037      336.337        7.567      856.889
11/01/2014  18:20:00     -145.124      -29.451       -0.269      102.585       53.446       39.872    10523.785     2856.522     1589.765        1.845        0.749      148.082       47.219        0.102      336.286        7.483      856.896
11/01/2014  18:21:00     -104.031      -61.450       -4.603       53.882       39.837       24.732     2903.274     1587.022      611.675        0.986        0.255      120.825       18.402        0.023      336.364        7.615      856.907
11/01/2014  18:22:00     -175.393      -73.580       -8.666       45.872       51.569       30.649     2104.281     2659.333      939.334        2.098        0.285      190.202       23.348        0.015      336.328        7.553      856.925
11/01/2014  18:23:00     -162.248      -50.004      -10.534       45.076       60.051       32.351     2031.856     3606.090     1046.582        1.781        0.334      169.779       24.926        0.022      336.326        7.550      856.942
11/01/2014  18:24:00     -180.150      -69.498        0.319       86.588       60.728       41.083     7497.561     3687.833     1687.802        2.508        0.644      193.091       42.985        0.050      336.317        7.534      856.947
11/01/2014  18:25:00     -215.171       -6.613      -16.014       73.368       57.565       40.200     5382.910     3313.688     1616.049        2.845        0.516      215.273       41.505        0.037      336.303        7.510      856.951
11/01/2014  18:26:00     -168.098      -98.932       -7.666       56.104       68.031       39.133     3147.604     4628.240     1531.366        2.370        0.465      195.050       35.852        0.034      336.320        7.538      856.963
11/01/2014  18:27:00     -233.019      -46.583      -11.238       78.365       63.759       47.410     6141.109     4065.182     2247.678        3.452        0.623      237.630       40.321        0.029      336.287        7.483      856.965
11/01/2014  18:28:00     -165.764      -79.029       -4.870       58.215       62.408       37.862     3389.008     3894.721     1433.519        2.123        0.436      183.639       28.973        0.025      336.282        7.476      856.971
11/01/2014  18:29:00     -152.947      -74.020        0.795       92.317       63.531       42.916     8522.368     4036.229     1841.790        2.163        0.720      169.917       44.076        0.067      336.264        7.446      856.989
11/01/2014  18:30:00     -105.927      -48.879      -13.040       48.776       58.132       27.868     2379.084     3379.370      776.637        1.016        0.327      116.661       13.280        0.013      336.278        7.472      856.985
11/01/2014  18:31:00     -183.328      -59.398       -3.653       72.530       51.977       43.022     5260.536     2701.614     1850.887        2.348        0.491      192.711       43.995        0.052      336.268        7.451      856.992
11/01/2014  18:32:00     -147.609       -2.709       -4.311       87.125       68.060       41.181     7590.778     4632.174     1695.871        1.786        0.696      147.634       40.164        0.074      336.248        7.421      857.013
11/01/2014  18:33:00      -80.839      -52.780       -0.354       52.577       76.489       40.518     2764.372     5850.532     1641.694        0.979        0.513       96.544       28.798        0.089      336.264        7.449      857.026
11/01/2014  18:34:00     -148.674      -27.705        5.910       92.106       62.632       40.564     8483.465     3922.736     1645.433        1.848        0.703      151.234       38.564        0.065      336.233        7.396      857.036
11/01/2014  18:35:00     -192.497      -23.283       -9.308       70.566       53.515       34.808     4979.536     2863.813     1211.609        2.337        0.453      193.900       36.661        0.036      336.216        7.367      857.055
11/01/2014  18:36:00     -121.366      -20.094        0.473       92.186       53.828       36.444     8498.230     2897.463     1328.172        1.393        0.636      123.018       49.463        0.162      336.182        7.310      857.059
11/01/2014  18:37:00     -182.038      -40.096       -4.958       73.187       57.040       44.767     5356.283     3253.599     2004.120        2.269        0.531      186.402       47.928        0.066      336.254        7.428      857.065
11/01/2014  18:38:00     -178.254      -16.700        4.156       66.111       49.704       44.418     4370.619     2470.493     1972.946        2.044        0.441      179.034       41.536        0.054      336.183        7.312      857.082
11/01/2014  18:39:00     -188.668      -10.532      -15.860       69.900       64.190       35.541     4885.997     4120.378     1263.179        2.311        0.513      188.961       32.863        0.030      336.224        7.379      857.092
11/01/2014  18:40:00     -220.389      -47.856       -9.894       82.352      115.302       42.853     6781.822    13294.570     1836.386        3.643        1.096      225.525       33.143        0.022      336.237        7.401      857.104
11/01/2014  18:41:00     -247.770        0.054       -4.959       91.192       78.032       47.016     8315.945     6089.055     2210.475        3.901        0.831      247.770       43.027        0.030      336.245        7.414      857.126
11/01/2014  18:42:00     -133.564      -34.933       -0.253       76.978       53.465       30.691     5925.599     2858.508      941.944        1.439        0.486      138.057       32.501        0.055      336.207        7.354      857.132
11/01/2014  18:43:00     -328.681      -45.227      -15.195      103.578       74.223       52.809    10728.411     5509.083     2788.750        6.466        0.951      331.778       51.794        0.024      336.230        7.388      857.135
11/01/2014  18:44:00     -179.940      -64.449       -6.158       88.889       74.657       43.896     7901.303     5573.656     1926.820        2.598        0.770      191.133       41.762        0.048      336.181        7.307      857.150
11/01/2014  18:45:00     -244.035       17.299       -7.975       62.964       83.672       34.506     3964.403     7000.998     1190.692        3.603        0.608      244.648       28.044        0.013      336.209        7.352      857.173
11/01/2014  18:46:00     -173.327      -40.708        0.840       61.905       65.780       39.936     3832.190     4327.033     1594.892        2.073        0.488      178.043       30.917        0.030      336.180        7.306      857.183
11/01/2014  18:47:00     -152.514      -45.884        0.288      114.969       69.111       44.340    13217.823     4776.301     1966.063        2.266        0.998      159.266       52.827        0.110      336.169        7.287      857.195
11/01/2014  18:48:00     -191.545      -48.687       -9.734      104.151       75.771       41.677    10847.396     5741.186     1736.954        2.874        0.916      197.636       50.444        0.065      336.180        7.305      857.221
11/01/2014  18:49:00     -225.017      -27.246      -17.061       75.074       94.212       48.276     5636.167     8875.952     2330.586        3.425        0.842      226.660       36.802        0.026      336.207        7.349      857.243
11/01/2014  18:50:00     -201.529      -99.307       -1.041      129.282       87.993       47.995    16713.938     7742.761     2303.520        3.861        1.338      224.668       56.175        0.063      336.188        7.318      857.265
11/01/2014  18:51:00     -230.664      -53.794       -0.883       83.966       74.922       47.424     7050.222     5613.333     2248.996        3.550        0.746      236.854       49.334        0.043      336.167        7.283      857.279
11/01/2014  18:52:00     -189.683      -20.714       -9.667       84.989       74.295       46.779     7223.191     5519.761     2188.254        2.571        0.747      190.811       42.913        0.051      336.167        7.284      857.307
11/01/2014  18:53:00     -226.999      -37.250      -13.649       89.963       66.417       43.191     8093.268     4411.192     1865.479        3.373        0.718      230.035       42.319        0.034      336.166        7.282      857.342
11/01/2014  18:54:00     -189.026       -7.419       -2.778      103.697       66.304       48.373    10753.017     4396.225     2339.956        2.664        0.874      189.171       50.011        0.070      336.116        7.198      857.361
11/01/2014  18:55:00     -182.899      -64.046       -7.362       81.507       65.793       39.466     6643.353     4328.721     1557.581        2.507        0.626      193.789       36.089        0.035      336.121        7.206      857.387
11/01/2014  18:56:00     -183.009      -46.301       -1.914       75.218       74.564       35.701     5657.678     5559.804     1274.554        2.406        0.625      188.776       35.284        0.035      336.105        7.181      857.418
11/01/2014  18:57:00     -196.600      -44.770       -4.750       74.842       58.921       37.643     5601.349     3471.687     1416.980        2.558        0.525      201.633       38.891        0.037      336.091        7.157      857.420
11/01/2014  18:58:00     -163.160      -46.961        0.676       73.414       52.634       34.929     5389.641     2770.378     1220.063        1.910        0.469      169.784       30.688        0.033      336.067        7.118      857.431
11/01/2014  18:59:00     -156.729      -25.423        8.588       64.536       57.816       33.049     4164.951     3342.715     1092.234        1.694        0.430      158.777       34.605        0.048      336.068        7.121      857.451
11/01/2014  19:00:00     -206.513      -81.050       -0.467       76.691       60.989       36.593     5881.558     3719.652     1339.077        3.008        0.547      221.848       38.003        0.029      336.079        7.137      857.470
11/01/2014  19:01:00     -111.818      -37.016       -6.335       53.553       43.304       29.210     2867.885     1875.249      853.238        0.975        0.280      117.785       23.797        0.041      336.046        7.083      857.483
11/01/2014  19:02:00     -122.924      -14.276        3.076       58.524       41.119       30.469     3425.078     1690.792      928.382        1.068        0.302      123.750       32.456        0.069      336.057        7.103      857.493
11/01/2014  19:03:00      -94.551      -52.264        1.005       42.027       48.275       25.538     1766.277     2330.454      652.174        0.821        0.237      108.035       20.450        0.036      336.081        7.145      857.516
11/01/2014  19:04:00     -111.546      -58.997       -0.203       43.616       39.572       25.810     1902.383     1565.951      666.151        1.003        0.207      126.187       24.888        0.039      336.060        7.107      857.545
11/01/2014  19:05:00      -55.825      -64.615        8.851       56.585       39.045       28.572     3201.896     1524.485      816.370        0.646        0.277       85.390       33.414        0.153      336.116        7.202      857.567
11/01/2014  19:06:00      -90.463      -43.032      -12.644       49.521       33.195       22.344     2452.346     1101.882      499.233        0.712        0.203      100.176       27.500        0.075      336.070        7.126      857.577
11/01/2014  19:07:00      -61.883      -45.620        0.785       40.793       22.657       18.135     1664.048      513.328      328.886        0.421        0.125       76.881       23.086        0.090      336.104        7.181      857.597
11/01/2014  19:08:00      -50.023      -26.138       -0.465       28.848       28.759       16.484      832.221      827.089      271.733        0.256        0.097       56.440       10.300        0.033      336.075        7.133      857.603
11/01/2014  19:09:00      -21.580      -15.367        4.382       25.222       16.990       14.719      636.163      288.656      216.663        0.093        0.057       26.492       14.288        0.291      336.101        7.177      857.602
11/01/2014  19:10:00      -25.712        6.851       -6.326       24.357       23.804       11.918      593.260      566.647      142.035        0.102        0.065       26.609        9.989        0.141      336.033        7.063      857.598
11/01/2014  19:11:00     -163.800      -12.500      -13.171       54.143       48.665       23.528     2931.507     2368.290      553.583        1.651        0.293      164.276       24.703        0.023      335.963        6.946      857.606
11/01/2014  19:12:00     -189.974       35.640      -12.180       30.073       33.705       16.908      904.361     1136.010      285.881        1.992        0.116      193.289       13.854        0.005      335.969        6.956      857.623
11/01/2014  19:13:00     -127.397      -72.397       -5.944       42.762       39.798       27.660     1828.552     1583.881      765.101        1.284        0.209      146.531       22.148        0.023      335.962        6.944      857.651
11/01/2014  19:14:00      -67.825      -29.132        2.891       60.922       35.506       20.752     3711.485     1260.705      430.627        0.543        0.270       73.817       24.536        0.110      335.922        6.878      857.681
11/01/2014  19:15:00      -97.530      -44.305       -5.522       81.114       27.906       31.784     6579.548      778.718     1010.218        0.994        0.418      107.121       39.122        0.133      335.944        6.915      857.705
11/01/2014  19:16:00     -133.994      -37.052      -18.667       27.896       32.331       19.088      778.215     1045.262      364.335        1.093        0.109      139.022       10.379        0.006      335.951        6.924      857.728
11/01/2014  19:17:00      -94.170      -46.729       -3.102       29.022       36.779       20.980      842.260     1352.681      440.140        0.685        0.132      105.127       15.682        0.022      335.962        6.942      857.746
11/01/2014  19:18:00      -99.512      -13.910      -10.328       24.517       24.338       12.494      601.099      592.320      156.106        0.578        0.067      100.479        9.186        0.008      335.932        6.891      857.760
11/01/2014  19:19:00     -128.563       10.435      -17.609       43.182       37.393       21.769     1864.676     1398.226      473.887        1.034        0.187      128.986       17.856        0.019      335.888        6.823      857.765
11/01/2014  19:20:00      -94.286       38.275       -7.343       29.289       40.415       16.874      857.856     1633.339      284.734        0.659        0.139      101.759       11.294        0.012      335.864        6.784      857.769
11/01/2014  19:21:00      -74.753       68.081       -9.915       42.448       36.777       22.482     1801.864     1352.571      505.438        0.699        0.183      101.109       18.817        0.035      335.834        6.731      857.780
11/01/2014  19:22:00      -91.224       41.536      -18.701       29.332       47.041       24.415      860.371     2212.815      596.116        0.703        0.183      100.235       27.356        0.074      335.917        6.869      857.779
11/01/2014  19:23:00      -61.856      -43.155       -3.310       69.841       35.134       23.416     4877.766     1234.395      548.323        0.618        0.333       75.422       29.477        0.153      335.920        6.873      857.768
11/01/2014  19:24:00      -26.485      -27.066        7.602       34.488       32.866       15.661     1189.395     1080.147      245.271        0.200        0.126       37.868       19.695        0.270      335.915        6.866      857.759
11/01/2014  19:25:00        0.462       -1.689       11.229       19.850       13.369       13.545      394.032      178.724      183.462        0.044        0.038        1.751       12.178       48.345      335.895        6.833      857.755
11/01/2014  19:26:00      -47.557      -38.592        2.141       30.673       32.000       16.427      940.862     1023.988      269.839        0.299        0.112       61.245       14.386        0.055      335.902        6.844      857.765
11/01/2014  19:27:00      -37.770       -6.202       -5.723       42.287       18.765       16.368     1788.186      352.116      267.913        0.195        0.120       38.276       19.281        0.254      335.937        6.902      857.786
11/01/2014  19:28:00      -46.385       50.997       -8.163       30.215       32.201       16.905      912.956     1036.936      285.786        0.353        0.112       68.937       13.063        0.036      335.933        6.896      857.809
11/01/2014  19:29:00       -9.362       50.256       -3.161       38.850       21.090       18.350     1509.328      444.799      336.728        0.246        0.115       51.120       14.984        0.086      335.841        6.743      857.837
11/01/2014  19:30:00       51.282       55.912       -3.269       29.057       40.428       28.207      844.300     1634.439      795.651        0.452        0.164       75.868       27.657        0.133      335.699        6.507      857.851
11/01/2014  19:31:00       22.380      107.501      -14.397       34.324       33.867       26.671     1178.127     1146.980      711.355        0.765        0.152      109.806       20.296        0.034      335.591        6.327      857.882
11/01/2014  19:32:00       -6.065      144.743      -14.886       51.367       55.148       29.796     2638.543     3041.252      887.831        1.389        0.328      144.870       30.353        0.044      335.588        6.322      857.909
11/01/2014  19:33:00      -35.248      227.921      -26.328       44.244       58.666       24.240     1957.533     3441.738      587.577        2.993        0.299      230.630       27.487        0.014      335.691        6.489      857.950
11/01/2014  19:34:00      -32.417       73.434       -6.593       40.021       50.331       22.623     1601.659     2533.175      511.795        0.557        0.232       80.270       26.967        0.113      335.740        6.574      857.978
11/01/2014  19:35:00      -25.354      129.276      -18.927       28.255       48.464       20.129      798.333     2348.746      405.184        1.063        0.178      131.739       21.984        0.028      335.812        6.694      857.983
11/01/2014  19:36:00      -50.681      121.337      -16.978       38.808       30.829       21.493     1506.037      950.435      461.960        1.025        0.146      131.496       17.687        0.018      335.928        6.887      857.981
11/01/2014  19:37:00      -38.703      110.239       -9.795       22.053       76.631       18.526      486.353     5872.378      343.216        1.022        0.335      116.836       22.592        0.037      335.894        6.832      857.984
11/01/2014  19:38:00      -17.883      105.499      -14.162       21.876       61.925       14.163      478.552     3834.743      200.578        0.808        0.226      107.004       16.793        0.025      335.891        6.828      857.981
11/01/2014  19:39:00       -8.202      116.823      -15.566       24.041       25.250       19.063      577.992      637.580      363.396        0.777        0.079      117.111       12.521        0.011      335.828        6.721      857.972
11/01/2014  19:40:00      -12.346      146.590      -16.311       26.890       49.303       19.005      723.083     2430.828      361.206        1.271        0.176      147.109       17.696        0.014      335.830        6.726      857.974
11/01/2014  19:41:00      -11.738      159.243      -27.719       37.667       41.149       18.970     1418.785     1693.224      359.864        1.487        0.174      159.675       18.908        0.014      335.845        6.750      857.974
11/01/2014  19:42:00      -17.270      131.327      -19.739       34.005       41.309       23.883     1156.340     1706.429      570.392        1.068        0.172      132.458       23.533        0.032      335.860        6.775      857.978
11/01/2014  19:43:00       36.502      126.002       -7.716       43.899       70.825       33.961     1927.081     5016.127     1153.339        1.268        0.405      131.183       37.372        0.081      335.722        6.547      857.974
11/01/2014  19:44:00       23.284       87.135      -13.735       26.753       52.730       20.818      715.704     2780.433      433.385        0.613        0.196       90.192       22.664        0.063      335.694        6.500      857.991
11/01/2014  19:45:00      -30.045      136.262      -18.295       38.131       45.455       20.060     1453.980     2066.173      402.407        1.186        0.196      139.535       21.720        0.024      335.801        6.677      858.008
11/01/2014  19:46:00       -1.882      109.353      -16.422       27.461       49.253       23.226      754.133     2425.898      539.451        0.797        0.186      109.369       18.901        0.030      335.791        6.661      858.019
11/01/2014  19:47:00        2.475       85.890       -1.736       40.188       41.976       27.328     1615.098     1761.949      746.838        0.575        0.206       85.925       23.679        0.076      335.774        6.632      858.027
11/01/2014  19:48:00      -80.980       48.747      -15.679       32.450       31.543       16.853     1052.980      994.975      284.016        0.576        0.117       94.520        9.947        0.011      335.966        6.952      858.053
11/01/2014  19:49:00      -31.783       38.606        5.950       53.128       34.630       23.470     2822.615     1199.263      550.838        0.355        0.229       50.006       28.744        0.330      335.850        6.758      858.068
11/01/2014  19:50:00      -78.573       92.027      -22.624       30.644       42.999       22.808      939.084     1848.881      520.189        0.923        0.165      121.007       15.652        0.017      335.866        6.783      858.071
11/01/2014  19:51:00      -82.119       87.765      -20.394       36.091       35.757       23.314     1302.531     1278.546      543.547        0.899        0.156      120.192       23.779        0.039      335.816        6.702      858.063
11/01/2014  19:52:00      -58.258       89.763      -11.778       49.930       38.953       28.291     2492.982     1517.320      800.399        0.820        0.241      107.011       29.922        0.078      335.798        6.671      858.063
11/01/2014  19:53:00      -37.424       66.706      -13.844       36.141       32.916       16.663     1306.165     1083.476      277.650        0.435        0.133       76.487       16.688        0.048      335.901        6.842      858.073
11/01/2014  19:54:00      -92.867       83.019      -26.477       17.469       19.914       13.215      305.181      396.564      174.639        0.855        0.044      124.565       10.309        0.007      335.850        6.758      858.082
11/01/2014  19:55:00      -83.611       71.957      -27.917       19.648       32.030        9.650      386.030     1025.915       93.113        0.723        0.075      110.311        8.787        0.006      335.872        6.796      858.096
11/01/2014  19:56:00      -35.485       39.626      -10.482       17.046       15.963        9.319      290.564      254.822       86.851        0.179        0.032       53.192        6.579        0.015      335.853        6.761      858.108
11/01/2014  19:57:00      -86.558       60.758      -19.411       43.199       43.171       21.589     1866.191     1863.743      466.079        0.788        0.210      105.754       27.288        0.067      335.852        6.763      858.115
11/01/2014  19:58:00      -64.999      138.383      -13.181       34.892       41.552       27.524     1217.455     1726.565      757.557        1.362        0.185      152.888       23.647        0.024      335.884        6.815      858.142
11/01/2014  19:59:00      -25.826      161.571      -18.890       44.118       41.880       23.738     1946.430     1753.968      563.514        1.570        0.213      163.622       18.432        0.013      335.863        6.779      858.168
11/01/2014  20:00:00      -35.738      143.119      -17.205       39.046       63.778       28.914     1524.623     4067.668      835.998        1.424        0.321      147.513       25.152        0.029      335.767        6.619      858.193
11/01/2014  20:01:00      -52.816      144.251      -16.530       57.268       70.045       37.979     3279.660     4906.251     1442.405        1.675        0.481      153.617       38.857        0.064      335.732        6.562      858.211
11/01/2014  20:02:00     -115.667      205.715      -30.882       36.351       46.770       31.203     1321.363     2187.415      973.621        3.057        0.224      236.003       26.414        0.013      335.629        6.387      858.236
11/01/2014  20:03:00      -87.501      120.464      -16.302       57.939       76.229       32.730     3356.978     5810.854     1071.229        1.633        0.512      148.889       33.523        0.051      335.677        6.469      858.249
11/01/2014  20:04:00      -35.726       87.225      -11.626       42.166       59.917       21.641     1777.949     3590.001      468.352        0.743        0.292       94.257       19.046        0.041      335.651        6.426      858.264
11/01/2014  20:05:00      -76.624      225.593      -31.115       66.901       62.858       40.879     4475.715     3951.102     1671.064        3.391        0.505      238.251       36.561        0.024      335.666        6.448      858.284
11/01/2014  20:06:00      -80.734      218.377      -32.388       64.446      104.525       38.396     4153.282    10925.453     1474.231        3.590        0.828      232.823       44.690        0.037      335.658        6.437      858.299
11/01/2014  20:07:00      -80.852      153.297      -19.650       53.666       66.252       39.083     2880.004     4389.350     1527.467        1.961        0.440      173.312       29.097        0.028      335.684        6.481      858.310
11/01/2014  20:08:00      -57.068      211.962      -23.695       56.239       64.542       39.256     3162.813     4165.714     1541.012        2.881        0.443      219.510       38.786        0.031      335.680        6.473      858.322
11/01/2014  20:09:00      -53.914      199.934      -16.324       64.106      108.158       39.206     4109.588    11698.181     1537.081        3.024        0.867      207.076       43.193        0.044      335.698        6.503      858.332
11/01/2014  20:10:00      -64.625      138.864      -17.048       61.044       78.484       44.576     3726.324     6159.793     1987.000        1.781        0.594      153.165       42.957        0.079      335.719        6.539      858.341
11/01/2014  20:11:00      -87.919      226.565      -21.183       77.261       98.478       48.587     5969.213     9697.951     2360.702        3.877        0.901      243.025       42.632        0.031      335.723        6.544      858.355
11/01/2014  20:12:00      -94.359      160.203      -23.786       63.311       76.044       37.918     4008.315     5782.707     1437.779        2.318        0.561      185.926       41.060        0.049      335.807        6.685      858.377
11/01/2014  20:13:00      -72.756      188.950      -20.990       34.757       69.225       34.546     1208.021     4792.169     1193.397        2.431        0.360      202.473       36.315        0.032      335.795        6.664      858.386
11/01/2014  20:14:00     -102.467      207.685      -24.962       61.766      106.988       37.095     3815.062    11446.527     1376.071        3.544        0.832      231.587       43.118        0.035      335.755        6.598      858.400
11/01/2014  20:15:00      -72.305      155.822      -21.516       58.194       86.060       37.072     3386.575     7406.290     1374.321        2.107        0.608      171.780       41.846        0.059      335.759        6.604      858.411
11/01/2014  20:16:00      -71.668      241.449      -30.779       42.327       45.750       36.074     1791.597     2093.062     1301.310        3.478        0.259      251.861       20.653        0.007      335.766        6.612      858.427
11/01/2014  20:17:00      -87.182      203.360      -24.142       66.843       66.078       41.109     4467.935     4366.341     1689.919        3.003        0.526      221.260       35.289        0.025      335.797        6.666      858.435
11/01/2014  20:18:00      -77.595      166.576      -15.436       54.512       98.722       41.737     2971.566     9746.073     1741.995        2.423        0.723      183.763       37.069        0.041      335.824        6.711      858.441
11/01/2014  20:19:00      -78.512      126.790       -1.691       66.202       79.602       45.755     4382.751     6336.444     2093.501        1.753        0.641      149.130       51.833        0.121      335.774        6.631      858.473
11/01/2014  20:20:00      -64.960      156.291       -7.528       72.573       92.905       44.702     5266.790     8631.341     1998.306        2.230        0.795      169.253       51.863        0.094      335.793        6.662      858.490
11/01/2014  20:21:00      -93.504      216.529      -29.735       84.867       75.870       41.482     7202.384     5756.189     1720.717        3.559        0.734      235.855       33.470        0.020      335.752        6.590      858.500
11/01/2014  20:22:00      -78.297      127.477      -11.764       87.224       66.143       42.508     7608.077     4374.841     1806.948        1.815        0.689      149.602       39.847        0.071      335.791        6.658      858.500
11/01/2014  20:23:00      -57.834      196.237      -20.770       45.260       92.314       37.338     2048.452     8521.817     1394.142        2.712        0.598      204.582       43.268        0.045      335.800        6.673      858.501
11/01/2014  20:24:00      -79.178      106.125        3.230       61.981       75.435       44.275     3841.696     5690.496     1960.316        1.452        0.575      132.407       43.002        0.105      335.776        6.633      858.506
11/01/2014  20:25:00      -35.102      113.564       -4.032       45.316       61.611       26.621     2053.578     3795.898      708.699        1.035        0.328      118.866       26.046        0.048      335.835        6.732      858.502
11/01/2014  20:26:00      -96.816      119.644      -14.280       42.308       48.986       32.654     1789.962     2399.663     1066.252        1.457        0.263      153.909       28.992        0.035      335.768        6.622      858.494
11/01/2014  20:27:00      -72.697      124.083      -25.184       47.211       65.746       32.613     2228.863     4322.512     1063.598        1.446        0.381      143.810       34.052        0.056      335.744        6.583      858.488
11/01/2014  20:28:00     -106.091      143.637      -26.256       33.687       76.844       36.996     1134.790     5905.044     1368.699        2.049        0.420      178.569       36.235        0.041      335.728        6.554      858.467
11/01/2014  20:29:00      -51.387       74.788        4.556       63.129       49.087       40.821     3985.327     2409.563     1666.325        0.816        0.403       90.741       30.759        0.115      335.776        6.635      858.467
11/01/2014  20:30:00      -52.849      147.199      -17.463       57.310       61.662       34.259     3284.384     3802.244     1173.679        1.651        0.413      156.398       31.398        0.040      335.803        6.678      858.465
11/01/2014  20:31:00      -50.503       99.705      -14.454       42.341       42.888       29.784     1792.773     1839.376      887.094        0.861        0.226      111.766       23.804        0.045      335.815        6.699      858.449
11/01/2014  20:32:00     -105.434      130.687      -26.563       48.765       62.331       33.091     2377.985     3885.211     1095.036        1.813        0.368      167.915       34.323        0.042      335.771        6.624      858.439
11/01/2014  20:33:00      -76.988      119.451      -15.491       47.579       45.556       33.364     2263.729     2075.333     1113.145        1.294        0.273      142.111       29.588        0.043      335.726        6.552      858.432
11/01/2014  20:34:00     -113.375      100.552      -23.269       32.745       41.019       26.463     1072.212     1682.587      700.285        1.348        0.173      151.541       24.933        0.027      335.737        6.570      858.428
11/01/2014  20:35:00     -109.934      126.840      -31.854       41.957       39.550       26.633     1760.415     1564.217      709.305        1.661        0.202      167.851       25.009        0.022      335.738        6.573      858.419
11/01/2014  20:36:00      -88.726       36.703      -13.796       32.352       51.430       20.122     1046.628     2645.081      404.886        0.675        0.205       96.018       18.384        0.037      335.795        6.665      858.406
11/01/2014  20:37:00      -56.220      -24.662        2.860       48.077       36.058       22.728     2311.364     1300.177      516.543        0.395        0.206       61.392       19.871        0.105      335.795        6.666      858.408
11/01/2014  20:38:00      -73.065      -22.363        6.116       40.634       43.101       27.160     1651.149     1857.721      737.641        0.506        0.212       76.411       24.017        0.099      335.791        6.660      858.403
11/01/2014  20:39:00      -63.015      -13.015       -0.064       29.485       26.454       21.627      869.349      699.838      467.726        0.309        0.102       64.345       20.902        0.106      335.735        6.568      858.400
11/01/2014  20:40:00      -47.910       16.430       -1.909       18.583       29.409       16.523      345.328      864.877      272.996        0.203        0.074       50.649        8.566        0.029      335.752        6.594      858.412
11/01/2014  20:41:00      -29.558       16.364        4.549       25.799       17.626       17.435      665.610      310.679      303.987        0.122        0.064       33.785       14.553        0.186      335.743        6.580      858.426
11/01/2014  20:42:00      -41.556       34.387      -11.977       21.301       26.734       20.314      453.718      714.691      412.667        0.232        0.079       53.938       10.870        0.041      335.827        6.719      858.435
11/01/2014  20:43:00      -51.191       85.855      -14.371       28.465       28.913       20.752      810.253      835.957      430.642        0.614        0.104       99.958       15.281        0.023      335.810        6.692      858.446
11/01/2014  20:44:00      -62.291       42.424      -11.279       21.823       22.044       15.632      476.242      485.940      244.365        0.351        0.060       75.365       10.125        0.018      335.745        6.584      858.455
11/01/2014  20:45:00      -92.509      -10.675       -8.017       32.229       28.083       20.211     1038.717      788.632      408.501        0.549        0.112       93.123       21.953        0.056      335.775        6.633      858.461
11/01/2014  20:46:00      -95.103       -3.278       -7.951       51.041       56.952       27.961     2605.196     3243.556      781.826        0.787        0.332       95.159       24.621        0.067      335.753        6.596      858.475
11/01/2014  20:47:00      -85.201      -41.398       -2.723       57.472       51.654       19.767     3303.053     2668.097      390.745        0.767        0.318       94.726       16.186        0.029      335.762        6.612      858.469
11/01/2014  20:48:00     -150.629       10.396      -11.563       41.542       46.663       24.613     1725.766     2177.401      605.783        1.372        0.225      150.988       25.034        0.027      335.675        6.467      858.480
11/01/2014  20:49:00     -132.238       -1.076      -11.321       42.708       50.886       21.757     1824.013     2589.350      473.365        1.125        0.244      132.242       20.102        0.023      335.682        6.479      858.478
11/01/2014  20:50:00      -94.695      -37.864      -11.075       37.972       46.962       25.026     1441.875     2205.409      626.324        0.740        0.214      101.984       21.365        0.044      335.683        6.480      858.499
11/01/2014  20:51:00     -107.592      -54.503       -1.251       67.552       47.745       28.967     4563.315     2279.620      839.100        1.111        0.384      120.609       34.219        0.080      335.653        6.429      858.513
11/01/2014  20:52:00     -122.290      -37.739       -4.515       59.570       62.429       31.162     3548.531     3897.345      971.094        1.241        0.421      127.981       21.885        0.029      335.579        6.307      858.531
11/01/2014  20:53:00      -92.417      -39.301      -20.099       44.050       33.130       27.044     1940.383     1097.569      731.388        0.713        0.188      100.427       20.480        0.042      335.626        6.384      858.551
11/01/2014  20:54:00     -118.656      -51.323        1.226       70.377       53.787       29.069     4952.876     2893.044      845.003        1.270        0.435      129.280       27.417        0.045      335.527        6.218      858.564
11/01/2014  20:55:00      -94.585      -63.036       -2.352       49.416       34.548       22.641     2441.976     1193.592      512.622        0.854        0.207      113.665       19.010        0.028      335.537        6.236      858.568
11/01/2014  20:56:00      -99.186      -31.754       -6.301       42.996       44.624       23.290     1848.695     1991.282      542.408        0.763        0.219      104.145       19.216        0.034      335.473        6.129      858.583
11/01/2014  20:57:00      -84.625      -14.366       -0.177       45.049       40.731       22.897     2029.435     1659.023      524.252        0.579        0.211       85.836       22.316        0.068      335.437        6.070      858.605
11/01/2014  20:58:00     -113.153      -65.653       -0.744       42.782       37.746       27.134     1830.281     1424.778      736.262        1.055        0.200      130.820       19.850        0.023      335.406        6.018      858.625
11/01/2014  20:59:00     -100.250      -65.990        4.455       69.508       49.700       30.482     4831.297     2470.132      929.141        1.133        0.412      120.020       35.020        0.085      335.369        5.956      858.648
11/01/2014  21:00:00     -135.466      -77.862      -11.934       39.676       30.243       19.763     1574.202      914.623      390.592        1.372        0.144      156.248       17.922        0.013      335.375        5.967      858.672
11/01/2014  21:01:00     -106.451      -51.860      -11.273       42.673       25.190       20.772     1821.028      634.557      431.478        0.852        0.144      118.411       10.509        0.008      335.392        5.994      858.681
11/01/2014  21:02:00     -100.445      -40.221       -3.207       37.787       36.310       22.058     1427.845     1318.448      486.563        0.747        0.162      108.198       13.923        0.017      335.345        5.915      858.694
11/01/2014  21:03:00     -104.509      -42.819       -0.602       40.574       36.383       22.091     1646.244     1323.707      488.020        0.811        0.173      112.941       23.195        0.042      335.340        5.908      858.699
11/01/2014  21:04:00     -153.184      -26.206      -11.651       30.319       23.612       18.356      919.213      557.507      336.949        1.305        0.091      155.409       15.876        0.010      335.334        5.900      858.708
11/01/2014  21:05:00     -112.412      -24.613       -7.992       36.169       36.922       18.472     1308.187     1363.200      341.204        0.816        0.151      115.075       16.465        0.020      335.365        5.947      858.720
11/01/2014  21:06:00      -95.211      -32.309       -2.336       35.813       32.666       16.722     1282.537     1067.064      279.639        0.637        0.131      100.544       14.324        0.020      335.384        5.982      858.737
11/01/2014  21:07:00     -112.629      -41.248      -14.428       30.131       20.971       16.962      907.886      439.797      287.699        0.811        0.082      119.945       14.607        0.015      335.434        6.064      858.752
11/01/2014  21:08:00      -92.680      -26.133      -16.085       25.626       31.904       17.648      656.694     1017.890      311.454        0.576        0.099       96.294       12.170        0.016      335.440        6.074      858.773
11/01/2014  21:09:00      -31.746      -16.639       -3.578       41.997       33.121       18.403     1763.784     1097.019      338.681        0.225        0.160       35.842        9.606        0.072      335.412        6.027      858.774
11/01/2014  21:10:00      -21.745      -15.183       -3.998       28.139       11.799       13.516      791.783      139.224      182.694        0.092        0.056       26.521        7.758        0.086      335.405        6.015      858.773
11/01/2014  21:11:00      -45.214      -14.828       -0.132       21.852       17.707        9.024      477.490      313.549       81.430        0.157        0.044       47.583        7.774        0.027      335.426        6.050      858.780
11/01/2014  21:12:00      -45.014       -5.671       -4.049       24.091       25.144       13.188      580.377      632.245      173.936        0.173        0.069       45.370        7.933        0.031      335.396        6.002      858.797
11/01/2014  21:13:00     -117.425      -30.905      -14.390       43.251       37.441       19.974     1870.655     1401.842      398.941        0.931        0.184      121.424       14.823        0.015      335.408        6.022      858.815
11/01/2014  21:14:00     -130.337      -23.859       -8.929       56.280       55.317       27.591     3167.408     3060.023      761.249        1.231        0.349      132.502       22.689        0.029      335.307        5.851      858.829
11/01/2014  21:15:00      -95.483       26.657      -22.100       27.047       41.365       24.215      731.545     1711.091      586.348        0.667        0.151       99.134       19.285        0.038      335.333        5.896      858.826
11/01/2014  21:16:00      -76.360       -8.417      -16.233       24.069       32.936       16.738      579.324     1084.807      280.167        0.405        0.097       76.822       10.692        0.019      335.340        5.909      858.828
11/01/2014  21:17:00      -67.444       50.249      -19.614       39.262       29.362       23.641     1541.467      862.144      558.916        0.521        0.148       84.105       17.201        0.042      335.418        6.038      858.829
11/01/2014  21:18:00      -38.885       59.049       -4.355       26.612       30.892       21.393      708.178      954.317      457.659        0.357        0.106       70.703       20.994        0.088      335.510        6.191      858.818
11/01/2014  21:19:00      -83.579       33.420      -21.426       25.657       36.352       15.410      658.294     1321.455      237.461        0.539        0.111       90.013       17.684        0.039      335.429        6.057      858.826
11/01/2014  21:20:00      -68.178       32.560      -13.493       19.905       26.132       14.923      396.215      682.882      222.709        0.360        0.065       75.554        9.776        0.017      335.479        6.141      858.839
11/01/2014  21:21:00      -45.952       -3.950       -0.232       22.138       30.209       11.815      490.073      912.575      139.585        0.183        0.077       46.121       10.517        0.052      335.407        6.019      858.849
11/01/2014  21:22:00      -83.094      -43.264       -9.432       30.046       22.519       17.868      902.756      507.127      319.258        0.530        0.086       93.682       11.058        0.014      335.419        6.041      858.859
11/01/2014  21:23:00     -108.990      -21.333      -16.290       13.978       16.245       12.505      195.396      263.902      156.383        0.661        0.031      111.058        7.713        0.005      335.396        6.002      858.875
11/01/2014  21:24:00      -95.055      -27.703      -12.036       29.336       20.545       16.648      860.624      422.106      277.145        0.575        0.078       99.010       15.625        0.025      335.411        6.025      858.891
11/01/2014  21:25:00     -112.385       28.567      -16.208       41.132       31.728       18.145     1691.830     1006.676      329.253        0.837        0.151      115.959       17.517        0.023      335.433        6.061      858.913
11/01/2014  21:26:00      -95.732       -3.208       -8.875       36.720       19.559       16.401     1348.384      382.572      269.004        0.563        0.100       95.786       17.455        0.033      335.376        5.968      858.929
11/01/2014  21:27:00      -77.218        8.770       -7.136       26.944       27.307       17.964      725.954      745.655      322.703        0.394        0.090       77.714       16.419        0.045      335.420        6.041      858.949
11/01/2014  21:28:00      -78.934       32.608      -22.850       22.341       42.777       19.392      499.121     1829.861      376.056        0.526        0.135       85.404       14.447        0.029      335.469        6.123      858.964
11/01/2014  21:29:00      -70.119       20.828      -13.451       22.578       60.971       16.935      509.787     3717.475      286.796        0.502        0.226       73.147       15.668        0.046      335.478        6.138      858.983
11/01/2014  21:30:00     -100.883       34.724      -14.249       40.890       32.010       22.850     1671.970     1024.655      522.115        0.740        0.161      106.692       19.543        0.034      335.452        6.095      859.002
11/01/2014  21:31:00     -103.862       93.949      -25.229       39.707       34.939       22.737     1576.631     1220.720      516.952        1.178        0.166      140.049       23.755        0.029      335.530        6.226      859.025
11/01/2014  21:32:00      -96.287       58.854      -17.591       50.187       50.646       29.900     2518.758     2565.064      894.005        0.951        0.299      112.850       23.244        0.042      335.637        6.403      859.038
11/01/2014  21:33:00     -103.664      136.017      -31.722       73.112       50.579       35.853     5345.419     2558.276     1285.438        1.972        0.459      171.017       33.828        0.039      335.567        6.286      859.045
11/01/2014  21:34:00     -115.913       88.457      -22.901       25.297       43.524       23.668      639.944     1894.309      560.163        1.244        0.155      145.809       16.521        0.013      335.452        6.096      859.069
11/01/2014  21:35:00     -117.203       36.021      -12.441       42.433       27.795       18.823     1800.583      772.544      354.324        0.906        0.146      122.614       15.045        0.015      335.450        6.091      859.098
11/01/2014  21:36:00      -26.499       77.595       -6.399       27.087       44.582       19.680      733.691     1987.548      387.287        0.494        0.155       81.995       21.841        0.071      335.555        6.267      859.098
11/01/2014  21:37:00      -77.316       53.026      -13.122       32.383       51.432       21.351     1048.646     2645.228      455.873        0.655        0.207       93.752       18.179        0.038      335.476        6.134      859.118
11/01/2014  21:38:00      -85.124       69.803      -19.156       22.772       32.245       18.124      518.559     1039.740      328.484        0.719        0.094      110.084       11.185        0.010      335.352        5.927      859.145
11/01/2014  21:39:00      -77.963       99.803      -22.601       19.364       35.528       14.251      374.946     1262.261      203.086        0.919        0.092      126.645       13.971        0.012      335.359        5.940      859.160
11/01/2014  21:40:00      -76.948       77.632      -21.246       28.832       35.936       20.252      831.262     1291.392      410.137        0.747        0.127      109.306       14.512        0.018      335.402        6.012      859.192
11/01/2014  21:41:00      -83.627       97.691      -18.968       38.469       44.843       27.501     1479.855     2010.896      756.332        1.057        0.212      128.596       25.901        0.041      335.366        5.951      859.212
11/01/2014  21:42:00      -49.555       71.105      -10.189       25.056       29.101       19.794      627.788      846.895      391.801        0.474        0.093       86.670       16.612        0.037      335.434        6.066      859.225
11/01/2014  21:43:00      -24.325      130.091      -15.645       27.743       51.026       20.062      769.679     2603.659      402.478        1.077        0.189      132.345       25.482        0.037      335.363        5.945      859.246
11/01/2014  21:44:00      -54.694       91.553      -15.238       35.362       50.431       21.575     1250.458     2543.295      465.489        0.793        0.213      106.646       16.867        0.025      335.464        6.114      859.255
11/01/2014  21:45:00     -116.685      147.241      -33.317       38.855       65.877       30.479     1509.676     4339.715      928.982        2.159        0.339      187.871       25.966        0.019      335.427        6.052      859.275
11/01/2014  21:46:00      -99.354       -3.439      -13.652       33.871       30.920       16.372     1147.256      956.041      268.042        0.622        0.119       99.413       15.608        0.025      335.328        5.888      859.283
11/01/2014  21:47:00      -74.980       23.239      -12.571       17.710       44.342       18.063      313.640     1966.226      326.273        0.446        0.130       78.499       17.465        0.050      335.348        5.921      859.295
11/01/2014  21:48:00      -68.535       21.167      -12.582       27.038       21.362       10.944      731.074      456.341      119.775        0.331        0.065       71.730        9.055        0.016      335.417        6.037      859.296
11/01/2014  21:49:00      -65.114       28.195      -10.681       28.009       25.592       19.125      784.527      654.975      365.773        0.348        0.090       70.956       20.051        0.080      335.429        6.055      859.300
11/01/2014  21:50:00      -83.467       57.274      -10.412       45.562       42.109       21.263     2075.853     1773.184      452.107        0.733        0.215      101.228       21.399        0.045      335.523        6.214      859.298
11/01/2014  21:51:00      -64.631       32.765       -7.181       27.565       33.280       21.235      759.825     1107.546      450.918        0.381        0.116       72.461       20.480        0.080      335.446        6.083      859.318
11/01/2014  21:52:00      -99.703       30.508      -13.259       25.983       29.218       17.737      675.137      853.698      314.591        0.644        0.092      104.266       13.209        0.016      335.384        5.982      859.321
11/01/2014  21:53:00      -97.141       -6.434       -6.216       44.741       32.700       28.512     2001.769     1069.302      812.956        0.670        0.194       97.354       22.198        0.052      335.363        5.946      859.331
11/01/2014  21:54:00      -98.682       41.023      -11.998       37.977       30.912       17.469     1442.254      955.528      305.152        0.713        0.135      106.869       10.418        0.010      335.406        6.018      859.337
11/01/2014  21:55:00     -122.039        8.649       -8.418       28.242       33.732       19.675      797.636     1137.859      387.105        0.868        0.116      122.346        9.579        0.006      335.368        5.956      859.341
11/01/2014  21:56:00     -132.783       65.440      -28.990       54.251       51.871       32.464     2943.222     2690.577     1053.930        1.472        0.334      148.033       16.303        0.012      335.381        5.976      859.348
11/01/2014  21:57:00      -81.526      129.174      -28.266       40.353       60.095       33.845     1628.370     3611.413     1145.497        1.526        0.319      152.750       29.391        0.037      335.453        6.094      859.344
11/01/2014  21:58:00      -91.904       64.827      -20.264       38.517       45.989       26.355     1483.538     2114.992      694.574        0.868        0.215      112.467       23.133        0.042      335.416        6.034      859.350
11/01/2014  21:59:00     -137.280      -39.554      -15.034       35.086       41.290       21.137     1231.050     1704.851      446.761        1.201        0.169      142.865       17.283        0.015      335.390        5.990      859.351
11/01/2014  22:00:00      -85.437      -22.472      -13.507       62.439       46.673       24.457     3898.591     2178.358      598.146        0.733        0.334       88.343       25.440        0.083      335.315        5.867      859.364
11/01/2014  22:01:00     -106.307      -46.445      -18.855       31.905       34.384       26.122     1017.916     1182.283      682.343        0.835        0.144      116.010       17.924        0.024      335.322        5.877      859.358
11/01/2014  22:02:00     -105.264      -41.768       -2.095       49.051       43.042       27.391     2406.018     1852.641      750.249        0.892        0.250      113.248       21.377        0.036      335.243        5.747      859.354
11/01/2014  22:03:00     -152.267       64.527      -34.684       46.952       36.603       26.788     2204.469     1339.796      717.584        1.641        0.213      165.375       20.660        0.016      335.264        5.781      859.359
11/01/2014  22:04:00     -117.173      -24.747      -20.001       43.506       43.529       32.696     1892.810     1894.807     1069.047        0.980        0.243      119.758       26.613        0.049      335.225        5.716      859.366
11/01/2014  22:05:00     -117.284      -15.188       -1.145       41.000       42.602       27.127     1680.993     1814.907      735.884        0.911        0.212      118.263       24.884        0.044      335.177        5.636      859.373
11/01/2014  22:06:00     -109.312      -22.325       -6.812       38.916       46.619       27.953     1514.490     2173.296      781.352        0.848        0.223      111.569       18.560        0.028      335.150        5.593      859.381
11/01/2014  22:07:00      -98.811      -14.286      -28.699       40.956       35.878       26.030     1677.424     1287.219      677.581        0.722        0.182       99.839       22.960        0.053      335.142        5.580      859.397
11/01/2014  22:08:00      -68.959      -11.221       -8.165       42.537       40.165       24.433     1809.411     1613.265      596.975        0.448        0.201       69.866       15.509        0.049      335.151        5.595      859.407
11/01/2014  22:09:00      -47.534        8.284       -9.484       49.450       26.917       19.725     2445.286      724.549      389.070        0.299        0.178       48.250       12.236        0.064      335.144        5.582      859.412
11/01/2014  22:10:00      -75.245       25.854      -11.515       53.048       56.740       25.888     2814.092     3219.378      670.196        0.658        0.335       79.563       19.951        0.063      335.179        5.640      859.424
11/01/2014  22:11:00     -121.584       41.877      -21.227       47.821       51.018       28.045     2286.851     2602.884      786.515        1.133        0.284      128.593       31.741        0.061      335.163        5.615      859.435
11/01/2014  22:12:00      -67.349        8.058        1.707       35.591       33.887       28.672     1266.684     1148.304      822.088        0.392        0.162       67.829       15.734        0.054      335.158        5.607      859.451
11/01/2014  22:13:00      -65.565        3.694        0.558       39.314       30.552       27.909     1545.585      933.454      778.908        0.378        0.163       65.669       20.490        0.097      335.143        5.581      859.458
11/01/2014  22:14:00      -52.327       20.506       -7.858       25.988       27.655       22.197      675.363      764.772      492.719        0.258        0.097       56.202       16.281        0.084      335.164        5.615      859.463
11/01/2014  22:15:00      -58.839       59.072      -12.448       38.597       48.525       21.231     1489.694     2354.633      450.746        0.570        0.215       83.376       14.465        0.030      335.171        5.627      859.461
11/01/2014  22:16:00     -113.896       70.624      -29.841       50.054       66.004       26.801     2505.380     4356.574      718.287        1.321        0.379      134.015       26.451        0.039      335.215        5.701      859.466
11/01/2014  22:17:00      -60.546        6.053      -15.749       25.096       54.683       22.629      629.808     2990.226      512.067        0.404        0.207       60.848       21.989        0.131      335.211        5.694      859.467
11/01/2014  22:18:00      -88.012       36.952       -9.802       35.963       44.283       28.557     1293.360     1960.942      815.503        0.664        0.203       95.454       18.977        0.040      335.278        5.804      859.469
11/01/2014  22:19:00     -141.066       59.423      -18.194       62.524       60.139       33.462     3909.261     3616.727     1119.721        1.620        0.432      153.071       37.055        0.059      335.214        5.697      859.477
11/01/2014  22:20:00     -114.651       14.021       -5.812       69.326       53.765       41.506     4806.101     2890.652     1722.717        1.140        0.471      115.506       42.891        0.138      335.189        5.658      859.476
11/01/2014  22:21:00      -89.467       49.447      -18.837       42.961       47.887       36.006     1845.689     2293.173     1296.423        0.812        0.272      102.222       26.810        0.069      335.239        5.739      859.478
11/01/2014  22:22:00      -48.495      -38.417        3.511       54.535       37.944       30.167     2974.090     1439.776      910.078        0.458        0.266       61.868       34.666        0.314      335.272        5.794      859.494
11/01/2014  22:23:00      -66.225       45.835       -0.183       52.339       66.614       30.010     2739.390     4437.475      900.587        0.728        0.404       80.540       31.550        0.153      335.252        5.762      859.508
11/01/2014  22:24:00      -85.504       19.488      -11.323       24.600       32.438       15.654      605.162     1052.211      245.048        0.486        0.095       87.697        9.699        0.012      335.235        5.733      859.529
11/01/2014  22:25:00      -73.733       72.493      -12.481       34.801       62.003       24.483     1211.083     3844.326      599.410        0.825        0.283      103.401       25.648        0.062      335.278        5.804      859.543
11/01/2014  22:26:00     -106.498      116.386      -23.831       42.497       38.873       27.279     1805.994     1511.120      744.119        1.476        0.203      157.758       24.141        0.023      335.112        5.530      859.562
11/01/2014  22:27:00     -114.734      112.939      -27.367       35.002       42.563       22.002     1225.147     1811.638      484.071        1.509        0.176      160.994       20.531        0.016      335.103        5.517      859.555
11/01/2014  22:28:00      -87.689      131.667      -18.645       47.544       61.334       27.765     2260.443     3761.817      770.869        1.608        0.340      158.194       31.992        0.041      335.073        5.465      859.559
11/01/2014  22:29:00      -95.066      129.175      -22.007       42.526       47.838       29.902     1808.482     2288.481      894.151        1.560        0.250      160.386       26.696        0.028      335.054        5.433      859.561
11/01/2014  22:30:00     -106.284       25.511      -14.729       24.698       36.581       17.459      609.990     1338.199      304.802        0.721        0.113      109.303       12.167        0.012      335.037        5.405      859.585
11/01/2014  22:31:00      -68.232        5.651       -9.633       22.966       16.478       13.150      527.443      271.535      172.921        0.288        0.049       68.466       11.273        0.027      334.970        5.295      859.597
11/01/2014  22:32:00      -81.494        9.030      -13.050       28.692       19.686       17.535      823.241      387.524      307.463        0.421        0.076       81.993       12.968        0.025      334.978        5.308      859.599
11/01/2014  22:33:00      -66.053       55.324      -20.652       13.687       22.385       12.321      187.340      501.077      151.796        0.435        0.042       86.161       10.163        0.014      334.965        5.287      859.602
11/01/2014  22:34:00     -103.317       58.153      -22.377       47.471       40.288       25.877     2253.503     1623.090      669.614        0.955        0.227      118.558       19.769        0.028      334.958        5.273      859.614
11/01/2014  22:35:00      -87.501       98.228      -17.539       72.104       49.143       37.428     5198.948     2415.068     1400.887        1.331        0.451      131.549       45.951        0.122      334.800        5.010      859.636
11/01/2014  22:36:00      -79.287       75.019      -18.001       34.072       56.132       21.024     1160.876     3150.747      441.997        0.850        0.238      109.153       20.959        0.037      334.904        5.186      859.641
11/01/2014  22:37:00      -86.083      -24.961       -7.062       20.988       34.936       15.904      440.498     1220.549      252.935        0.500        0.096       89.629       11.437        0.016      334.849        5.092      859.651
11/01/2014  22:38:00      -99.058       18.358      -14.771       27.033       36.121       18.149      730.768     1304.736      329.375        0.637        0.118      100.745       15.067        0.022      334.851        5.096      859.673
11/01/2014  22:39:00     -106.861      -49.297       -5.885       33.715       35.199       25.015     1136.704     1238.963      625.726        0.844        0.150      117.684       17.734        0.023      334.734        4.902      859.674
11/01/2014  22:40:00      -43.968       -4.510       -7.152       77.002       35.106       28.248     5929.272     1232.453      797.952        0.498        0.398       44.199       29.074        0.433      334.679        4.811      859.673
11/01/2014  22:41:00     -104.195      -29.866       -8.549       46.204       43.770       18.143     2134.826     1915.830      329.184        0.810        0.219      108.391       10.276        0.009      334.625        4.721      859.680
11/01/2014  22:42:00      -83.915      -70.099       -9.506       62.773       35.895       24.747     3940.413     1288.462      612.436        0.894        0.292      109.341       24.308        0.049      334.637        4.741      859.695
11/01/2014  22:43:00      -55.014      -16.871       13.122       41.410       30.662       26.011     1714.810      940.179      676.559        0.341        0.167       57.542       25.605        0.198      334.555        4.604      859.708
11/01/2014  22:44:00     -112.846       21.187      -28.291       34.528       65.135       20.555     1192.156     4242.525      422.491        0.992        0.293      114.818       18.745        0.027      334.695        4.836      859.722
11/01/2014  22:45:00     -112.484      -15.582      -17.057       35.895       41.541       19.876     1288.448     1725.627      395.047        0.830        0.170      113.558       13.750        0.015      334.630        4.728      859.726
11/01/2014  22:46:00      -73.423      -28.312       -1.659       54.840       32.408       22.229     3007.415     1050.278      494.137        0.537        0.228       78.693       26.673        0.115      334.542        4.583      859.737
11/01/2014  22:47:00     -106.826      -19.058       -5.519       51.917       36.918       21.167     2695.348     1362.945      448.049        0.815        0.225      108.512       24.055        0.049      334.486        4.490      859.746
11/01/2014  22:48:00      -96.113       -4.275      -17.751       34.824       35.347       22.170     1212.697     1249.387      491.523        0.626        0.148       96.208       16.941        0.031      334.510        4.531      859.747
11/01/2014  22:49:00      -56.417       10.968       -6.734       39.070       42.765       31.006     1526.445     1828.825      961.385        0.383        0.216       57.474       23.033        0.161      334.470        4.464      859.742
11/01/2014  22:50:00     -129.994      -45.079      -12.848       43.522       42.586       22.815     1894.126     1813.536      520.515        1.166        0.211      137.588       15.523        0.013      334.485        4.489      859.736
11/01/2014  22:51:00     -126.832       -6.318      -14.184       46.283       36.507       23.723     2142.128     1332.774      562.759        1.018        0.202      126.989       16.512        0.017      334.412        4.367      859.745
11/01/2014  22:52:00     -149.958      -25.527      -10.674       40.098       39.397       25.456     1607.857     1552.121      648.026        1.353        0.190      152.115       15.232        0.010      334.399        4.345      859.744
11/01/2014  22:53:00     -108.397      -19.707        2.029       64.156       50.974       31.774     4116.038     2598.325     1009.574        0.993        0.386      110.174       25.335        0.053      334.339        4.248      859.745
11/01/2014  22:54:00      -90.813       10.052      -12.996       20.175       29.800       16.431      407.012      888.031      269.981        0.504        0.078       91.368        7.399        0.007      334.378        4.311      859.762
11/01/2014  22:55:00      -93.039       -4.489      -16.620       24.558       27.144       19.275      603.086      736.799      371.528        0.533        0.086       93.148       12.622        0.018      334.464        4.455      859.776
11/01/2014  22:56:00      -94.436      -22.396       -3.233       24.938       31.144       19.333      621.929      969.951      373.750        0.570        0.098       97.056       16.006        0.027      334.400        4.349      859.779
11/01/2014  22:57:00      -95.267        3.050      -15.266       30.993       46.873       18.797      960.584     2197.095      353.334        0.641        0.176       95.316       13.700        0.021      334.420        4.381      859.775
11/01/2014  22:58:00      -69.867      -54.784        3.541       44.831       50.319       23.995     2009.789     2531.991      575.770        0.651        0.256       88.785        2.825        0.001      334.364        4.289      859.777
11/01/2014  22:59:00      -97.323      -26.270       -2.947       35.796       30.829       23.250     1281.384      950.447      540.546        0.647        0.139      100.806       19.283        0.037      334.432        4.402      859.786
11/01/2014  23:00:00      -59.613       39.684      -11.074       26.401       33.778       17.101      697.000     1140.927      292.459        0.369        0.107       71.614        8.130        0.013      334.519        4.546      859.803
11/01/2014  23:01:00     -129.661      -36.365       -8.837       47.098       34.183       33.114     2218.208     1168.449     1096.562        1.135        0.224      134.664       31.778        0.056      334.540        4.579      859.807
11/01/2014  23:02:00      -76.584       25.956      -15.861       43.758       38.722       31.965     1914.758     1499.429     1021.744        0.561        0.222       80.863       31.775        0.154      334.490        4.499      859.824
11/01/2014  23:03:00      -58.647       -2.848       -2.292       41.578       38.628       16.605     1728.755     1492.153      275.729        0.347        0.175       58.716       14.579        0.062      334.469        4.463      859.823
11/01/2014  23:04:00      -95.830      -50.624       -8.193       46.310       35.470       21.042     2144.646     1258.152      442.783        0.783        0.192      108.380       20.550        0.036      334.492        4.501      859.832
11/01/2014  23:05:00      -72.753      -61.029       -2.386       54.995       43.043       26.044     3024.485     1852.718      678.283        0.729        0.278       94.960       16.802        0.031      334.501        4.515      859.855
11/01/2014  23:06:00      -85.606      -55.248       -9.704       69.145       48.578       24.501     4781.033     2359.809      600.295        0.911        0.387      101.885       18.162        0.032      334.514        4.536      859.864
11/01/2014  23:07:00     -178.820      -78.462      -10.504       61.497       45.845       33.424     3781.919     2101.799     1117.133        2.262        0.350      195.277       23.010        0.014      334.419        4.377      859.867
11/01/2014  23:08:00      -75.519      -52.402        7.478       41.318       36.084       25.297     1707.208     1302.039      639.924        0.608        0.182       91.919       25.265        0.076      334.312        4.203      859.865
11/01/2014  23:09:00     -105.283      -68.660        0.366       53.061       41.756       32.150     2815.444     1743.595     1033.649        1.069        0.280      125.693       24.576        0.038      334.298        4.178      859.873
11/01/2014  23:10:00      -86.882      -37.916       -7.784       26.178       27.301       18.984      685.290      745.349      360.405        0.542        0.090       94.795       13.505        0.020      334.239        4.081      859.877
11/01/2014  23:11:00      -73.221       -5.948       -3.480       37.052       21.058       18.123     1372.820      443.443      328.445        0.378        0.107       73.462       18.547        0.064      334.223        4.054      859.875
11/01/2014  23:12:00      -57.749      -16.533       -5.498       51.560       18.789       17.231     2658.389      353.035      296.905        0.347        0.165       60.069       24.791        0.170      334.321        4.217      859.875
11/01/2014  23:13:00     -139.704      -16.737      -15.089       27.159       22.733       16.307      737.616      516.810      265.926        1.077        0.076      140.703       15.816        0.013      334.466        4.458      859.882
11/01/2014  23:14:00      -71.019        6.344        2.549       28.086       34.975       19.792      788.851     1223.245      391.740        0.375        0.120       71.302       18.813        0.070      334.349        4.264      859.885
11/01/2014  23:15:00      -28.140      -10.785        2.905       30.583       14.537        9.905      935.319      211.313       98.119        0.108        0.062       30.136       12.880        0.183      334.391        4.333      859.876
11/01/2014  23:16:00      -40.609       -8.874       -9.587       16.667       19.135       10.341      277.784      366.153      106.935        0.129        0.038       41.567        2.886        0.005      334.402        4.351      859.877
11/01/2014  23:17:00      -31.613       15.941       -6.299       10.743        6.259        6.122      115.417       39.172       37.475        0.074        0.010       35.405        3.302        0.009      334.428        4.394      859.880
11/01/2014  23:18:00      -16.552        0.598       -4.353        9.442        5.678        5.124       89.150       32.238       26.260        0.022        0.007       16.563        2.566        0.024      334.511        4.532      859.899
11/01/2014  23:19:00      -24.390        4.300       -0.040       18.491       12.309        6.526      341.930      151.521       42.593        0.057        0.027       24.766        6.646        0.072      334.520        4.546      859.915
11/01/2014  23:20:00      -59.583        1.140       -0.948       13.320       14.281       13.088      177.409      203.936      171.298        0.205        0.028       59.594        7.385        0.015      334.548        4.593      859.932
11/01/2014  23:21:00      -42.600       34.922      -16.660       10.951       10.934       10.467      119.928      119.557      109.562        0.183        0.017       55.085        4.299        0.006      334.542        4.585      859.941
11/01/2014  23:22:00      -46.856       43.833       -6.261       14.807       11.190       11.442      219.249      125.206      130.919        0.232        0.024       64.163        9.810        0.023      334.440        4.416      859.954
11/01/2014  23:23:00      -21.327       44.961       -4.894       28.677       21.370       14.862      822.347      456.659      220.866        0.200        0.075       49.763       10.110        0.041      334.380        4.315      859.963
11/01/2014  23:24:00      -27.754       65.737      -15.579       43.011       24.593        8.897     1849.974      604.791       79.163        0.393        0.127       71.355        8.197        0.013      334.391        4.333      859.982
11/01/2014  23:25:00      -45.805      -75.249       -6.414       51.964       34.776       16.129     2700.247     1209.356      260.130        0.598        0.208       88.094       26.415        0.090      334.428        4.394      859.985
11/01/2014  23:26:00      -30.885       29.104        6.037       42.994       46.750       27.725     1848.467     2185.546      768.703        0.332        0.240       42.437       33.147        0.610      334.429        4.396      859.970
11/01/2014  23:27:00      -55.651       32.636      -10.669       27.518       26.983       15.854      757.266      728.064      251.358        0.301        0.087       64.514       12.514        0.038      334.495        4.505      859.980
11/01/2014  23:28:00      -82.639       -4.514       -2.482       25.581       23.196       20.213      654.373      538.059      408.560        0.423        0.080       82.762       17.371        0.044      334.464        4.453      859.987
11/01/2014  23:29:00      -83.119       89.345      -22.411       40.961       43.348       24.447     1677.775     1879.073      597.639        0.977        0.208      122.030       21.688        0.032      334.625        4.721      859.982
11/01/2014  23:30:00      -80.718       88.336      -25.607       56.920       54.278       27.344     3239.880     2946.130      747.683        1.095        0.347      119.660       29.542        0.061      334.659        4.778      859.984
11/01/2014  23:31:00      -65.313       73.443       -8.449       40.618       58.672       25.325     1649.804     3442.370      641.377        0.773        0.287       98.284       29.910        0.093      334.672        4.798      859.990
11/01/2014  23:32:00     -121.681      154.170      -20.736       82.069       66.621       43.211     6735.377     4438.376     1867.202        2.602        0.652      196.404       36.713        0.035      334.665        4.785      859.997
11/01/2014  23:33:00      -91.986      107.718      -12.228       44.297       80.412       36.905     1962.223     6466.017     1362.002        1.500        0.490      141.650       33.686        0.057      334.679        4.809      859.997
11/01/2014  23:34:00     -102.547      144.675      -24.122       65.259       80.594       43.531     4258.759     6495.387     1894.929        2.234        0.632      177.332       50.113        0.080      334.673        4.798      860.008
11/01/2014  23:35:00     -124.691       84.910      -28.336       64.724       67.684       29.109     4189.156     4581.102      847.319        1.659        0.481      150.856       28.027        0.035      334.735        4.903      860.023
11/01/2014  23:36:00     -116.647      120.009      -23.857       69.619       72.102       41.545     4846.805     5198.692     1726.009        2.017        0.589      167.358       42.252        0.064      334.706        4.853      860.037
11/01/2014  23:37:00     -121.629       63.851      -15.455       70.256       43.915       36.493     4935.883     1928.542     1331.771        1.365        0.410      137.370       36.078        0.069      334.712        4.864      860.041
11/01/2014  23:38:00      -83.274       95.240       -3.294       44.590      102.484       46.227     1988.266    10502.910     2136.927        1.532        0.731      126.511       51.936        0.169      334.698        4.841      860.043
11/01/2014  23:39:00      -93.206      115.996       -9.096       42.105       74.968       32.985     1772.857     5620.175     1088.039        1.535        0.424      148.803       22.782        0.023      334.682        4.815      860.048
11/01/2014  23:40:00      -95.456      135.150       -8.895       54.490       75.434       39.150     2969.209     5690.233     1532.684        1.882        0.510      165.461       37.184        0.051      334.676        4.803      860.054
11/01/2014  23:41:00     -148.173      128.363      -30.315       64.501       87.308       42.381     4160.360     7622.649     1796.114        2.646        0.679      196.042       43.645        0.050      334.687        4.821      860.069
11/01/2014  23:42:00     -151.077      228.157      -38.727       63.816       86.480       43.961     4072.494     7478.779     1932.566        4.493        0.674      273.642       39.759        0.021      334.683        4.812      860.087
11/01/2014  23:43:00     -186.611      155.812      -39.008       85.634       82.859       42.774     7333.172     6865.629     1829.591        3.832        0.801      243.107       43.640        0.032      334.648        4.755      860.092
11/01/2014  23:44:00     -174.200       60.573      -26.498       76.361       74.283       32.665     5830.927     5517.955     1066.990        2.356        0.621      184.431       27.338        0.022      334.639        4.741      860.090
11/01/2014  23:45:00     -140.061      100.960      -22.121       69.954       70.728       38.306     4893.553     5002.416     1467.364        2.083        0.568      172.655       36.738        0.045      334.618        4.709      860.101
11/01/2014  23:46:00     -130.346       90.478       -4.012       97.025       78.417       51.971     9413.897     6149.175     2701.019        2.172        0.913      158.671       32.684        0.042      334.626        4.720      860.098
11/01/2014  23:47:00     -113.781       63.826      -17.315       58.909       59.403       39.973     3470.328     3528.744     1597.859        1.296        0.430      130.460       24.199        0.034      334.636        4.737      860.103
11/01/2014  23:48:00     -109.128        4.823       -0.139       49.231       61.985       36.064     2423.684     3842.124     1300.641        0.975        0.378      109.234       21.980        0.040      334.587        4.657      860.097
11/01/2014  23:49:00     -110.821       -5.906      -14.967       66.059       59.424       37.375     4363.788     3531.204     1396.900        1.091        0.465      110.978       25.514        0.053      334.663        4.784      860.092
11/01/2014  23:50:00     -164.564       -1.301      -50.489       70.583       80.934       46.751     4981.967     6550.336     2185.657        2.167        0.686      164.569       32.265        0.038      334.739        4.909      860.081
11/01/2014  23:51:00     -157.416      -23.385      -26.435       97.772       91.832       48.332     9559.325     8433.056     2335.936        2.317        1.016      159.144       39.231        0.061      334.730        4.892      860.085
11/01/2014  23:52:00     -267.450       31.886      -34.528       94.658      102.274       52.528     8960.146    10459.983     2759.156        4.795        1.109      269.344       49.338        0.034      334.698        4.838      860.078
11/01/2014  23:53:00     -238.663       40.991      -33.769       83.096       67.997       44.683     6904.900     4623.585     1996.600        3.665        0.676      242.158       44.397        0.034      334.688        4.821      860.081
11/01/2014  23:54:00     -133.057       46.157      -38.671       69.050       95.463       38.146     4767.837     9113.216     1455.130        1.833        0.767      140.835       41.400        0.086      334.684        4.816      860.083
11/01/2014  23:55:00     -140.615      -18.299      -12.558       55.705       60.139       34.151     3103.071     3616.685     1166.320        1.407        0.394      141.800       33.268        0.055      334.672        4.798      860.092
11/01/2014  23:56:00      -96.826       64.607      -14.757       77.198       45.007       44.312     5959.553     2025.630     1963.509        1.186        0.497      116.402       39.921        0.118      334.625        4.719      860.103
11/01/2014  23:57:00     -143.056       37.715      -18.314       51.752       39.056       32.916     2678.297     1525.396     1083.489        1.375        0.264      147.944       20.452        0.019      334.625        4.721      860.108
11/01/2014  23:58:00      -81.485       25.968      -16.330       37.125       56.292       24.848     1378.267     3168.757      617.436        0.637        0.258       85.523       18.075        0.045      334.652        4.766      860.116
11/01/2014  23:59:00      -86.965       54.678      -12.885       44.194       49.016       24.492     1953.093     2402.615      599.834        0.784        0.248      102.726       16.092        0.025      334.605        4.687      860.127
